[[{"header":{"parameterUnit":"m.s-1","parameterCategory":1,"la1":30.6,"la2":28.766,"lo1":-90.7593,"lo2":-88.6598,"dy":0.0162,"dx":0.0183,"nx":116,"ny":114,"refTime":"2023-06-27T06:00:00:Z","depth":0,"parameterNumber":2,"parameterNumberName":"U-component_of_WINDS"},"data":[0.0,0.0,0.0,0.0,0.0,0.0,0.0,0.0,0.0,0.0,0.0,0.0,0.0,0.0,0.0,0.0,0.0,0.0,0.0,0.0,0.0,0.0,0.0,0.0,0.0,0.0,0.0,0.0,0.0,0.0,0.0,0.0,0.0,0.0,0.0,0.0,0.0,0.0,0.0,0.0,0.0,0.0,0.0,0.0,0.0,0.0,0.0,0.0,0.0,0.0,0.0,0.0,0.0,0.0,0.0,0.0,0.0,0.0,0.0,0.0,0.0,0.0,0.0,0.0,0.0,0.0,0.0,0.0,0.0,0.0,0.0,0.0,0.0,0.0,0.0,0.0,0.0,0.0,0.0,0.0,0.0,0.0,0.0,0.0,0.0,0.0,0.0,0.0,0.0,0.0,0.0,0.0,0.0,0.0,0.0,0.0,0.0,0.0,0.0,0.0,0.0,0.0,0.0,0.0,0.0,0.0,0.0,0.0,0.0,0.0,0.0,0.0,0.0,0.0,0.0,0.0,0.0,0.0,0.0,0.0,0.0,0.0,0.0,0.0,0.0,0.0,0.0,0.0,0.0,0.0,0.0,0.0,0.0,0.0,0.0,0.0,0.0,0.0,0.0,0.0,0.0,0.0,0.0,0.0,0.0,0.0,0.0,0.0,0.0,0.0,0.0,0.0,0.0,0.0,0.0,0.0,0.0,0.0,0.0,0.0,0.0,0.0,0.0,0.0,0.0,0.0,0.0,0.0,0.0,0.0,0.0,0.0,0.0,0.0,0.0,0.0,0.0,0.0,0.0,0.0,0.0,0.0,0.0,0.0,0.0,0.0,0.0,0.0,0.0,0.0,0.0,0.0,0.0,0.0,0.0,0.0,0.0,0.0,0.0,0.0,0.0,0.0,0.0,0.0,0.0,0.0,0.0,0.0,0.0,0.0,0.0,0.0,0.0,0.0,0.0,0.0,0.0,0.0,0.0,0.0,0.0,0.0,0.0,0.0,0.0,0.0,0.0,0.0,0.0,0.0,0.0,0.0,0.0,0.0,0.0,0.0,0.0,0.0,0.0,0.0,0.0,0.0,0.0,0.0,0.0,0.0,0.0,0.0,0.0,0.0,0.0,0.0,0.0,0.0,0.0,0.0,0.0,0.0,0.0,0.0,0.0,0.0,0.0,0.0,0.0,0.0,0.0,0.0,0.0,0.0,0.0,0.0,0.0,0.0,0.0,0.0,0.0,0.0,0.0,0.0,0.0,0.0,0.0,0.0,0.0,0.0,0.0,0.0,0.0,0.0,0.0,0.0,0.0,0.0,0.0,0.0,0.0,0.0,0.0,0.0,0.0,0.0,0.0,0.0,0.0,0.0,0.0,0.0,0.0,0.0,0.0,0.0,0.0,0.0,0.0,0.0,0.0,0.0,0.0,0.0,0.0,0.0,0.0,0.0,0.0,0.0,0.0,0.0,0.0,0.0,0.0,0.0,0.0,0.0,0.0,0.0,0.0,0.0,0.0,0.0,0.0,0.0,0.0,0.0,0.0,0.0,0.0,0.0,0.0,0.0,0.0,0.0,0.0,0.0,0.0,0.0,0.0,0.0,0.0,0.0,0.0,0.0,0.0,0.0,0.0,0.0,0.0,0.0,0.0,0.0,0.0,0.0,0.0,0.0,0.0,0.0,0.0,0.0,0.0,0.0,0.0,0.0,0.0,0.0,0.0,0.0,0.0,0.0,0.0,0.0,0.0,0.0,0.0,0.0,0.0,0.0,0.0,0.0,0.0,0.0,0.0,0.0,0.0,0.0,0.0,0.0,0.0,0.0,0.0,0.0,0.0,0.0,0.0,0.0,0.0,0.0,0.0,0.0,0.0,0.0,0.0,0.0,0.0,0.0,0.0,0.0,0.0,0.0,0.0,0.0,0.0,0.0,0.0,0.0,0.0,0.0,0.0,0.0,0.0,0.0,0.0,0.0,0.0,0.0,0.0,0.0,0.0,0.0,0.0,0.0,0.0,0.0,0.0,0.0,0.0,0.0,0.0,0.0,0.0,0.0,0.0,0.0,0.0,0.0,0.0,0.0,0.0,0.0,0.0,0.0,0.0,0.0,0.0,0.0,0.0,0.0,0.0,0.0,0.0,0.0,0.0,0.0,0.0,0.0,0.0,0.0,0.0,0.0,0.0,0.0,0.0,0.0,0.0,0.0,0.0,0.0,0.0,0.0,0.0,0.0,0.0,0.0,0.0,0.0,0.0,0.0,0.0,0.0,0.0,0.0,0.0,0.0,0.0,0.0,0.0,0.0,0.0,0.0,0.0,0.0,0.0,0.0,0.0,0.0,0.0,0.0,0.0,0.0,0.0,0.0,0.0,0.0,0.0,0.0,0.0,0.0,0.0,0.0,0.0,0.0,0.0,0.0,0.0,0.0,0.0,0.0,0.0,0.0,0.0,0.0,0.0,0.0,0.0,0.0,0.0,0.0,0.0,0.0,0.0,0.0,0.0,0.0,0.0,0.0,0.0,0.0,0.0,0.0,0.0,0.0,0.0,0.0,0.0,0.0,0.0,0.0,0.0,0.0,0.0,0.0,0.0,0.0,0.0,0.0,0.0,0.0,0.0,0.0,0.0,0.0,0.0,0.0,0.0,0.0,0.0,0.0,0.0,0.0,0.0,0.0,0.0,0.0,0.0,0.0,0.0,0.0,0.0,0.0,0.0,0.0,0.0,0.0,0.0,0.0,0.0,0.0,0.0,0.0,0.0,0.0,0.0,0.0,0.0,0.0,0.0,0.0,0.0,0.0,0.0,0.0,0.0,0.0,0.0,0.0,0.0,0.0,0.0,0.0,0.0,0.0,0.0,0.0,0.0,0.0,0.0,0.0,0.0,0.0,0.0,0.0,0.0,0.0,0.0,0.0,0.0,0.0,0.0,0.0,0.0,0.0,0.0,0.0,0.0,0.0,0.0,0.0,0.0,0.0,0.0,0.0,0.0,0.0,0.0,0.0,0.0,0.0,0.0,0.0,0.0,0.0,0.0,0.0,0.0,0.0,0.0,0.0,0.0,0.0,0.0,0.0,0.0,0.0,0.0,0.0,0.0,0.0,0.0,0.0,0.0,0.0,0.0,0.0,0.0,0.0,0.0,0.0,0.0,0.0,0.0,0.0,0.0,0.0,0.0,0.0,0.0,0.0,0.0,0.0,0.0,0.0,0.0,0.0,0.0,0.0,0.0,0.0,0.0,0.0,0.0,0.0,0.0,0.0,0.0,0.0,0.0,0.0,0.0,0.0,0.0,0.0,0.0,0.0,0.0,0.0,0.0,0.0,0.0,0.0,0.0,0.0,0.0,0.0,0.0,0.0,0.0,0.0,0.0,0.0,0.0,0.0,0.0,0.0,0.0,0.0,0.0,0.0,0.0,0.0,0.0,0.0,0.0,0.0,0.0,0.0,0.0,0.0,0.0,0.0,0.0,0.0,0.0,0.0,0.0,0.0,0.0,0.0,0.0,0.0,0.0,0.0,0.0,0.0,0.0,0.0,0.0,0.0,0.0,0.0,0.0,0.0,0.0,0.0,0.0,0.0,0.0,0.0,0.0,0.0,0.0,0.0,0.0,0.0,0.0,0.0,0.0,0.0,0.0,0.0,0.0,0.0,0.0,0.0,0.0,0.0,0.0,0.0,0.0,0.0,0.0,0.0,0.0,0.0,0.0,0.0,0.0,0.0,0.0,0.0,0.0,0.0,0.0,0.0,0.0,0.0,0.0,0.0,0.0,0.0,0.0,0.0,0.0,0.0,0.0,0.0,0.0,0.0,0.0,0.0,0.0,0.0,0.0,0.0,0.0,0.0,0.0,0.0,0.0,0.0,0.0,0.0,0.0,0.0,0.0,0.0,0.0,0.0,0.0,0.0,0.0,0.0,0.0,0.0,0.0,0.0,0.0,0.0,0.0,0.0,0.0,0.0,0.0,0.0,0.0,0.0,0.0,0.0,0.0,0.0,0.0,0.0,0.0,0.0,0.0,0.0,0.0,0.0,0.0,0.0,0.0,0.0,0.0,0.0,0.0,0.0,0.0,0.0,0.0,0.0,0.0,0.0,0.0,0.0,0.0,0.0,0.0,0.0,0.0,0.0,0.0,0.0,0.0,0.0,0.0,0.0,0.0,0.0,0.0,0.0,0.0,0.0,0.0,0.0,0.0,0.0,0.0,0.0,0.0,0.0,0.0,0.0,0.0,0.0,0.0,0.0,0.0,0.0,0.0,0.0,0.0,0.0,0.0,0.0,0.0,0.0,0.0,0.0,0.0,0.0,0.0,0.0,0.0,0.0,0.0,0.0,0.0,0.0,0.0,0.0,0.0,0.0,0.0,0.0,0.0,0.0,0.0,0.0,0.0,0.0,0.0,0.0,0.0,0.0,0.0,0.0,0.0,0.0,0.0,0.0,0.0,0.0,0.0,0.0,0.0,0.0,0.0,0.0,0.0,0.0,0.0,0.0,0.0,0.0,0.0,0.0,0.0,0.0,0.0,0.0,0.0,0.0,0.0,0.0,0.0,0.0,0.0,0.0,0.0,0.0,0.0,0.0,0.0,0.0,0.0,0.0,0.0,0.0,0.0,0.0,0.0,0.0,0.0,0.0,0.0,0.0,0.0,0.0,0.0,0.0,0.0,0.0,0.0,0.0,0.0,0.0,0.0,0.0,0.0,0.0,0.0,0.0,0.0,0.0,0.0,0.0,0.0,0.0,0.0,0.0,0.0,0.0,0.0,0.0,0.0,0.0,0.0,0.0,0.0,0.0,0.0,0.0,0.0,0.0,0.0,0.0,0.0,0.0,0.0,0.0,0.0,0.0,0.0,0.0,0.0,0.0,0.0,0.0,0.0,0.0,0.0,0.0,0.0,0.0,0.0,0.0,0.0,0.0,0.0,0.0,0.0,0.0,0.0,0.0,0.0,0.0,0.0,0.0,0.0,0.0,0.0,0.0,0.0,0.0,0.0,0.0,0.0,0.0,0.0,0.0,0.0,0.0,0.0,0.0,0.0,0.0,0.0,0.0,0.0,0.0,0.0,0.0,0.0,0.0,0.0,0.0,0.0,0.0,0.0,0.0,0.0,0.0,0.0,0.0,0.0,0.0,0.0,0.0,0.0,0.0,0.0,0.0,0.0,0.0,0.0,0.0,0.0,0.0,0.0,0.0,0.0,0.0,0.0,0.0,0.0,0.0,0.0,0.0,0.0,0.0,0.0,0.0,0.0,0.0,0.0,0.0,0.0,0.0,0.0,0.0,0.0,0.0,0.0,0.0,0.0,0.0,0.0,0.0,0.0,0.0,0.0,0.0,0.0,0.0,0.0,0.0,0.0,0.0,0.0,0.0,0.0,0.0,0.0,0.0,0.0,0.0,0.0,0.0,0.0,0.0,0.0,0.0,0.0,0.0,0.0,0.0,0.0,0.0,0.0,0.0,0.0,0.0,0.0,0.0,0.0,0.0,0.0,0.0,0.0,0.0,0.0,0.0,0.0,0.0,0.0,0.0,0.0,0.0,0.0,0.0,0.0,0.0,0.0,0.0,0.0,0.0,0.0,0.0,0.0,0.0,0.0,0.0,0.0,0.0,0.0,0.0,0.0,0.0,0.0,0.0,0.0,0.0,0.0,0.0,0.0,0.0,0.0,0.0,0.0,0.0,0.0,0.0,0.0,0.0,0.0,0.0,0.0,0.0,0.0,0.0,0.0,0.0,0.0,0.0,0.0,0.0,0.0,0.0,0.0,0.0,0.0,0.0,0.0,0.0,0.0,0.0,0.0,0.0,0.0,0.0,0.0,0.0,0.0,0.0,0.0,0.0,0.0,0.0,0.0,0.0,0.0,0.0,0.0,0.0,0.0,0.0,0.0,0.0,0.0,0.0,0.0,0.0,0.0,0.0,0.0,0.0,0.0,0.0,0.0,0.0,0.0,0.0,0.0,0.0,0.0,0.0,0.0,0.0,0.0,0.0,0.0,0.0,0.0,0.0,0.0,0.0,0.0,0.0,0.0,0.0,0.0,0.0,0.0,0.0,0.0,0.0,0.0,0.0,0.0,0.0,0.0,0.0,0.0,0.0,0.0,0.0,0.0,0.0,0.0,0.0,0.0,0.0,-0.836,-0.8295,0.0,0.0,0.0,0.0,0.0,0.0,0.0,0.0,0.0,0.0,0.0,0.0,0.0,0.0,0.0,0.0,0.0,0.0,0.0,0.0,0.0,0.0,0.0,0.0,0.0,0.0,0.0,0.0,0.0,0.0,0.0,0.0,0.0,0.0,0.0,0.0,0.0,0.0,0.0,0.0,0.0,0.0,0.0,0.0,0.0,0.0,0.0,0.0,0.0,0.0,0.0,0.0,0.0,0.0,0.0,0.0,0.0,0.0,0.0,0.0,0.0,0.0,0.0,0.0,0.0,0.0,0.0,0.0,0.0,0.0,0.0,0.0,0.0,0.0,0.0,0.0,0.0,0.0,0.0,0.0,0.0,0.0,0.0,0.0,0.0,0.0,0.0,0.0,0.0,0.0,0.0,0.0,0.0,0.0,0.0,0.0,0.0,0.0,0.0,0.0,0.0,0.0,0.0,0.0,0.0,0.0,0.0,0.0,0.0,0.0,0.0,0.0,0.0,0.0,-0.9335,-0.9388,0.0,0.0,0.0,0.0,0.0,0.0,0.0,0.0,0.0,0.0,0.0,0.0,0.0,0.0,0.0,0.0,0.0,0.0,0.0,0.0,0.0,0.0,0.0,0.0,0.0,0.0,0.0,0.0,0.0,0.0,0.0,0.0,0.0,0.0,0.0,0.0,0.0,0.0,0.0,0.0,0.0,0.0,0.0,0.0,0.0,0.0,0.0,0.0,0.0,0.0,0.0,0.0,0.0,0.0,0.0,0.0,0.0,0.0,0.0,0.0,0.0,0.0,0.0,0.0,0.0,0.0,0.0,0.0,0.0,0.0,0.0,0.0,0.0,0.0,0.0,0.0,0.0,0.0,0.0,0.0,0.0,0.0,0.0,0.0,0.0,0.0,0.0,0.0,0.0,0.0,0.0,0.0,0.0,0.0,0.0,0.0,0.0,0.0,0.0,0.0,0.0,0.0,0.0,0.0,0.0,0.0,0.0,0.0,-0.718,-0.7806,-0.788,-0.8807,-0.9729,-1.0526,-1.0492,-1.0573,-1.0805,-1.1253,0.0,0.0,0.0,0.0,0.0,0.0,0.0,0.0,0.0,0.0,0.0,0.0,0.0,0.0,0.0,0.0,0.0,0.0,0.0,0.0,0.0,0.0,0.0,0.0,0.0,0.0,0.0,0.0,0.0,0.0,0.0,0.0,0.0,0.0,0.0,0.0,0.0,0.0,0.0,-0.4691,-0.4947,-0.4774,0.0,0.0,0.0,0.0,0.0,0.0,0.0,0.0,0.0,0.0,0.0,0.0,0.0,0.0,0.0,0.0,0.0,0.0,0.0,0.0,0.0,0.0,0.0,0.0,0.0,0.0,0.0,0.0,0.0,0.0,0.0,0.0,0.0,0.0,0.0,0.0,0.0,0.0,0.0,0.0,0.0,0.0,0.0,0.0,-0.4696,-0.5264,0.0,0.0,0.0,0.0,0.0,0.0,0.0,0.0,0.0,0.0,0.0,0.0,0.0,-0.5322,-0.5405,-0.5735,-0.5982,-0.5979,-0.8089,-0.9057,-0.9143,-1.0759,-1.1653,-1.1988,-1.2375,0.0,-1.145,-1.1911,0.0,0.0,0.0,0.0,0.0,0.0,0.0,0.0,0.0,0.0,0.0,0.0,0.0,0.0,0.0,0.0,0.0,0.0,0.0,0.0,0.0,0.0,0.0,0.0,0.0,0.0,0.0,0.0,0.0,0.0,0.0,0.0,0.0,0.0,0.0,0.0,0.0,0.0,0.0,0.0,0.0,-0.4795,-0.5223,-0.5595,-0.5983,-0.5902,0.0,0.0,0.0,0.0,0.0,0.0,0.0,0.0,0.0,0.0,0.0,0.0,0.0,0.0,0.0,0.0,0.0,0.0,0.0,0.0,0.0,0.0,0.0,0.0,0.0,0.0,0.0,0.0,0.0,0.0,0.0,0.0,0.0,0.0,0.0,0.0,0.0,0.0,0.0,-0.4825,-0.5217,-0.5472,-0.5412,-0.5349,0.0,0.0,0.0,0.0,0.0,0.0,0.0,0.0,0.0,-0.5368,-0.5368,-0.5455,-0.5541,-0.5705,-0.5954,-0.6204,-0.8164,-0.9222,-0.938,-1.11,-1.192,-1.2086,-1.237,-1.2188,-1.1665,-1.2843,-1.3115,-1.2875,0.0,0.0,0.0,0.0,-1.2565,-1.2624,0.0,0.0,0.0,0.0,0.0,0.0,0.0,0.0,0.0,0.0,0.0,0.0,0.0,0.0,0.0,0.0,0.0,0.0,0.0,0.0,0.0,0.0,0.0,0.0,0.0,0.0,0.0,0.0,0.0,0.0,0.0,0.0,0.0,0.0,0.0,-0.4735,-0.5205,-0.5343,-0.5377,0.0,0.0,0.0,0.0,0.0,0.0,0.0,0.0,0.0,0.0,0.0,0.0,0.0,0.0,0.0,0.0,0.0,0.0,0.0,0.0,0.0,0.0,0.0,0.0,0.0,0.0,0.0,0.0,0.0,0.0,0.0,0.0,0.0,0.0,0.0,0.0,0.0,0.0,-0.5388,-0.551,-0.551,-0.5518,-0.545,0.0,0.0,0.0,0.0,0.0,0.0,-0.5415,-0.5415,-0.5428,-0.5461,-0.5464,-0.5548,-0.5721,-0.5806,-0.5972,-0.6226,-0.7971,-0.8879,-0.9045,-1.0624,-1.1373,-1.1373,-1.1618,-1.1564,-1.1495,-1.289,-1.3503,-1.3392,-1.3392,-1.3568,-1.3717,-1.3496,-1.3507,-1.3714,0.0,0.0,0.0,0.0,0.0,0.0,0.0,0.0,0.0,0.0,0.0,0.0,0.0,0.0,0.0,0.0,0.0,0.0,0.0,0.0,0.0,0.0,0.0,0.0,0.0,0.0,0.0,0.0,0.0,0.0,0.0,0.0,0.0,0.0,0.0,0.0,0.0,-0.457,-0.4693,-0.458,0.0,0.0,0.0,0.0,0.0,0.0,0.0,0.0,0.0,0.0,0.0,0.0,0.0,0.0,0.0,0.0,0.0,0.0,0.0,0.0,0.0,0.0,0.0,0.0,0.0,0.0,0.0,0.0,0.0,0.0,0.0,0.0,0.0,0.0,0.0,0.0,0.0,0.0,0.0,-0.5725,-0.5719,0.0,0.0,0.0,0.0,-0.5377,-0.5368,-0.542,-0.5448,-0.5454,-0.5594,-0.5711,-0.5716,-0.5716,-0.5716,-0.5977,-0.6062,-0.6154,-0.7544,-0.8241,-0.8329,-0.9456,-0.9976,-0.9976,-1.0322,-1.0509,-1.0692,-1.1668,-1.1798,-1.1413,-1.1413,-1.2015,-1.279,-1.2772,-1.3288,-1.4021,0.0,0.0,0.0,0.0,0.0,0.0,0.0,0.0,0.0,0.0,0.0,0.0,0.0,0.0,0.0,0.0,0.0,0.0,0.0,0.0,0.0,0.0,0.0,0.0,0.0,0.0,0.0,0.0,0.0,0.0,0.0,0.0,0.0,0.0,0.0,0.0,0.0,0.0,0.0,-0.325,-0.3632,-0.4573,0.0,0.0,0.0,0.0,0.0,0.0,0.0,0.0,0.0,0.0,0.0,0.0,0.0,0.0,0.0,0.0,0.0,0.0,0.0,0.0,0.0,0.0,0.0,0.0,0.0,0.0,0.0,0.0,0.0,0.0,0.0,0.0,0.0,0.0,0.0,0.0,0.0,-0.5624,-0.5687,0.0,-0.5475,-0.5534,-0.5651,-0.5608,-0.5602,-0.5624,-0.5665,-0.5667,-0.5689,-0.5733,-0.5733,-0.5733,-0.5733,-0.5822,-0.5908,-0.6083,-0.7224,-0.7921,-0.8265,-0.9231,-0.9749,-0.9923,-1.0009,-0.984,-0.9579,-1.0019,-1.0641,-1.1327,-1.1327,-1.1494,-1.1821,-1.1584,-1.1775,-1.1992,0.0,0.0,0.0,0.0,0.0,0.0,0.0,0.0,0.0,0.0,0.0,0.0,0.0,0.0,0.0,0.0,0.0,0.0,0.0,0.0,0.0,0.0,0.0,0.0,0.0,0.0,0.0,0.0,0.0,0.0,0.0,0.0,0.0,0.0,0.0,0.0,0.0,0.0,0.0,0.0,-0.1779,-0.2479,-0.3833,0.0,0.0,0.0,0.0,0.0,0.0,0.0,0.0,0.0,0.0,0.0,0.0,0.0,0.0,0.0,0.0,0.0,0.0,0.0,0.0,0.0,0.0,0.0,0.0,0.0,0.0,0.0,0.0,0.0,0.0,0.0,0.0,0.0,0.0,-0.5697,-0.5657,-0.5616,-0.5648,-0.5657,-0.5529,-0.5687,-0.5733,-0.5733,-0.5733,-0.5733,-0.5733,-0.5733,-0.5733,-0.5733,-0.5733,-0.5733,-0.5733,-0.5733,-0.5822,-0.5997,-0.67,-0.7224,-0.7482,-0.8181,-0.8619,-0.8882,-0.8882,-0.8711,-0.846,-0.8632,-0.9327,-1.0284,-1.0376,-1.0549,-1.0788,-1.0645,-1.0757,-1.0974,0.0,0.0,0.0,0.0,0.0,0.0,0.0,0.0,0.0,0.0,0.0,0.0,0.0,0.0,0.0,0.0,0.0,0.0,0.0,0.0,0.0,0.0,0.0,0.0,0.0,0.0,0.0,0.0,0.0,0.0,0.0,0.0,0.0,0.0,0.0,0.0,0.0,0.0,0.0,0.0,0.0,-0.0,-0.0163,0.0,0.0,0.0,0.0,0.0,0.0,0.0,0.0,0.0,0.0,0.0,0.0,0.0,0.0,0.0,0.0,0.0,0.0,0.0,0.0,0.0,0.0,0.0,0.0,0.0,0.0,0.0,0.0,0.0,0.0,0.0,0.0,0.0,-0.5547,-0.5537,-0.5505,-0.562,-0.5534,-0.551,-0.5716,-0.573,-0.5733,-0.5733,-0.5733,-0.5733,-0.5733,-0.5733,-0.5733,-0.5733,-0.5733,-0.5733,-0.5733,-0.5733,-0.5733,-0.5733,-0.5997,-0.6083,-0.6083,-0.6343,-0.6523,-0.6795,-0.6795,-0.7061,-0.7503,-0.7768,-0.8028,-0.8201,-0.8476,-0.9087,-0.9859,-0.9859,-1.0463,-1.1203,0.0,0.0,0.0,0.0,0.0,0.0,0.0,0.0,0.0,0.0,0.0,0.0,0.0,0.0,0.0,0.0,0.0,0.0,0.0,0.0,0.0,0.0,0.0,0.0,0.0,0.0,0.0,0.0,0.0,0.0,0.0,0.0,0.0,0.0,0.0,0.0,0.0,0.0,0.0,0.0,0.0,0.0721,0.0407,0.0,0.0,0.0,0.0,0.0,0.0,0.0,0.0,0.0,0.0,0.0,0.0,0.0,0.0,0.0,0.0,0.0,0.0,0.0,0.0,0.0,0.0,0.0,0.0,0.0,0.0,0.0,0.0,0.0,0.0,0.0,-0.3539,-0.394,-0.455,-0.5135,-0.5357,-0.5052,-0.5261,-0.5478,-0.551,-0.5681,-0.5733,-0.5733,-0.5733,-0.5733,-0.5733,-0.5733,-0.5733,-0.5733,-0.5733,-0.5733,-0.5733,-0.5733,-0.5733,-0.5733,-0.5733,-0.5908,-0.6083,-0.6171,-0.6438,-0.6795,-0.6795,-0.6969,-0.7231,-0.7676,-0.794,-0.8028,-0.8476,-0.874,-0.8999,-0.8999,-0.9087,-0.9423,0.0,0.0,0.0,0.0,0.0,0.0,0.0,0.0,0.0,0.0,0.0,0.0,0.0,0.0,0.0,0.0,0.0,0.0,0.0,0.0,0.0,0.0,0.0,0.0,0.0,0.0,0.0,0.0,0.0,0.0,0.0,0.0,0.0,0.0,0.0,0.0,0.0,0.0,0.0,0.0,0.0,0.0,0.0883,0.0892,0.1076,0.1357,0.1642,0.1841,0.1951,0.1967,0.0,0.0,0.0,0.0,0.0,0.0,0.0,0.0,0.0,0.0,0.0,0.0,0.0,0.0,0.0,0.0,0.0,0.0,0.0,0.0,0.0,0.0,0.0,0.0,-0.3152,-0.3364,-0.3472,-0.4305,-0.4737,-0.4509,-0.4867,-0.517,-0.5264,-0.5513,-0.5733,-0.5733,-0.5552,-0.5371,-0.5371,-0.5196,-0.5104,-0.5104,-0.5104,-0.5104,-0.5104,-0.5104,-0.5193,-0.5371,-0.5371,-0.5549,-0.5908,-0.5908,-0.6174,-0.6526,-0.6612,-0.6789,-0.7054,-0.7676,-0.7944,-0.7944,0.0,0.0,0.0,0.0,-0.8568,-0.8656,0.0,0.0,0.0,0.0,0.0,0.0,0.0,0.0,0.0,0.0,0.0,0.0,0.0,0.0,0.0,0.0,0.0,0.0,0.0,0.0,0.0,0.0,0.0,0.0,0.0,0.0,0.0,0.0,0.0,0.0,0.0,0.0,0.0,0.0,0.0,0.0,0.0,0.0,0.0,0.0,0.0,0.0,0.1417,0.1448,0.1785,0.2287,0.2388,0.2515,0.279,0.2849,0.0,0.0,0.0,0.0,0.0,0.0,0.0,0.0,0.0,0.0,0.0,0.0,0.0,0.0,0.0,0.0,0.0,0.0,0.0,0.0,0.0,0.0,0.0,0.0,-0.2677,-0.2891,-0.2534,-0.3243,-0.3784,-0.404,-0.4418,-0.4697,-0.49,-0.5282,-0.5555,-0.5555,-0.5191,-0.4921,-0.4921,-0.4565,0.0,0.0,0.0,-0.43,-0.43,-0.43,-0.4476,-0.4921,-0.5008,-0.5191,-0.5644,-0.5644,-0.5819,-0.6083,-0.6257,-0.6523,-0.6884,-0.7499,-0.7852,-0.794,-0.8388,-0.8568,-0.8568,-0.8568,-0.8568,-0.8568,0.0,0.0,0.0,0.0,0.0,0.0,0.0,0.0,0.0,0.0,0.0,0.0,0.0,0.0,0.0,0.0,0.0,0.0,0.0,0.0,0.0,0.0,0.0,0.0,0.0,0.0,0.0,0.0,0.0,0.0,0.0,0.0,0.0,0.0,0.0,0.0,0.0,0.0,0.0,0.0,0.0,0.0,0.2277,0.2287,0.2477,0.2769,0.2846,0.2906,0.2961,0.3114,0.3047,0.2867,0.2867,0.0,0.0,0.0,0.0,0.0,0.0,0.0,0.0,0.0,0.0,0.0,0.0,0.0,0.0,0.0,0.0,0.0,0.0,0.0,0.0,-0.1868,-0.2083,-0.2216,-0.2115,-0.2318,-0.2811,-0.3448,-0.3871,-0.4182,-0.4459,-0.4478,-0.4567,-0.4567,-0.4478,-0.4476,-0.4476,-0.4387,-0.43,-0.43,-0.43,-0.43,-0.43,-0.43,-0.4387,-0.4476,-0.4832,0.0,-0.5191,-0.5552,-0.5819,-0.6083,-0.6171,-0.6438,-0.6792,-0.7143,-0.7584,-0.8201,-0.8476,-0.8568,-0.8568,-0.8568,-0.8568,-0.8568,0.0,0.0,0.0,0.0,0.0,0.0,0.0,0.0,0.0,0.0,0.0,0.0,0.0,0.0,0.0,0.0,0.0,0.0,0.0,0.0,0.0,0.0,0.0,0.0,0.0,0.0,0.0,0.0,0.0,0.0,0.0,0.0,0.0,0.0,0.0,0.0,0.0,0.0,0.0,0.0,0.0,0.0,0.368,0.3056,0.3,0.336,0.344,0.3602,0.3854,0.3942,0.3969,0.3886,0.3926,0.3733,0.3446,0.0,0.0,0.0,0.0,0.0,0.0,0.0,0.0,0.0,0.0,0.0,0.0,0.0,0.0,-0.0703,-0.1204,0.0,-0.1614,-0.166,-0.1721,-0.1863,-0.1922,-0.1977,-0.2237,-0.2843,-0.3359,-0.3759,-0.3927,-0.4121,-0.43,-0.43,-0.4121,-0.3942,-0.3942,-0.3765,-0.3587,-0.3587,-0.3587,-0.3587,-0.3587,-0.3587,-0.3676,-0.3942,-0.421,-0.4565,-0.501,-0.528,-0.5549,-0.5908,-0.6083,-0.626,-0.6612,-0.7231,-0.776,-0.8201,-0.8476,-0.8568,-0.8568,-0.8568,-0.8568,-0.8568,0.0,0.0,0.0,0.0,0.0,0.0,0.0,0.0,0.0,0.0,0.0,0.0,0.0,0.0,0.0,0.0,0.0,0.0,0.0,0.0,0.0,0.0,0.0,0.0,0.0,0.0,0.0,0.0,0.0,0.0,0.0,0.0,0.0,0.0,0.0,0.0,0.0,0.0,0.0,0.0,0.0,0.0,0.5386,0.4297,0.399,0.4088,0.4188,0.4519,0.4858,0.4903,0.486,0.4877,0.4977,0.4687,0.4289,0.4184,0.3851,0.0,0.0,0.0,0.0,0.0,0.0,0.0,0.0,0.0089,-0.0,-0.0,-0.0,-0.0172,-0.0924,-0.1171,-0.1329,-0.1543,-0.1537,-0.1607,-0.1735,-0.1808,-0.1917,-0.2247,-0.2766,-0.3158,-0.3285,-0.3666,-0.3853,-0.3853,-0.3587,-0.3318,-0.3318,-0.2962,-0.2784,-0.2784,-0.2784,-0.2784,-0.2784,-0.2784,-0.2962,-0.3408,-0.3497,-0.3942,-0.4743,-0.4832,-0.5102,-0.5463,-0.5816,-0.6169,-0.6428,-0.7411,-0.794,-0.8201,-0.8384,-0.8564,-0.8568,-0.8568,-0.8568,-0.8568,0.0,0.0,0.0,0.0,0.0,0.0,0.0,0.0,0.0,0.0,0.0,0.0,0.0,0.0,0.0,0.0,0.0,0.0,0.0,0.0,0.0,0.0,0.0,0.0,0.0,0.0,0.0,0.0,0.0,0.0,0.0,0.0,0.0,0.0,0.0,0.0,0.0,0.0,0.0,0.0,0.0,0.0,0.7153,0.6773,0.6005,0.5182,0.5308,0.5361,0.5409,0.5389,0.5289,0.5045,0.4977,0.4912,0.4905,0.4917,0.4746,0.4391,0.3939,0.3047,0.2154,0.2154,0.1794,0.1339,0.0,0.0611,-0.0,-0.0,-0.0,-0.0,-0.0164,-0.0817,-0.1298,-0.1346,-0.1341,-0.134,-0.1336,-0.1493,-0.1667,-0.1793,-0.1994,-0.2207,-0.2262,-0.2396,-0.2423,-0.2423,-0.2423,-0.2333,-0.2333,-0.2334,-0.2244,-0.2244,-0.2244,-0.2244,-0.2244,-0.2244,-0.2424,-0.2603,-0.305,-0.3406,-0.3765,-0.421,-0.4389,-0.4478,-0.5364,-0.5985,-0.6428,-0.7234,-0.768,-0.794,-0.8201,-0.8384,-0.8568,-0.8568,-0.8568,-0.8568,0.0,0.0,0.0,0.0,0.0,0.0,0.0,0.0,0.0,0.0,0.0,0.0,0.0,0.0,0.0,0.0,0.0,0.0,0.0,0.0,0.0,0.0,0.0,0.0,0.0,0.0,0.0,0.0,0.0,0.0,0.0,0.0,0.0,0.0,0.0,0.0,0.0,0.0,0.0,0.0,0.0,0.0,0.8666,0.8371,0.7689,0.6788,0.5852,0.561,0.0,0.0,0.5695,0.5644,0.5747,0.5673,0.5542,0.5435,0.528,0.5015,0.4652,0.4206,0.3749,0.3263,0.2813,0.2273,0.1543,0.1025,0.0679,0.0415,0.0165,-0.0,-0.0,-0.0319,-0.0715,-0.118,-0.1335,-0.1335,-0.1335,-0.1336,-0.1427,-0.1462,-0.1577,-0.1698,-0.2081,-0.2127,-0.2243,-0.2243,-0.2243,-0.2243,-0.2243,-0.2243,-0.2243,-0.2243,-0.2243,-0.2243,-0.2243,-0.2243,-0.2243,-0.2334,-0.2512,-0.2869,-0.3406,-0.3585,-0.403,-0.4746,-0.5343,-0.6006,-0.6647,-0.737,-0.7865,-0.8128,-0.8477,-0.8621,-0.8702,-0.8605,-0.8568,-0.8568,0.0,0.0,0.0,0.0,0.0,0.0,0.0,0.0,0.0,0.0,0.0,0.0,0.0,0.0,0.0,0.0,0.0,0.0,0.0,0.0,0.0,0.0,0.0,0.0,0.0,0.0,0.0,0.0,0.0,0.0,0.0,0.0,0.0,0.0,0.0,0.0,0.0,0.0,0.0,0.0,0.0,0.0,1.0104,0.9804,0.9357,0.8756,0.6934,0.6237,0.0,0.0,0.6466,0.6516,0.6973,0.6903,0.6678,0.6643,0.6511,0.6154,0.5849,0.5662,0.5285,0.4572,0.403,0.341,0.2256,0.1666,0.1242,0.0891,0.0564,0.0321,0.0079,-0.0,-0.0236,-0.0864,-0.1021,-0.11,-0.11,-0.1257,-0.1269,-0.1299,-0.1329,-0.1444,-0.1909,-0.195,-0.1974,-0.1974,-0.1974,-0.1974,-0.1974,-0.1974,-0.1974,-0.1974,-0.1974,-0.1974,-0.1974,-0.1974,-0.1974,-0.2064,-0.2064,-0.2422,-0.2959,-0.2959,-0.3685,-0.4788,-0.5129,-0.5826,-0.6793,-0.7453,-0.7966,-0.8326,-0.8574,-0.871,-0.8877,-0.8702,-0.8609,-0.8568,0.0,0.0,0.0,0.0,0.0,0.0,0.0,0.0,0.0,0.0,0.0,0.0,0.0,0.0,0.0,0.0,0.0,0.0,0.0,0.0,0.0,0.0,0.0,0.0,0.0,0.0,0.0,0.0,0.0,0.0,0.0,0.0,0.0,0.0,0.0,0.0,0.0,0.0,0.0,0.0,0.0,0.0,1.1626,1.1385,1.1304,1.1007,0.8832,0.0,0.0,0.0,0.7736,0.7721,0.873,0.8843,0.0,0.8983,0.8782,0.8309,0.7878,0.7236,0.661,0.5886,0.5349,0.4734,0.3664,0.235,0.129,0.1264,0.1258,0.1022,0.0157,-0.0,-0.0,-0.0,-0.0393,-0.0628,-0.0628,-0.1021,-0.1269,-0.1299,-0.1329,-0.136,-0.1391,-0.1419,-0.1436,-0.1436,-0.1436,-0.1436,-0.1436,-0.1436,-0.1436,-0.1436,-0.1436,-0.1436,-0.1436,-0.1436,-0.1525,-0.1794,-0.1794,-0.1974,-0.2243,-0.2424,-0.3083,-0.4152,-0.4612,-0.5596,-0.6835,-0.7117,-0.7681,-0.8337,-0.8333,-0.8613,-0.9068,-0.8881,-0.871,-0.8568,0.0,0.0,0.0,0.0,0.0,0.0,0.0,0.0,0.0,0.0,0.0,0.0,0.0,0.0,0.0,0.0,0.0,0.0,0.0,0.0,0.0,0.0,0.0,0.0,0.0,0.0,0.0,0.0,0.0,0.0,0.0,0.0,0.0,0.0,0.0,0.0,0.0,0.0,0.0,0.0,0.0,0.0,1.339,1.3237,1.2712,1.1896,0.0,0.0,0.0,0.0,0.0,0.0,0.939,0.9488,0.9466,0.9497,0.9207,0.8926,0.895,0.851,0.804,0.7531,0.6599,0.5597,0.4528,0.3245,0.2296,0.2121,0.1987,0.1767,0.0964,0.0642,0.0321,0.008,-0.0079,-0.0236,-0.0236,-0.0314,-0.0558,-0.0829,-0.0839,-0.0854,-0.0885,-0.1251,-0.1436,-0.1436,-0.1436,-0.1436,-0.1436,-0.1436,-0.1436,-0.1436,-0.1436,-0.1436,-0.1436,-0.1436,-0.1436,-0.1525,-0.1705,-0.1884,-0.1974,-0.2334,-0.2903,-0.3607,-0.4404,-0.5426,-0.6492,-0.7158,-0.7784,-0.8362,-0.8641,-0.8886,-0.906,-0.8975,-0.898,-0.8987,0.0,0.0,0.0,0.0,0.0,0.0,0.0,0.0,0.0,0.0,0.0,0.0,0.0,0.0,0.0,0.0,0.0,0.0,0.0,0.0,0.0,0.0,0.0,0.0,0.0,0.0,0.0,0.0,0.0,0.0,0.0,0.0,0.0,0.0,0.0,0.0,0.0,0.0,0.0,0.0,0.0,0.0,1.4482,1.4346,1.3825,0.0,0.0,0.0,0.0,0.0,0.0,1.0236,1.0706,1.093,1.105,1.0953,1.0642,1.0408,1.0259,0.9958,0.9557,0.9018,0.8099,0.7047,0.5786,0.4686,0.3688,0.3011,0.2733,0.2442,0.2053,0.1398,0.082,0.0488,0.0321,0.0238,0.0236,0.0079,-0.008,-0.0335,-0.0505,-0.06,-0.0714,-0.1166,-0.1436,-0.1436,-0.1436,-0.1436,-0.1436,-0.1256,-0.1166,-0.1166,-0.1166,-0.1166,-0.1166,-0.1166,-0.1256,-0.1436,-0.1615,-0.1615,-0.1705,-0.2064,-0.2643,-0.3273,-0.4169,-0.5216,-0.623,-0.7099,-0.7733,-0.8326,-0.8713,-0.8964,-0.9046,-0.9159,-0.9169,-0.9076,0.0,0.0,0.0,0.0,0.0,0.0,0.0,0.0,0.0,0.0,0.0,0.0,0.0,0.0,0.0,0.0,0.0,0.0,0.0,0.0,0.0,0.0,0.0,0.0,0.0,0.0,0.0,0.0,0.0,0.0,0.0,0.0,0.0,0.0,0.0,0.0,0.0,0.0,0.0,0.0,0.0,0.0,1.4903,1.4776,0.0,0.0,0.0,0.0,0.0,0.0,1.1632,1.1683,1.2721,1.3133,1.3274,1.3287,1.2946,1.2406,1.1745,1.1367,1.0987,1.0203,0.9771,0.9155,0.7302,0.6465,0.5584,0.4036,0.3413,0.3197,0.3275,0.2356,0.1502,0.1388,0.0975,0.0645,0.0631,0.0314,0.008,-0.0,-0.0337,-0.06,-0.0625,-0.1076,-0.1345,-0.1256,-0.1345,-0.1345,-0.1436,-0.0987,-0.0718,-0.0628,-0.0628,-0.0628,-0.0628,-0.0628,-0.0897,-0.1345,-0.1345,-0.1346,-0.1436,-0.1705,-0.2202,-0.3049,-0.3905,-0.4865,-0.6042,-0.6839,-0.7437,-0.8038,-0.8627,-0.8928,-0.9213,-0.9336,-0.9259,-0.9084,0.0,0.0,0.0,0.0,0.0,0.0,0.0,0.0,0.0,0.0,0.0,0.0,0.0,0.0,0.0,0.0,0.0,0.0,0.0,0.0,0.0,0.0,0.0,0.0,0.0,0.0,0.0,0.0,0.0,0.0,0.0,0.0,0.0,0.0,0.0,0.0,0.0,0.0,0.0,0.0,0.0,0.0,1.5771,0.0,0.0,0.0,0.0,0.0,0.0,1.3339,1.2826,1.258,1.3099,1.3153,1.3091,1.3174,1.2916,1.2473,1.2029,1.1682,1.1277,1.0905,1.0207,0.9372,0.8599,0.7863,0.6957,0.5731,0.5485,0.5117,0.3873,0.3399,0.2935,0.2086,0.1862,0.158,0.1179,0.1036,0.0896,0.0587,0.0427,0.0349,0.0358,-0.009,-0.0179,0.0179,-0.0448,-0.0987,-0.1346,-0.1256,-0.0897,-0.018,-0.018,-0.018,-0.018,-0.0179,-0.0448,-0.0897,-0.0897,-0.1076,-0.1436,-0.1436,-0.1743,-0.2289,-0.3241,-0.4283,-0.5135,-0.6237,-0.7039,-0.7743,-0.8531,-0.8825,-0.892,-0.9379,-0.9538,-0.9543,0.0,0.0,0.0,0.0,0.0,0.0,0.0,0.0,0.0,0.0,0.0,0.0,0.0,0.0,0.0,0.0,0.0,0.0,0.0,0.0,0.0,0.0,0.0,0.0,0.0,0.0,0.0,0.0,0.0,0.0,0.0,0.0,0.0,0.0,0.0,0.0,0.0,0.0,0.0,0.0,0.0,0.0,0.0,0.0,0.0,0.0,0.0,0.0,0.0,1.4209,1.3848,1.3682,1.3775,1.3658,1.3542,1.3424,1.3117,1.2636,1.229,1.1909,1.1632,1.1409,1.0807,1.0154,0.9713,0.9058,0.84,0.7434,0.6867,0.6239,0.5254,0.4577,0.3906,0.303,0.3014,0.2773,0.1729,0.144,0.1228,0.1008,0.1031,0.0965,0.0985,0.0807,0.0628,0.0718,0.0359,-0.009,-0.0718,-0.0807,-0.0538,-0.0,-0.0,-0.0,-0.0,-0.0,-0.009,-0.0359,-0.0359,-0.0538,-0.0807,-0.1256,-0.1461,-0.1695,-0.2849,-0.3779,-0.4682,-0.5917,-0.6839,-0.754,-0.8428,-0.8825,-0.8825,-0.9426,-0.9559,-0.9415,0.0,0.0,0.0,0.0,0.0,0.0,0.0,0.0,0.0,0.0,0.0,0.0,0.0,0.0,0.0,0.0,0.0,0.0,0.0,0.0,0.0,0.0,0.0,0.0,0.0,0.0,0.0,0.0,0.0,0.0,0.0,0.0,0.0,0.0,0.0,0.0,0.0,0.0,0.0,0.0,0.0,0.0,0.0,0.0,0.0,0.0,0.0,0.0,0.0,0.0,1.4713,1.4552,1.4467,1.4351,1.4059,1.3758,1.3299,1.2928,1.252,1.2224,1.2003,1.1855,1.1509,1.1145,1.0589,1.0299,0.9817,0.9108,0.8098,0.7221,0.6916,0.5785,0.473,0.413,0.4278,0.4014,0.2515,0.2001,0.1804,0.1846,0.1807,0.1847,0.179,0.1703,0.1434,0.0986,0.1435,0.1256,0.0269,0.009,0.009,0.009,0.009,0.009,0.009,-0.0,-0.0,-0.0,-0.0,-0.0,-0.0,-0.0807,-0.127,-0.1483,-0.2457,-0.3468,-0.4418,-0.5792,-0.6637,-0.7338,-0.8428,-0.8825,-0.8821,-0.9399,-0.9397,-0.9218,0.0,0.0,0.0,0.0,0.0,0.0,0.0,0.0,0.0,0.0,0.0,0.0,0.0,0.0,0.0,0.0,0.0,0.0,0.0,0.0,0.0,0.0,0.0,0.0,0.0,0.0,0.0,0.0,0.0,0.0,0.0,0.0,0.0,0.0,0.0,0.0,0.0,0.0,0.0,0.0,0.0,0.0,0.0,0.0,0.0,0.0,0.0,0.0,0.0,0.0,1.5346,1.4577,1.4271,1.3996,1.3777,1.3418,1.3124,1.2889,1.284,1.2673,1.2452,1.2231,1.226,1.2145,1.1664,1.1694,1.1529,1.0517,1.0013,0.9196,0.7379,0.6653,0.6008,0.5134,0.5017,0.4901,0.455,0.4539,0.4499,0.4187,0.4082,0.4009,0.4022,0.3395,0.286,0.2509,0.2778,0.242,0.1256,0.0807,0.0538,0.0538,0.0538,0.0538,0.0538,0.0179,-0.0,-0.0,-0.0,-0.0,-0.0,-0.0179,-0.0635,-0.139,-0.1986,-0.2891,-0.4123,-0.5293,-0.6337,-0.7338,-0.8428,-0.8825,-0.8806,-0.9259,-0.9456,-0.9548,0.0,0.0,0.0,0.0,0.0,0.0,0.0,0.0,0.0,0.0,0.0,0.0,0.0,0.0,0.0,0.0,0.0,0.0,0.0,0.0,0.0,0.0,0.0,0.0,0.0,0.0,1.8114,1.8375,0.0,0.0,0.0,1.9177,1.8911,1.8056,0.0,0.0,0.0,0.0,0.0,0.0,0.0,0.0,0.0,0.0,0.0,0.0,0.0,0.0,0.0,0.0,1.6053,1.5417,1.5054,1.484,1.4633,1.4194,1.376,1.3404,1.3404,1.3039,1.2753,1.2673,1.2675,1.2792,1.2564,1.2686,1.2686,1.2056,1.1321,1.0269,0.8515,0.7692,0.68,0.5466,0.6019,0.6205,0.4949,0.5566,0.5761,0.4851,0.4651,0.4676,0.4816,0.4463,0.4088,0.3871,0.3911,0.3492,0.242,0.1523,0.1075,0.1076,0.1076,0.1076,0.1076,0.0807,0.0628,0.0359,0.0359,0.0269,-0.0,-0.0,-0.0361,-0.1095,-0.1694,-0.2778,-0.4062,-0.5174,-0.6334,-0.7534,-0.8425,-0.8871,-0.9077,-0.9481,-0.9613,-0.9612,0.0,0.0,0.0,0.0,0.0,0.0,0.0,0.0,0.0,0.0,0.0,0.0,0.0,0.0,0.0,0.0,0.0,0.0,0.0,0.0,0.0,0.0,0.0,0.0,0.0,0.0,0.0,1.791,1.7901,0.0,0.0,0.0,0.0,0.0,1.8124,1.8182,1.7852,0.0,0.0,0.0,0.0,1.7529,0.0,0.0,0.0,0.0,0.0,0.0,0.0,0.0,1.6682,1.6482,1.6184,1.5842,1.5497,1.5054,1.4545,1.4042,1.4042,1.3542,1.3112,1.3112,1.3124,1.3119,1.3138,1.318,1.3205,1.2918,1.2097,1.0995,0.9747,0.8867,0.7843,0.6309,0.7315,0.7577,0.5678,0.6525,0.6874,0.5596,0.5474,0.5513,0.5697,0.5596,0.5367,0.5016,0.4899,0.4515,0.3582,0.2684,0.2147,0.215,0.2151,0.2061,0.2061,0.1881,0.1613,0.1254,0.1433,0.1254,0.0717,0.0269,-0.009,-0.0359,-0.1586,-0.2753,-0.4007,-0.513,-0.6297,-0.7588,-0.8379,-0.8964,-0.9192,-0.9535,-0.9621,-0.9547,0.0,0.0,0.0,0.0,0.0,0.0,0.0,0.0,0.0,0.0,0.0,0.0,0.0,0.0,0.0,0.0,0.0,0.0,0.0,0.0,0.0,0.0,0.0,0.0,0.0,0.0,0.0,1.7047,1.7285,0.0,0.0,0.0,0.0,0.0,0.0,1.7491,1.8202,1.7491,0.0,0.0,0.0,0.0,0.0,0.0,0.0,0.0,0.0,1.7314,1.7166,1.7323,1.7254,1.7097,1.7097,1.6464,1.5692,1.5267,1.4982,1.4832,1.4832,1.4258,1.3688,1.3688,1.3489,1.321,1.2799,1.2961,1.3015,1.2394,1.2073,1.1566,1.0611,1.0045,0.9536,0.9034,0.8941,0.8721,0.8196,0.853,0.8531,0.7777,0.7796,0.7914,0.7929,0.7534,0.7011,0.6138,0.5864,0.5395,0.455,0.4643,0.4641,0.4643,0.4467,0.4291,0.4291,0.3482,0.3124,0.3034,0.3662,0.3755,0.322,0.0984,0.0268,0.0717,-0.1286,-0.2812,-0.4003,-0.5057,-0.6079,-0.7161,-0.8225,-0.8699,-0.8808,-0.9109,-0.9483,-0.98,0.0,0.0,0.0,0.0,0.0,0.0,0.0,0.0,0.0,0.0,0.0,0.0,0.0,0.0,0.0,0.0,0.0,0.0,0.0,0.0,0.0,0.0,0.0,0.0,0.0,0.0,1.6053,1.6263,1.6254,0.0,0.0,0.0,0.0,0.0,0.0,1.6446,1.6228,1.6289,0.0,0.0,0.0,0.0,0.0,0.0,0.0,0.0,0.0,0.0,1.7038,1.7392,1.7392,1.7235,1.7442,1.7166,1.6691,1.6184,1.5824,1.5542,1.5471,1.4974,1.4474,1.4474,1.4228,1.3953,1.3672,1.3607,1.3437,1.2883,1.2644,1.2111,1.0806,1.0413,0.9965,0.9008,0.9199,0.9401,0.8835,0.9368,0.9527,0.8686,0.8641,0.8603,0.846,0.8221,0.7731,0.7122,0.7051,0.6894,0.6515,0.5999,0.5428,0.4814,0.4877,0.4734,0.4559,0.4287,0.4018,0.3929,0.4198,0.438,0.4563,0.322,0.2504,0.2238,-0.0,-0.1669,-0.3084,-0.467,-0.6146,-0.7488,-0.8343,-0.8897,-0.9196,-0.9483,-0.9915,-1.0236,0.0,0.0,0.0,0.0,0.0,0.0,0.0,0.0,0.0,0.0,0.0,0.0,0.0,0.0,0.0,0.0,0.0,0.0,0.0,0.0,0.0,0.0,0.0,0.0,0.0,0.0,1.5338,1.5338,1.5204,1.4919,0.0,0.0,1.4974,1.4633,0.0,0.0,0.0,0.0,0.0,0.0,0.0,0.0,0.0,0.0,0.0,0.0,0.0,0.0,0.0,0.0,0.0,1.7314,1.7638,0.0,0.0,1.7038,1.6612,1.6263,1.6123,1.5692,1.5188,1.5188,1.4872,1.4548,1.4275,1.3928,1.3551,1.3017,1.2706,1.2173,1.105,1.0828,1.0439,0.0,0.0,1.0129,0.955,0.9981,1.0065,0.9301,0.9048,0.893,0.8731,0.8357,0.7974,0.7631,0.7668,0.7652,0.7612,0.7112,0.6454,0.5724,0.5765,0.5747,0.5574,0.5609,0.5536,0.5356,0.5356,0.5536,0.5722,0.528,0.4563,0.3489,0.1634,-0.0183,-0.2029,-0.402,-0.5735,-0.7053,-0.8077,-0.844,-0.8653,-0.9459,-0.9981,-1.0284,0.0,0.0,0.0,0.0,0.0,0.0,0.0,0.0,0.0,0.0,0.0,0.0,0.0,0.0,0.0,0.0,0.0,0.0,0.0,0.0,0.0,0.0,0.0,0.0,0.0,0.0,0.0,0.0,0.0,1.4129,1.4129,1.4274,1.4402,1.4601,0.0,0.0,0.0,0.0,0.0,0.0,0.0,0.0,0.0,0.0,0.0,0.0,0.0,0.0,0.0,0.0,0.0,0.0,0.0,0.0,0.0,0.0,1.7194,1.6908,1.6908,1.6333,1.5762,1.5762,1.5338,1.4768,1.4201,1.3783,1.328,1.2459,1.2009,1.1727,1.1787,1.1456,1.1394,1.1899,1.1566,1.1149,1.0737,1.0485,1.0149,0.9738,0.9217,0.8954,0.8963,0.8298,0.7687,0.75,0.7488,0.7488,0.7488,0.8047,0.8235,0.8008,0.7862,0.787,0.787,0.7861,0.7852,0.7852,0.7852,0.7588,0.7054,0.7064,0.608,0.42,0.3307,0.1536,-0.0921,-0.2941,-0.4512,-0.5634,-0.7093,-0.7182,-0.6694,-0.8536,-0.941,-0.9753,0.0,0.0,0.0,0.0,0.0,0.0,0.0,0.0,0.0,0.0,0.0,0.0,0.0,0.0,0.0,0.0,0.0,0.0,0.0,0.0,0.0,0.0,0.0,0.0,0.0,0.0,0.0,0.0,0.0,0.0,0.0,1.3112,1.3251,1.3397,1.3258,1.3251,0.0,0.0,0.0,0.0,0.0,0.0,1.495,0.0,0.0,0.0,0.0,0.0,0.0,0.0,0.0,0.0,0.0,0.0,0.0,0.0,0.0,1.7373,1.7176,1.683,1.6542,1.6394,1.5833,1.5284,1.507,1.4346,1.3622,1.3193,1.2673,1.2257,1.1977,1.1696,1.1572,1.1635,1.133,1.102,1.0939,1.0683,1.0254,0.9509,0.8761,0.8296,0.8179,0.7986,0.7683,0.7496,0.7484,0.7484,0.7484,0.7691,0.7807,0.7833,0.8176,0.8188,0.7772,0.7743,0.7685,0.7521,0.7521,0.7348,0.7007,0.6949,0.6387,0.5339,0.3993,0.2329,0.0541,-0.1532,-0.3697,-0.5697,-0.649,-0.6815,-0.7041,-0.8277,-0.9157,-0.9685,0.0,0.0,0.0,0.0,0.0,0.0,0.0,0.0,0.0,0.0,0.0,0.0,0.0,0.0,0.0,0.0,0.0,0.0,0.0,0.0,0.0,0.0,0.0,0.0,0.0,0.0,0.0,0.0,0.0,0.0,0.0,0.0,0.0,1.2231,1.2305,1.2231,0.0,0.0,0.0,0.0,0.0,0.0,1.365,0.0,0.0,0.0,0.0,0.0,0.0,0.0,0.0,0.0,0.0,0.0,0.0,0.0,1.793,1.7716,1.7442,1.7245,1.7116,1.689,1.6403,1.5991,1.578,1.4911,1.4042,1.3775,1.3119,1.2526,1.2305,1.1929,1.174,1.183,1.1385,1.1032,1.1261,1.0865,1.0272,0.9536,0.8963,0.8515,0.8246,0.8168,0.8074,0.7949,0.794,0.794,0.794,0.8093,0.8154,0.8121,0.8386,0.832,0.7996,0.7983,0.7855,0.7525,0.7525,0.7443,0.7278,0.7133,0.6701,0.6064,0.4826,0.3726,0.0,-0.0268,-0.2768,-0.5015,-0.5891,-0.6331,-0.6599,-0.8017,-0.8811,-0.9248,0.0,0.0,0.0,0.0,0.0,0.0,0.0,0.0,0.0,0.0,0.0,0.0,0.0,0.0,0.0,0.0,0.0,0.0,0.0,0.0,0.0,0.0,0.0,0.0,0.0,0.0,0.0,0.0,0.9658,1.004,1.0115,0.0,0.0,0.0,0.0,0.0,0.0,0.0,0.0,0.0,0.0,0.0,0.0,0.0,0.0,0.0,0.0,0.0,0.0,0.0,0.0,0.0,0.0,0.0,0.0,0.0,0.0,0.0,0.0,1.7588,1.747,1.7235,1.7038,1.676,1.6272,1.5401,0.0,1.4194,1.3324,1.2673,1.2599,1.215,1.1897,1.239,1.1804,1.1312,1.1586,1.0991,1.0258,0.9645,0.9625,0.9468,0.908,0.8817,0.8703,0.8703,0.8703,0.8703,0.8703,0.9089,0.9089,0.878,0.8581,0.844,0.8361,0.846,0.8307,0.7975,0.7975,0.7897,0.7655,0.7506,0.7094,0.6462,0.5798,0.5359,0.475,0.098,-0.1786,-0.3765,-0.5361,-0.5808,-0.5725,-0.7665,-0.8456,-0.8632,0.0,0.0,0.0,0.0,0.0,0.0,0.0,0.0,0.0,0.0,0.0,0.0,0.0,0.0,0.0,0.0,0.0,0.0,0.0,0.0,0.0,0.0,0.0,0.0,0.0,0.0,0.0,0.7842,0.8071,0.8452,0.9054,0.921,0.0,0.0,0.0,0.0,0.0,0.0,0.0,0.0,0.0,0.0,0.0,0.0,0.0,0.0,1.1421,1.2225,0.0,0.0,0.0,0.0,0.0,0.0,0.0,0.0,1.7226,1.7432,1.7988,0.0,1.747,1.7235,1.6959,1.6612,0.0,1.5833,1.5133,1.4609,1.397,1.3324,1.2746,1.2452,1.2267,1.1988,1.188,1.1615,1.0983,1.0121,0.9612,0.9632,0.9239,0.8928,0.9005,0.8808,0.8703,0.8703,0.8703,0.8703,0.8703,0.878,0.8937,0.9165,0.9143,0.8784,0.8168,0.7901,0.7684,0.7606,0.7606,0.7532,0.7305,0.7361,0.6957,0.6185,0.589,0.5483,0.4741,0.1866,-0.1252,-0.4216,-0.4741,-0.5359,-0.6071,-0.7319,-0.7937,-0.8372,0.0,0.0,0.0,0.0,0.0,0.0,0.0,0.0,0.0,0.0,0.0,0.0,0.0,0.0,0.0,0.0,0.0,0.0,0.0,0.0,0.0,0.0,0.0,0.0,0.0,0.0,0.0,0.0,0.0,0.6685,0.0,0.0,0.0,0.0,0.0,0.0,0.0,0.0,0.0,0.0,0.838,0.0,0.0,0.0,0.0,0.0,0.8859,0.9745,0.0,1.2105,1.3497,1.4806,0.0,0.0,0.0,0.0,1.8152,1.8489,1.8586,1.8269,1.7872,1.751,1.7295,1.7019,1.6821,0.0,1.5638,1.4974,1.4402,1.3905,1.347,1.3879,1.432,1.4231,1.4703,1.4602,1.3055,1.1926,1.1183,1.0854,1.0455,1.01,0.9992,0.9755,0.9609,0.9533,0.9533,0.9533,0.9533,0.9533,0.9609,0.9846,0.9549,0.917,0.8637,0.825,0.794,0.7791,0.7561,0.7407,0.7334,0.7196,0.6889,0.6327,0.5799,0.5331,0.4788,0.1772,-0.143,-0.4665,-0.5097,-0.5802,-0.6694,-0.7672,-0.8201,-0.846,0.0,0.0,0.0,0.0,0.0,0.0,0.0,0.0,0.0,0.0,0.0,0.0,0.0,0.0,0.0,0.0,0.0,0.0,0.0,0.0,0.0,0.0,0.0,0.0,0.0,0.0,0.0,0.0,0.0,0.0,0.0,0.0,0.0,0.0,0.0,0.0,0.0,0.0,0.0,0.7019,0.6696,0.0,0.0,0.0,0.0,0.0,0.0,0.0,0.0,0.8707,1.0386,1.211,1.359,0.0,0.0,0.0,0.0,0.0,1.8268,1.7893,1.7715,1.7988,1.7969,1.7833,1.7373,0.0,0.0,0.0,0.0,1.4736,1.4672,1.5945,1.7076,1.747,1.8122,1.7996,1.6446,1.4635,1.3285,1.2672,1.2133,1.1663,1.1353,1.1037,1.0738,1.0588,1.0513,1.0513,1.0513,1.0513,1.0513,1.0513,0.9997,0.962,0.9473,0.8932,0.8551,0.8178,0.7868,0.771,0.7638,0.7249,0.6943,0.669,0.5779,0.5073,0.4411,0.1233,-0.1958,-0.5109,-0.5808,-0.6602,-0.7404,-0.8285,-0.8636,-0.8811,0.0,0.0,0.0,0.0,0.0,0.0,0.0,0.0,0.0,0.0,0.0,0.0,0.0,0.0,0.0,0.0,0.0,0.0,0.0,0.0,0.0,0.0,0.0,0.0,0.0,0.0,0.0,0.0,0.0,0.0,0.3679,0.3832,0.4302,0.0,0.0,0.0,0.0,0.5721,0.6041,0.62,0.4295,0.0,0.0,0.0,0.0,0.0,0.0,0.0,0.0,0.4405,0.4809,0.514,0.5778,0.0,0.0,0.0,0.0,0.0,1.4139,1.403,1.4749,1.8551,1.9333,1.9212,1.9145,1.8335,0.0,0.0,1.6157,1.6569,1.637,1.8083,1.9511,1.9578,1.8356,1.7952,1.9379,1.5852,1.3462,1.4442,1.2452,1.1372,1.2278,1.1545,1.0962,1.0738,1.0738,1.0663,1.0519,1.0663,1.0663,1.0519,1.0218,1.0143,1.0293,0.9231,0.8703,0.8627,0.8551,0.8551,0.8475,0.8097,0.765,0.7061,0.6118,0.47,0.2787,0.0775,-0.2107,-0.5191,-0.5894,-0.6868,-0.8109,-0.846,-0.8815,-0.9345,0.0,0.0,0.0,0.0,0.0,0.0,0.0,0.0,0.0,0.0,0.0,0.0,0.0,0.0,0.0,0.0,0.0,0.0,0.0,0.0,0.0,0.0,0.0,0.0,0.0,0.0,0.0,0.0,0.0,0.204,0.2193,0.2349,0.2584,0.3049,0.0,0.0,0.3365,0.3368,0.3446,0.3443,0.0,0.0,0.0,0.0,0.0,0.0,0.0,0.0,0.0,0.0,0.1433,0.1927,0.2422,0.0,0.0,0.0,0.0,0.0,0.8073,0.8118,0.8685,1.0738,1.364,1.4883,1.0583,1.2484,1.4837,0.0,1.3958,1.4336,1.4191,1.5847,1.7551,1.8562,1.7368,1.7687,2.1486,1.9642,1.7218,1.5345,1.421,1.3145,1.2224,1.1774,1.1484,1.1335,1.1186,1.1111,1.1186,1.126,1.1186,1.0962,1.0812,1.0663,1.0663,0.9986,0.9533,0.916,0.8856,0.8703,0.8699,0.8169,0.7787,0.7484,0.6321,0.5086,0.3692,0.0598,-0.2886,-0.6278,-0.6966,-0.7837,-0.8807,-0.9331,-0.9598,-0.9777,0.0,0.0,0.0,0.0,0.0,0.0,0.0,0.0,0.0,0.0,0.0,0.0,0.0,0.0,0.0,0.0,0.0,0.0,0.0,0.0,0.0,0.0,0.0,0.0,0.0,0.0,0.0,-0.0079,-0.0157,0.0157,0.0705,0.0941,0.1097,0.0,0.0,0.0,0.1017,0.0626,0.0391,0.0234,0.0,0.0,0.0,0.0,0.0,0.0,0.0,0.0,0.0,0.0,0.0,0.0,0.0,0.0,0.0,0.007,0.1238,0.242,0.2242,0.2231,0.2344,0.2398,0.6707,0.935,0.3241,0.6372,1.0283,0.945,0.9598,0.991,0.9963,1.1658,1.363,1.5576,1.5832,1.7312,2.177,2.2123,2.0698,1.7515,1.6342,1.4953,1.2931,1.2498,1.2224,1.1781,1.1632,1.1558,1.1558,1.1632,1.1558,1.1335,1.1111,1.0962,1.0887,1.0588,1.0293,0.9771,0.9311,0.9084,0.9003,0.8394,0.8093,0.7868,0.652,0.5451,0.4495,0.0338,-0.364,-0.7129,-0.8105,-0.889,-0.9671,-1.0289,-1.0467,-1.0381,0.0,0.0,0.0,0.0,0.0,0.0,0.0,0.0,0.0,0.0,0.0,0.0,0.0,0.0,0.0,0.0,0.0,0.0,0.0,0.0,0.0,0.0,0.0,0.0,0.0,-0.2119,-0.165,-0.1572,-0.165,-0.1493,-0.11,-0.0628,-0.0471,-0.0628,0.0,0.0,-0.1649,-0.2433,-0.2747,-0.2824,-0.3292,0.0,0.0,0.0,0.0,0.0,0.0,0.0,0.0,0.0,0.0,0.0,0.0,0.0,-1.0875,-1.076,-0.6424,-0.1676,-0.1828,-0.2427,-0.2971,-0.2515,0.1178,0.452,0.4141,0.3762,0.3176,0.2241,0.2922,0.3757,0.4022,0.6193,0.8516,1.0284,1.3742,1.697,1.8972,2.0521,2.1716,2.2459,1.843,1.5643,1.5852,1.4347,1.3025,1.2077,1.2003,1.1706,1.1186,1.1484,1.1484,1.1111,1.0962,1.0887,1.1111,1.0663,1.0519,1.0438,1.0212,1.0067,1.0067,0.9468,0.8861,0.825,0.6795,0.5396,0.3822,-0.0248,-0.381,-0.6867,-0.8475,-0.9845,-1.0895,-1.1154,-1.1235,-1.1149,0.0,0.0,0.0,0.0,0.0,0.0,0.0,0.0,0.0,0.0,0.0,0.0,0.0,0.0,0.0,0.0,0.0,0.0,0.0,0.0,0.0,0.0,0.0,-0.5535,-0.4838,-0.3365,-0.2431,-0.2199,-0.2511,-0.251,-0.2273,-0.2195,0.0,0.0,0.0,-0.243,-0.2823,-0.3137,-0.3448,-0.3759,-0.3915,-0.4304,0.0,0.0,0.0,0.0,0.0,0.0,0.0,0.0,-0.8761,0.0,0.0,0.0,-1.2746,-1.2725,-1.1116,-0.933,-0.9114,-0.9292,-0.9676,-1.0036,-0.8944,0.0,0.0,-0.3891,-0.053,-0.0998,-0.0599,-0.0132,-0.0259,-0.3303,-0.4014,0.1312,0.3513,0.774,1.6907,1.8768,1.9868,2.1793,1.9555,1.7102,1.5329,1.3484,1.2365,1.2224,1.1929,1.1706,1.1484,1.1632,1.1558,1.1335,1.1186,1.1186,1.1111,1.0962,1.0887,1.0887,1.0684,1.061,1.0616,1.0215,0.9884,0.9562,0.7721,0.5347,0.2433,-0.0675,-0.4383,-0.8301,-1.0082,-1.1063,-1.1499,-1.1671,-1.1671,-1.1499,0.0,0.0,0.0,0.0,0.0,0.0,0.0,0.0,0.0,0.0,0.0,0.0,0.0,0.0,0.0,0.0,0.0,0.0,0.0,0.0,0.0,0.0,0.0,-0.6465,-0.6002,-0.4763,-0.3679,-0.2902,-0.3212,-0.329,-0.321,0.0,0.0,0.0,0.0,-0.3522,-0.3602,-0.3837,-0.4068,-0.438,-0.4538,-0.4927,0.0,0.0,0.0,0.0,0.0,0.0,0.0,0.0,0.0,0.0,0.0,0.0,0.0,0.0,-1.3404,-1.376,-1.3251,-1.3324,-1.3833,-1.4466,0.0,0.0,-1.476,-1.0347,-0.6215,-0.6093,-0.584,-0.5713,-0.5966,-1.0277,-1.2145,-0.6996,-0.4142,0.1484,1.3259,1.6568,1.9293,2.3309,2.1814,1.9419,1.6784,1.445,1.2997,1.2739,1.2224,1.1781,1.1632,1.1632,1.1484,1.1335,1.1335,1.126,1.1111,1.1111,1.1111,1.1111,1.1094,1.1068,1.0996,1.0759,1.0541,1.0293,0.8737,0.5776,0.1779,-0.0934,-0.5352,-1.04,-1.1591,-1.2186,-1.2277,-1.2357,-1.2357,-1.2192,0.0,0.0,0.0,0.0,0.0,0.0,0.0,0.0,0.0,0.0,0.0,0.0,0.0,0.0,0.0,0.0,0.0,0.0,0.0,0.0,0.0,0.0,0.0,-0.7706,-0.624,-0.6163,-0.5389,-0.3841,-0.3841,-0.3841,-0.3841,-0.3841,0.0,0.0,0.0,0.0,-0.4146,0.0,-0.5004,-0.5082,-0.5479,-0.587,-0.6338,0.0,0.0,0.0,0.0,0.0,0.0,0.0,0.0,0.0,0.0,0.0,0.0,0.0,-1.3098,-1.3818,-1.3004,-1.365,-1.4601,-1.4601,-1.4625,-1.4569,-1.4338,-1.4625,-1.4625,-1.3702,-1.3492,-1.3492,-1.3499,-1.3645,-1.3797,-1.3797,-0.7468,-0.0,0.7564,1.3933,2.0566,2.8013,2.5459,2.2502,2.1042,1.8045,1.5413,1.3673,1.2732,1.2003,1.1409,1.1409,1.1335,1.1111,1.1111,1.1111,1.1111,1.1111,1.1111,1.1111,1.1395,1.1379,1.1235,1.1249,1.0961,1.0384,0.9725,0.6788,0.232,-0.1169,-0.6723,-1.296,-1.3045,-1.3137,-1.3398,-1.3398,-1.3398,-1.3307,0.0,0.0,0.0,0.0,0.0,0.0,0.0,0.0,0.0,0.0,0.0,0.0,0.0,0.0,0.0,0.0,0.0,0.0,0.0,0.0,0.0,0.0,0.0,0.0,0.0,0.0,-0.5398,-0.4616,-0.4932,-0.509,0.0,0.0,0.0,-0.509,0.0,0.0,0.0,0.0,0.0,-0.5944,-0.6025,-0.6183,-0.6338,0.0,0.0,0.0,0.0,0.0,0.0,0.0,0.0,0.0,0.0,0.0,0.0,-1.215,-1.2445,-1.2732,-1.2365,-1.2586,-1.3164,-1.3962,-1.4394,-1.4609,-1.4537,-1.4194,-1.3848,-1.3564,-1.3492,-1.3564,-1.3848,-1.3992,-1.3992,-1.3992,-0.773,-0.0124,0.7502,1.4789,2.1739,2.8149,2.5691,2.2768,2.1079,1.7321,1.4617,1.36,1.2732,1.2003,1.1409,1.1409,1.1335,1.1111,1.1111,1.1111,1.1111,1.1111,1.1111,1.1111,1.1395,1.1552,1.1653,1.1752,1.1727,1.1472,1.0444,0.9372,0.765,0.0661,-0.6412,-1.2875,-1.3483,-1.3906,-1.4062,-1.3977,-1.3899,-1.3828,0.0,0.0,0.0,0.0,0.0,0.0,0.0,0.0,0.0,0.0,0.0,0.0,0.0,0.0,0.0,0.0,0.0,0.0,0.0,0.0,0.0,0.0,0.0,0.0,0.0,-0.6865,-0.6096,0.0,0.0,0.0,0.0,0.0,0.0,-0.5637,0.0,-0.5789,0.0,0.0,0.0,-0.6338,-0.6338,-0.6335,-0.6412,0.0,0.0,0.0,0.0,0.0,0.0,0.0,0.0,0.0,0.0,0.0,0.0,-1.1855,-1.2445,-1.3032,-1.2659,-1.2879,-1.3397,-1.397,-1.4122,-1.4186,-1.4186,-1.3848,-1.3645,-1.3645,-1.371,-1.3775,-1.392,-1.1576,-0.9548,-0.9485,-0.3217,0.437,1.1999,1.7088,2.2455,2.9027,2.7362,2.4906,2.291,1.9284,1.6374,1.4704,1.3448,1.2512,1.1781,1.1558,1.1335,1.1186,1.1111,1.1111,1.1111,1.1111,1.1111,1.1111,1.128,1.1504,1.1781,1.198,1.2153,1.2053,1.1086,1.0668,0.9927,0.1221,-0.4831,-0.8999,-1.3022,-1.4573,-1.4482,-1.4482,-1.4405,-1.4328,0.0,0.0,0.0,0.0,0.0,0.0,0.0,0.0,0.0,0.0,0.0,0.0,0.0,0.0,0.0,0.0,0.0,0.0,0.0,0.0,0.0,0.0,0.0,0.0,0.0,0.0,0.0,0.0,0.0,0.0,0.0,0.0,-0.5715,-0.5715,0.0,-0.6015,0.0,0.0,0.0,-0.6335,-0.6335,-0.649,-0.6637,-0.6641,0.0,0.0,0.0,0.0,0.0,0.0,0.0,0.0,0.0,0.0,-1.1335,-1.1484,-1.2652,-1.3897,-1.3302,-1.3753,-1.4346,-1.4274,-1.392,-1.3564,-1.3499,-1.3717,-1.3863,-1.3863,-1.3992,-1.386,-1.2971,-0.7248,-0.2405,-0.157,0.481,1.2105,1.8964,2.0536,2.3554,3.0403,2.9783,2.7906,2.5621,2.2604,1.9541,1.6495,1.4577,1.3244,1.2445,1.1781,1.1484,1.1409,1.1186,1.1111,1.1111,1.1111,1.1111,1.1111,1.1111,1.1244,1.151,1.2035,1.23,1.2425,1.2099,1.1585,1.0246,0.1511,-0.2196,-0.3142,-1.2017,-1.5235,-1.4824,-1.5082,-1.4999,-1.4734,0.0,0.0,0.0,0.0,0.0,0.0,0.0,0.0,0.0,0.0,0.0,0.0,0.0,0.0,0.0,0.0,0.0,0.0,0.0,0.0,0.0,0.0,0.0,0.0,0.0,0.0,0.0,0.0,0.0,0.0,0.0,0.0,0.0,-0.6633,0.0,-0.6707,0.0,0.0,0.0,-0.6788,-0.6788,-0.6788,-0.6865,-0.7026,-0.7022,0.0,0.0,0.0,0.0,0.0,0.0,0.0,-0.9079,-0.9981,-1.0812,-1.0067,-1.0881,-1.1922,-1.1471,-1.207,-1.2966,-1.3557,-1.3848,-1.392,-1.379,-1.4008,-1.4217,-1.4065,-1.4057,-1.2219,-0.6172,-0.3808,-0.068,0.5453,1.2638,1.8067,1.968,2.5009,2.9395,3.101,2.9419,2.7473,2.5583,2.2238,1.9264,1.7073,1.5092,1.3688,1.3018,1.2445,1.1855,1.1409,1.1335,1.126,1.1111,1.1111,1.1111,1.1111,1.1111,1.1141,1.122,1.1757,1.2625,1.3748,1.6228,1.5591,1.233,0.5736,0.0916,-0.3215,-1.2345,-1.5914,-1.5748,-1.5658,-1.5401,-1.5228,0.0,0.0,0.0,0.0,0.0,0.0,0.0,0.0,0.0,0.0,0.0,0.0,0.0,0.0,0.0,0.0,0.0,0.0,0.0,0.0,0.0,0.0,0.0,0.0,0.0,0.0,0.0,0.0,0.0,0.0,0.0,0.0,0.0,-0.6791,0.0,-0.6641,0.0,0.0,0.0,-0.6791,-0.6791,-0.6788,-0.6865,-0.6872,-0.6949,-0.7022,0.0,0.0,0.0,0.0,0.0,0.0,0.0,0.0,-1.0288,-0.9986,-1.0657,-1.1484,-1.1323,-1.1848,-1.2599,-1.3346,-1.3637,-1.3775,-1.379,-1.4072,-1.3199,-0.9445,-1.169,-1.1954,-0.4145,0.0244,0.527,1.3105,2.062,2.5431,2.5388,2.8542,3.0878,3.0878,2.9604,2.8106,2.6469,2.3768,2.1143,1.8705,1.6417,1.4665,1.368,1.2813,1.2157,1.1855,1.1558,1.1335,1.126,1.1186,1.1111,1.1111,1.1111,1.1259,1.1474,1.212,1.293,1.4049,1.7802,1.9164,1.8331,1.305,1.0236,0.8041,-0.49,-0.9912,-1.0204,-1.4512,-1.5816,-1.5567,0.0,0.0,0.0,0.0,0.0,0.0,0.0,0.0,0.0,0.0,0.0,0.0,0.0,0.0,0.0,0.0,0.0,0.0,0.0,0.0,0.0,0.0,0.0,0.0,0.0,0.0,0.0,0.0,0.0,0.0,0.0,0.0,0.0,-0.6641,0.0,0.0,0.0,0.0,0.0,-0.6718,-0.6718,-0.6868,-0.6942,-0.6791,-0.6872,-0.7026,-0.6795,-0.6945,-0.7407,-0.718,0.0,0.0,0.0,0.0,-0.969,-0.997,-1.0645,-1.1323,-1.1385,-1.2063,-1.282,-1.3346,-1.3572,-1.371,-1.379,-1.2999,-1.0384,-0.4011,-0.8014,-0.9787,-0.0493,0.637,1.3141,2.096,2.7419,3.1385,3.1274,3.0764,3.0435,3.0435,2.9848,2.8871,2.7455,2.5497,2.3232,2.0551,1.7917,1.5843,1.4537,1.3317,1.2526,1.2305,1.1855,1.1484,1.1409,1.126,1.1111,1.1111,1.1111,1.1307,1.1775,1.2505,1.3273,1.423,1.8284,2.1807,2.4445,1.9624,1.9306,2.0379,0.4974,-0.0926,-0.1723,-1.0785,-1.3844,-1.3743,0.0,0.0,0.0,0.0,0.0,0.0,0.0,0.0,0.0,0.0,0.0,0.0,0.0,0.0,0.0,0.0,0.0,0.0,-1.1037,0.0,0.0,-1.1037,0.0,0.0,0.0,0.0,0.0,0.0,0.0,0.0,0.0,0.0,0.0,-0.6865,0.0,0.0,0.0,0.0,-0.718,-0.7407,-0.7407,-0.7257,-0.718,-0.7103,0.0,-0.6718,-0.6788,-0.6942,-0.6942,-0.6942,-0.7176,0.0,0.0,0.0,-0.8551,-0.8237,-0.8841,-0.9674,-1.004,-1.1613,-1.32,-1.3419,-1.3855,-1.4209,-1.4065,-0.91,-0.4129,-0.2925,-0.3653,-0.0122,1.4317,1.7786,2.0996,2.8754,3.0606,3.1055,3.1055,3.0551,3.0231,3.0231,2.9377,2.8418,2.7405,2.5135,2.3249,2.1982,1.901,1.6876,1.5974,1.4593,1.3397,1.2305,1.2231,1.1929,1.1409,1.1335,1.126,1.1111,1.1111,1.1204,1.1471,1.2361,1.3867,1.5769,1.8701,2.2382,2.5777,1.9871,1.904,2.067,1.1483,0.7886,0.6872,-0.1714,-0.4828,-0.5881,0.0,0.0,0.0,0.0,0.0,0.0,0.0,0.0,0.0,0.0,0.0,0.0,0.0,0.0,0.0,-1.1111,-1.1111,-1.1111,-1.1111,-1.1111,-1.1111,-1.1111,-1.1111,0.0,0.0,0.0,0.0,0.0,0.0,0.0,0.0,-0.6563,-0.6714,0.0,0.0,0.0,0.0,0.0,-0.7176,-0.7334,-0.7334,-0.7334,-0.7334,0.0,0.0,0.0,-0.6641,-0.6714,-0.6865,-0.6788,-0.6942,-0.7173,-0.7334,0.0,0.0,0.0,-0.8012,-0.9003,-0.982,-1.1099,-1.2378,-1.3273,-1.3783,-1.2978,-0.8711,-0.5195,-0.0368,0.8257,0.9943,1.1974,1.8725,1.9914,2.2359,3.0095,3.1151,3.0975,3.0855,3.0258,2.9826,2.971,2.8858,2.8091,2.7419,2.552,2.3877,2.278,1.9846,1.7755,1.6945,1.5092,1.384,1.3324,1.2666,1.215,1.1929,1.1706,1.1409,1.1034,1.0887,1.0957,1.1184,1.219,1.3843,1.602,1.8776,2.2252,2.5962,2.4963,2.6045,2.7588,1.9725,1.68,1.5984,0.7247,0.0971,-0.3657,0.0,0.0,0.0,0.0,0.0,0.0,0.0,0.0,0.0,0.0,0.0,0.0,0.0,0.0,0.0,0.0,-1.1111,-1.1111,-1.1111,-1.1111,-1.1111,-1.1111,-1.1111,-1.1111,0.0,0.0,0.0,0.0,0.0,0.0,-0.6563,-0.6563,-0.6718,0.0,-0.6791,-0.6791,0.0,0.0,0.0,-0.7257,-0.7257,-0.733,-0.7326,-0.7019,-0.6945,0.0,0.0,-0.6563,-0.6788,-0.6483,-0.6637,-0.6865,-0.6949,-0.733,0.0,0.0,0.0,-0.8699,-0.9362,-1.0496,-1.1706,-1.282,-1.1971,-0.9328,-0.395,0.0305,0.628,1.7653,2.151,2.2848,2.2803,2.2667,2.4417,3.0061,3.0797,3.0634,3.041,2.9793,2.9319,2.9106,2.8477,2.7855,2.7452,2.5863,2.453,2.3528,2.0825,1.8829,1.7891,1.6053,1.4712,1.407,1.3129,1.2514,1.2078,1.1642,1.1316,1.0972,1.0703,1.0742,1.1024,1.1998,1.3573,1.57,1.8656,2.2051,2.5652,2.8814,3.146,3.3042,2.7668,2.5802,2.5043,1.6209,0.8943,0.2861,0.0,0.0,0.0,0.0,0.0,0.0,0.0,0.0,0.0,0.0,0.0,0.0,-1.1111,-1.1111,-1.1111,-1.1111,-1.1111,-1.1111,-1.1111,-1.1111,-1.1111,-1.1111,-1.1111,0.0,-1.1111,0.0,0.0,0.0,0.0,0.0,-0.6563,-0.6412,-0.6644,-0.718,-0.6942,-0.7022,-0.718,0.0,0.0,-0.7484,-0.7484,-0.7249,-0.6942,-0.6942,-0.6637,-0.6338,-0.6338,-0.6412,-0.6563,-0.6096,-0.6251,-0.6563,-0.6412,-0.649,-0.6714,0.0,0.0,0.0,-0.7846,-0.9583,-1.1774,-1.1983,-0.7242,-0.2581,-0.2674,0.8477,1.905,1.9834,2.5656,3.0599,3.0463,3.0423,3.0409,3.0344,3.0054,2.9793,2.9496,2.9028,2.8685,2.8574,2.822,2.7855,2.7452,2.5863,2.4797,2.4456,2.2164,2.0235,1.8951,1.7958,1.63,1.3863,1.3778,1.3001,1.1476,1.1056,1.0842,1.0823,1.0679,1.0742,1.1149,1.1847,1.3119,1.4957,1.8562,2.1823,2.4967,2.8586,3.1249,3.3051,3.4264,3.4793,3.3902,2.5363,2.1914,1.9183,0.0,0.0,0.0,0.0,0.0,0.0,0.0,0.0,0.0,0.0,0.0,0.0,0.0,-1.1009,-1.1045,-1.0876,-1.1015,-1.1111,-1.1111,-1.1111,-1.1111,-1.1111,-1.1111,-1.1111,-1.1111,0.0,0.0,0.0,0.0,-0.771,-0.7326,-0.6791,-0.6641,-0.7022,-0.6942,-0.7096,-0.7411,-0.7411,0.0,-0.7334,-0.7334,-0.7176,-0.6861,-0.6791,-0.6637,-0.6486,-0.6177,-0.6096,-0.6096,-0.5789,-0.5944,-0.6096,-0.5948,-0.6103,-0.6412,-0.6637,-0.7096,-0.7553,-0.8161,-0.8988,-1.0115,-1.1471,-0.6387,-0.0,0.4065,1.2736,2.13,2.6177,2.9198,3.0861,3.0551,3.0609,3.0551,3.0182,2.9837,2.9572,2.9241,2.8842,2.8494,2.8301,2.789,2.7386,2.6721,2.5591,2.4627,2.3962,2.1862,2.0398,1.9709,1.7819,1.6253,1.5397,1.4413,1.3359,1.2241,1.2218,1.1786,1.1069,1.1145,1.105,1.0927,1.1946,1.3068,1.4478,1.7652,2.0599,2.3474,2.7353,2.987,3.1513,3.3677,3.4721,3.4758,3.2062,2.7555,2.1859,0.0,0.0,0.0,0.0,0.0,0.0,0.0,0.0,0.0,0.0,0.0,0.0,0.0,0.0,-1.0816,-1.0725,-1.0882,-1.1015,-1.1105,-1.1111,-1.1037,-1.0887,-1.0887,-1.0812,-1.0663,0.0,0.0,0.0,0.0,0.0,0.0,-0.6872,-0.6641,-0.6865,-0.6865,-0.7019,0.0,-0.7326,-0.7253,-0.7103,-0.7103,-0.6945,-0.6788,-0.6637,-0.6528,-0.6329,-0.6023,-0.5867,-0.579,-0.5487,-0.5594,-0.5786,-0.5556,-0.5789,-0.618,-0.6096,-0.6479,-0.7015,-0.7548,-0.7999,-0.8751,-1.0185,-0.5014,0.2171,0.8453,1.5389,2.2606,2.9802,3.1078,3.074,3.0274,3.0231,3.0113,2.9705,2.9393,2.912,2.8858,2.8479,2.8204,2.8024,2.759,2.6975,2.6155,2.5189,2.4265,2.3358,2.1636,2.0498,2.0102,1.8173,1.6707,1.5946,1.4418,1.334,1.2837,1.2789,1.2355,1.1417,1.1567,1.1524,1.1397,1.2499,1.3551,1.4691,1.7312,1.9821,2.242,2.6155,2.854,3.0093,3.2352,3.3713,3.4438,3.4918,3.1692,2.6659,0.0,0.0,0.0,0.0,0.0,0.0,0.0,0.0,0.0,0.0,0.0,0.0,0.0,0.0,0.0,-1.0617,-1.0713,-1.0755,-1.1081,-1.1031,-1.0887,-1.0513,-1.0519,-1.0293,-0.9922,0.0,0.0,0.0,0.0,0.0,0.0,0.0,-0.6563,-0.6861,-0.6714,-0.6714,-0.6865,-0.6865,-0.6865,-0.6861,-0.6861,-0.6788,-0.6556,-0.656,-0.6311,-0.5956,-0.5874,-0.5725,-0.5647,-0.5199,-0.5287,-0.5553,-0.5398,-0.5553,-0.5783,-0.516,-0.6157,-0.7157,0.0,0.0,0.0,-0.8129,-0.2644,0.4183,0.9575,1.6425,2.347,2.9629,3.078,3.0525,2.9966,2.9832,2.9572,2.8997,2.8669,2.8431,2.822,2.794,2.774,2.7575,2.7306,2.6733,2.5683,2.4646,2.369,2.2724,2.1665,2.0722,2.0053,1.9279,1.7782,1.5435,1.3874,1.3086,1.3103,1.2789,1.2367,1.1902,1.2025,1.2238,1.2497,1.3475,1.4541,1.5597,1.756,1.9519,2.1694,2.5035,2.7325,2.8902,3.095,3.2447,3.3494,3.3956,3.4723,3.4334,0.0,0.0,0.0,0.0,0.0,0.0,0.0,0.0,0.0,0.0,0.0,0.0,-1.0073,-0.9976,-1.0015,-1.0073,-1.0188,-1.0321,-1.0391,-1.0267,-1.0143,-1.0067,-1.0067,-0.9992,-0.9922,0.0,0.0,0.0,0.0,0.0,0.0,0.0,0.0,0.0,-0.6563,-0.6412,-0.649,-0.6788,-0.6788,-0.6714,-0.6714,-0.6492,-0.618,-0.6294,-0.6159,-0.58,-0.5654,-0.5429,-0.5199,-0.498,-0.5078,-0.5272,-0.5292,-0.5398,-0.5476,-0.5476,-0.586,-0.6321,-0.6325,0.0,0.0,0.0,0.0,0.0,0.5575,1.2677,1.8744,1.6927,2.0252,2.315,2.1979,2.5978,2.9287,2.8653,2.8477,2.8284,2.7825,2.7675,2.7524,2.7196,2.6616,2.5827,2.498,2.4008,2.3098,2.2211,2.1869,2.1249,2.0176,1.9004,1.775,1.6567,1.5968,1.5571,1.525,1.5196,1.4808,1.417,1.4281,1.4267,1.4145,1.4638,1.5265,1.6128,1.7342,1.8636,2.012,2.3453,2.5606,2.7089,2.9373,3.0908,3.1903,3.2629,3.3217,3.3401,0.0,0.0,0.0,0.0,0.0,0.0,0.0,0.0,0.0,0.0,0.0,0.0,-0.9664,-0.9503,-0.9481,-0.9399,-0.9634,-0.9741,-0.9919,-0.9931,-0.9846,-0.962,-0.962,-0.9544,-0.9387,0.0,0.0,0.0,0.0,0.0,0.0,0.0,0.0,0.0,0.0,0.0,-0.6338,-0.6563,-0.6563,-0.649,-0.6563,-0.6433,-0.6129,-0.6156,-0.5917,-0.5558,-0.5428,-0.5189,-0.4904,-0.4814,-0.4897,-0.507,-0.5146,-0.5087,-0.4929,-0.5168,-0.5321,-0.5476,-0.586,-0.5786,-0.5634,-0.5693,0.0,0.0,0.3705,0.6246,0.893,1.1312,1.4867,1.8,1.9433,2.3181,2.657,2.8229,2.8414,2.8155,2.7675,2.7357,2.7049,2.6817,2.626,2.5564,2.4662,2.3984,2.3192,2.2224,2.2047,2.1407,2.0025,1.8764,1.7935,1.7504,1.7054,1.6789,1.6786,1.6563,1.6119,1.5395,1.5575,1.5525,1.5336,1.5761,1.643,1.7366,1.8036,1.8866,2.0054,2.232,2.4056,2.5586,2.7817,2.946,3.0684,3.1338,3.2056,3.2807,0.0,0.0,0.0,0.0,0.0,0.0,0.0,0.0,0.0,0.0,0.0,0.0,-0.904,-0.8888,-0.8913,-0.8802,-0.8986,-0.9221,-0.9502,-0.9697,-0.962,-0.9246,-0.9246,-0.9089,-0.8703,0.0,0.0,0.0,0.0,0.0,0.0,0.0,0.0,0.0,0.0,0.0,-0.6261,-0.6338,-0.6338,-0.6338,-0.649,-0.6468,-0.6196,-0.6074,-0.5782,-0.5409,-0.5208,-0.4885,-0.47,-0.4613,-0.4731,-0.4921,-0.4857,-0.4623,-0.4384,-0.4543,-0.4621,-0.4621,-0.4849,-0.4774,-0.4621,-0.4543,-0.4701,0.0,0.2603,-0.0894,-0.2287,0.893,1.1916,1.3965,1.8767,2.0351,2.2297,2.6777,2.7364,2.7335,2.7494,2.693,2.6457,2.6404,2.6094,2.5502,2.4448,2.4069,2.3487,2.2508,2.2156,2.1348,1.9949,1.8983,1.8495,1.8483,1.7793,1.7669,1.8133,1.7468,1.6846,1.6196,1.643,1.6474,1.6349,1.6843,1.7696,1.8875,1.9075,1.9791,2.0892,2.1565,2.2832,2.4506,2.6395,2.8147,2.9654,3.0132,3.1062,3.2151,-1.2709,0.0,0.0,0.0,0.0,0.0,0.0,0.0,0.0,0.0,0.0,0.0,-0.8312,-0.8441,-0.8463,-0.8179,-0.8485,-0.874,-0.8781,-0.8867,-0.8932,-0.8856,-0.878,-0.878,-0.8703,-0.878,0.0,0.0,0.0,0.0,0.0,0.0,0.0,0.0,0.0,0.0,-0.6018,-0.6409,-0.6412,-0.6338,-0.6338,-0.6187,-0.5901,-0.5993,-0.5646,-0.5069,-0.5105,-0.4885,-0.4488,-0.4255,-0.4235,-0.428,-0.413,-0.3997,-0.3919,-0.3997,-0.3997,-0.3997,-0.3995,-0.4151,-0.407,-0.337,-0.3606,0.0,-0.1761,-0.2285,-0.2718,-0.1177,0.4183,0.8673,0.8871,1.3975,1.8559,1.9826,2.0665,2.2533,2.6529,2.6683,2.6176,2.5673,2.5024,2.4314,2.3546,2.2957,2.2479,2.206,2.1771,2.1631,2.1798,2.1094,2.0592,2.0379,2.0188,2.0064,2.0079,1.9501,1.9112,1.8861,1.8338,1.7976,1.7871,1.8065,1.8509,1.9075,1.9539,1.9922,2.0302,2.1239,2.2664,2.4346,2.5467,2.6893,2.8293,2.8745,2.9483,3.0344,-1.239,0.0,0.0,0.0,0.0,0.0,0.0,0.0,0.0,0.0,-1.0692,-0.9518,-0.863,-0.8376,-0.8163,-0.7945,-0.8181,-0.8411,-0.8524,-0.8603,-0.8627,-0.8551,-0.8551,-0.8479,-0.8403,-0.8403,-0.825,0.0,0.0,0.0,0.0,0.0,0.0,0.0,0.0,0.0,-0.5789,-0.6096,-0.6177,-0.6093,-0.6249,-0.6125,-0.5908,-0.5837,-0.5503,-0.502,-0.4953,-0.4626,-0.4211,-0.4039,-0.3997,-0.3947,-0.3814,-0.3606,-0.3452,-0.3452,-0.3452,-0.3452,-0.3294,-0.3526,-0.3602,-0.2823,-0.2981,0.0,0.0,-0.2585,-0.2578,-0.3031,0.015,0.3835,0.6757,1.0638,1.4362,1.7368,1.8663,2.0095,2.2493,2.3764,2.453,2.4711,2.4399,2.3944,2.3328,2.3083,2.2871,2.2681,2.2173,2.202,2.2297,2.1612,2.1289,2.1368,2.1104,2.0976,2.1123,2.0624,2.0172,1.9857,1.9441,1.9044,1.8539,1.8931,1.9131,1.9407,1.9922,2.0313,2.07,2.1451,2.247,2.3631,2.4924,2.6187,2.7384,2.7963,2.8701,2.9518,-1.2076,-1.2202,0.0,0.0,0.0,0.0,0.0,0.0,0.0,-1.1553,-1.0771,-0.9912,-0.902,-0.8412,-0.7989,-0.7888,-0.8023,-0.8217,-0.8392,-0.8515,-0.8551,-0.8403,-0.8327,-0.825,-0.8102,-0.8102,-0.8102,0.0,0.0,0.0,0.0,0.0,0.0,0.0,0.0,0.0,-0.5559,-0.5786,-0.5848,-0.581,-0.604,-0.6053,-0.5956,-0.5617,-0.5359,-0.4971,-0.4733,-0.429,-0.3906,-0.3817,-0.3689,-0.3545,-0.3573,-0.3295,-0.2982,-0.2982,-0.2982,-0.2904,-0.2746,-0.2902,-0.2979,-0.2511,-0.2512,-0.2669,0.0,0.0,0.0,-0.1642,-0.1249,0.084,0.6489,0.8009,1.0006,1.4733,1.6268,1.6992,1.7285,1.9477,2.164,2.3106,2.3395,2.3301,2.3002,2.3207,2.3365,2.3343,2.2736,2.2414,2.2472,2.1898,2.17,2.2073,2.1692,2.1571,2.1753,2.1336,2.0892,2.0291,2.0237,1.9781,1.9008,1.9539,1.9726,1.9791,2.0302,2.0764,2.1094,2.16,2.2075,2.2701,2.4355,2.5591,2.6611,2.7348,2.8143,2.8982,-1.1227,-1.1354,-1.1396,0.0,0.0,0.0,0.0,0.0,0.0,-1.0737,-1.0173,-0.9597,-0.888,-0.8383,-0.8089,-0.8042,-0.8101,-0.8162,-0.8401,-0.8218,-0.825,-0.8403,-0.8255,-0.8102,-0.8102,-0.8102,-0.8102,-0.8102,0.0,0.0,0.0,0.0,0.0,0.0,-0.4929,-0.5012,-0.5321,-0.5556,-0.5567,-0.552,-0.5377,-0.5538,-0.581,-0.5434,-0.5092,-0.4782,-0.4164,-0.3899,-0.3738,-0.3222,-0.299,-0.295,-0.2706,-0.2588,-0.2589,-0.2589,-0.2431,-0.2275,-0.2275,-0.2198,-0.2043,-0.1964,-0.1965,-0.2044,-0.1964,0.0,-0.0548,-0.047,0.0,0.1953,0.3023,0.0,0.0,0.6893,0.7886,0.9479,1.2398,1.4285,1.6646,2.0101,2.106,2.153,2.1791,2.2261,2.2665,2.2909,2.2738,2.2761,2.299,2.3119,2.3059,2.2822,2.2857,2.2701,2.2285,2.2123,2.1663,2.0996,2.07,2.0248,1.9802,2.0172,2.0302,2.0366,2.0903,2.0967,2.07,2.1273,2.1514,2.1753,2.3479,2.4854,2.5957,2.6481,2.7312,2.8271,-1.087,-1.1115,-1.1303,0.0,0.0,0.0,0.0,0.0,-1.1498,-1.1178,-1.0258,-0.9539,-0.9426,-0.8528,-0.8004,-0.8105,-0.8134,-0.8161,-0.82,-0.8134,-0.8102,-0.803,-0.7953,-0.7876,-0.7714,-0.7714,-0.7714,-0.7714,-0.7714,0.0,0.0,0.0,0.0,0.0,-0.4229,-0.4387,-0.4774,-0.5012,-0.5172,-0.5268,-0.5207,-0.525,-0.5374,-0.5099,-0.4876,-0.4628,-0.4025,-0.3664,-0.3462,-0.302,-0.2795,-0.2547,-0.2405,-0.2431,-0.251,-0.2353,-0.2275,-0.2196,-0.2042,-0.1886,-0.1729,-0.1572,-0.1572,-0.1572,-0.1572,-0.1178,-0.0706,-0.0235,0.0,0.0,0.0,0.0,0.0,0.0,0.549,0.7454,0.912,1.1567,1.4434,1.7849,1.8923,1.9727,2.0655,2.1376,2.1963,2.2273,2.2543,2.28,2.3078,2.3198,2.315,2.3017,2.3078,2.2957,2.2665,2.2555,2.2235,2.1726,2.1423,2.0903,2.0313,2.07,2.07,2.0431,2.0967,2.1094,2.0967,2.1273,2.1526,2.1788,2.2798,2.3891,2.4966,2.5769,2.673,2.77,-1.0744,-1.0989,-1.1178,-1.1247,0.0,0.0,0.0,-1.1115,-1.1045,-1.1045,-1.0027,-0.9396,-0.958,-0.859,-0.7957,-0.8161,-0.8044,-0.8032,-0.8093,-0.8025,-0.7876,-0.7804,-0.7727,-0.7569,-0.7484,-0.7407,-0.7407,-0.7484,0.0,0.0,0.0,0.0,0.0,0.0,-0.3608,-0.3841,-0.4229,-0.4543,-0.4691,-0.4845,-0.4977,-0.4983,-0.4891,-0.4797,-0.4561,-0.4292,-0.3825,-0.3419,-0.3094,-0.2817,-0.252,-0.228,-0.2257,-0.2275,-0.2276,-0.2198,-0.2041,-0.2041,-0.1886,-0.165,-0.1493,-0.1335,-0.1335,-0.1335,-0.1335,-0.1335,-0.11,-0.047,-0.0235,0.0,0.0,0.0,0.227,0.1797,0.0,0.5653,0.69,0.9311,1.2091,1.5418,1.698,1.8265,1.941,2.0473,2.125,2.1678,2.2223,2.2739,2.3078,2.3078,2.3078,2.3078,2.3078,2.3017,2.2848,2.2739,2.2494,2.2123,2.1824,2.1371,2.0828,2.1094,2.0955,2.0624,2.1031,2.1158,2.1031,2.1273,2.1463,2.1726,2.2285,2.3053,2.3975,2.5175,2.6201,2.7144,-1.0624,-1.0744,-1.087,-1.1059,-1.1247,-1.1115,-1.0611,-0.997,-0.9582,-0.9582,-0.9156,-0.8931,-0.9088,-0.8471,-0.8175,-0.8376,-0.8021,-0.7872,-0.8102,-0.7714,-0.7642,-0.7804,-0.7415,-0.7334,-0.7484,-0.7096,-0.7096,-0.7484,0.0,0.0,0.0,0.0,0.0,0.0,-0.3062,-0.3374,-0.3841,-0.4229,-0.4268,-0.408,-0.4509,-0.4585,-0.4372,-0.4561,-0.4292,-0.3758,-0.336,-0.3078,-0.2742,-0.2458,-0.2228,-0.2131,-0.2181,-0.2041,-0.1887,-0.1887,-0.1807,-0.165,-0.1572,-0.1493,-0.1335,-0.1335,-0.1335,-0.1335,-0.1335,-0.1335,-0.1257,-0.1257,-0.1257,-0.1257,-0.1178,-0.0471,0.0235,0.0627,0.1094,0.0,0.0,0.6981,0.8859,1.251,1.5432,1.7338,1.79,1.9267,2.0462,2.1244,2.1889,2.2494,2.3078,2.3078,2.3078,2.3078,2.3078,2.2969,2.2678,2.269,2.2432,2.1937,2.1761,2.1624,2.1388,2.1273,2.1158,2.1169,2.1158,2.0967,2.0635,2.1031,2.1146,2.1198,2.1925,2.2494,2.3078,2.4536,2.5591,2.6443,-1.0624,-1.0624,-1.0751,-1.087,-1.1059,-1.0926,-1.0281,-0.9703,-0.9379,-0.936,-0.8925,-0.8648,-0.8883,-0.8276,-0.7961,-0.8012,-0.7876,-0.7799,-0.7714,-0.7561,-0.7484,-0.7415,-0.7261,-0.718,-0.7096,-0.6942,-0.6942,-0.7096,-0.7019,0.0,0.0,0.0,0.0,0.0,0.0,-0.2824,-0.3374,-0.3452,-0.3583,-0.3698,-0.3713,-0.3621,-0.3629,-0.4164,-0.4161,-0.3768,-0.3361,-0.3093,-0.2815,-0.2445,-0.2279,-0.2174,-0.2037,-0.1964,-0.1887,-0.1729,-0.165,-0.1572,-0.1572,-0.1415,-0.1335,-0.1335,-0.1335,-0.1335,-0.1335,-0.1335,-0.1335,-0.1335,-0.1335,-0.1178,-0.0864,-0.0864,-0.055,0.0471,0.1017,0.1953,0.0,0.6053,0.8495,1.1007,1.3613,1.5694,1.6766,1.8392,1.9727,2.0568,2.1702,2.2543,2.2957,2.3078,2.3078,2.3078,2.3078,2.3078,2.2969,2.28,2.2616,2.2432,2.1949,2.1624,2.1624,2.1296,2.1221,2.1221,2.1221,2.0967,2.0635,2.1031,2.1094,2.1019,2.1737,2.2297,2.2836,2.4002,2.4964,2.5892,-1.0498,-1.0561,-1.0624,-1.0807,-1.0541,-1.0218,-0.9697,-0.8998,-0.853,-0.855,-0.8303,-0.8214,-0.8417,-0.8019,-0.7737,-0.7787,-0.7723,-0.7642,-0.7484,-0.7407,-0.733,-0.7184,-0.7026,-0.6945,-0.6865,-0.6791,-0.6791,-0.6865,-0.6549,-0.5619,0.0,0.0,0.0,0.0,0.0,-0.2431,-0.2826,-0.2984,-0.322,-0.3304,-0.3277,-0.3189,-0.323,-0.3738,-0.3727,-0.3368,-0.319,-0.2922,-0.2634,-0.2401,-0.223,-0.2041,-0.1886,-0.1729,-0.165,-0.1493,-0.1493,-0.1493,-0.1493,-0.1415,-0.1335,-0.1335,-0.1335,-0.1335,-0.1335,-0.1335,-0.1335,-0.1335,-0.1335,-0.1178,-0.0943,-0.0707,-0.0393,0.0471,0.1019,0.1721,0.0,0.5902,0.8362,0.9895,1.2191,1.4307,1.5728,1.7375,1.8859,2.0193,2.1439,2.2347,2.2848,2.3017,2.3078,2.3078,2.3078,2.3078,2.3017,2.28,2.2678,2.2616,2.2011,2.1698,2.1698,2.136,2.1221,2.1221,2.1221,2.0967,2.0635,2.1031,2.1094,2.0967,2.1675,2.2111,2.2592,2.359,2.4667,2.5892,-1.0301,-1.0434,-1.0618,-1.0744,-0.9767,-0.8988,-0.8988,-0.7954,-0.7159,-0.7168,-0.7346,-0.7538,-0.7799,-0.7599,-0.7601,-0.7787,-0.7565,-0.748,-0.748,-0.7257,-0.718,-0.718,-0.6795,-0.6714,-0.6865,-0.6486,-0.649,-0.6865,-0.5774,0.0,0.0,0.0,0.0,0.0,-0.1961,-0.2195,-0.2196,-0.2826,-0.3019,-0.3013,-0.3154,-0.318,-0.3181,-0.3197,-0.3038,-0.2708,-0.2783,-0.2573,-0.2276,-0.2183,-0.2005,-0.1887,-0.165,-0.1493,-0.1335,-0.1335,-0.1335,-0.1335,-0.1335,-0.1335,-0.1335,-0.1335,-0.1335,-0.1257,-0.1257,-0.1257,-0.1335,-0.1335,-0.1335,-0.1335,-0.1335,-0.0236,0.0628,0.0628,0.1021,0.196,0.3826,0.63,0.8304,0.9125,1.1162,1.3164,1.495,1.6341,1.7968,2.0063,2.1101,2.1939,2.2848,2.3017,2.3078,2.3078,2.3078,2.3017,2.2909,2.28,2.2616,2.242,2.1937,2.1698,2.1698,2.136,2.1158,2.1158,2.1158,2.0903,2.0571,2.0967,2.1031,2.0903,2.1612,2.1999,2.2309,2.3292,2.4711,2.6336,-1.011,-1.0238,-1.0428,-1.0624,-0.9518,-0.8613,-0.8613,-0.7698,-0.7009,-0.7078,-0.733,-0.7512,-0.7546,-0.7567,-0.7435,-0.7334,-0.7334,-0.7176,-0.7096,-0.7019,-0.6945,-0.6795,-0.6641,-0.6563,-0.649,-0.6335,-0.6335,-0.649,-0.5547,0.0,-0.383,0.0,0.0,0.0,-0.1728,-0.1806,-0.1964,-0.2276,-0.2476,-0.2565,-0.256,-0.2518,-0.2505,-0.2522,-0.2516,-0.2439,-0.2795,-0.261,-0.2185,-0.2159,-0.1953,-0.165,-0.165,-0.1493,-0.1335,-0.1335,-0.1335,-0.1335,-0.1335,-0.1335,-0.1335,-0.1335,-0.1335,-0.1178,-0.0864,-0.1021,-0.1335,-0.1335,-0.1335,-0.1335,-0.1335,-0.0,0.1021,0.0629,0.1256,0.2194,0.3444,0.5146,0.6762,0.8223,0.9825,1.162,1.3738,1.5747,1.7532,1.9027,2.0568,2.1839,2.2678,2.28,2.2909,2.3078,2.3078,2.3078,2.3078,2.28,2.2678,2.2616,2.2011,2.1698,2.1698,2.136,2.1031,2.0764,2.0764,2.0377,1.9868,2.0237,2.0366,2.0366,2.0955,2.1612,2.2371,2.3458,2.4597,2.5563,-0.9926,-1.0053,-1.0174,-1.0301,-0.9226,-0.8377,-0.8438,-0.7831,-0.728,-0.6969,-0.7224,-0.7374,-0.7399,-0.7326,-0.7173,-0.7099,-0.7099,-0.7022,-0.6942,-0.6788,-0.6714,-0.6641,-0.6486,-0.6412,-0.6338,-0.618,-0.6022,-0.5709,-0.4771,-0.3912,-0.321,0.0,0.0,0.0,-0.1572,-0.165,-0.1807,-0.1963,-0.209,-0.2116,-0.2089,-0.2064,0.0,-0.2069,-0.2078,-0.2084,-0.2441,-0.2369,-0.2054,-0.1947,-0.1806,-0.1572,-0.1493,-0.1415,-0.1335,-0.1335,-0.1335,-0.1335,-0.1335,-0.1335,-0.1335,-0.1335,-0.1335,-0.1178,-0.0707,-0.0707,-0.0864,-0.1257,-0.1021,-0.0628,-0.0236,0.0471,0.0943,0.0943,0.1648,0.2353,0.2901,0.445,0.5992,0.746,0.8832,1.0421,1.2358,1.4625,1.6642,1.8228,1.9651,2.106,2.2285,2.2408,2.2702,2.3318,2.3198,2.3078,2.3078,2.2726,2.2555,2.2555,2.2011,2.1698,2.1698,2.136,2.1094,2.0828,2.07,2.0313,1.9857,2.0172,2.0237,2.0172,2.0816,2.1537,2.2309,2.31,2.4079,2.5106,-0.9804,-0.9926,-0.9919,-0.9849,-0.9013,-0.8305,-0.8263,-0.7976,-0.761,-0.697,-0.7071,-0.718,-0.718,-0.7022,-0.6861,-0.6865,-0.6865,-0.6865,-0.6788,-0.6637,-0.6563,-0.6483,-0.6335,-0.6257,-0.6261,-0.6022,-0.555,-0.4924,-0.3837,-0.3057,-0.251,0.0,0.0,0.0,-0.1493,-0.1572,-0.1572,-0.1807,-0.1863,-0.1828,-0.1828,-0.1804,-0.1699,-0.1812,-0.1828,-0.1833,-0.1873,-0.1939,-0.1986,-0.1717,-0.1572,-0.1493,-0.1336,-0.1335,-0.1335,-0.1335,-0.1335,-0.1335,-0.1335,-0.1257,-0.1257,-0.1257,-0.1335,-0.1178,-0.0628,-0.0236,-0.0157,-0.0864,-0.0393,0.0393,0.1178,0.0943,0.0864,0.1335,0.2041,0.2511,0.2589,0.4066,0.569,0.6835,0.8134,0.0,1.1031,1.3353,1.5475,1.7415,1.8469,1.9803,2.1604,2.1854,2.2421,2.3509,2.3198,2.3078,2.3078,2.2653,2.242,2.242,2.1937,2.1698,2.1698,2.136,2.1158,2.1094,2.0711,2.0366,2.0042,2.0302,2.0302,2.0161,2.1071,2.1663,2.2185,2.2469,2.3386,2.4697,-0.974,-0.9804,-0.9664,-0.9256,-0.9068,-0.8628,-0.7495,-0.7049,-0.6814,-0.6697,-0.684,-0.6942,-0.6942,-0.6942,-0.6865,-0.6637,-0.6637,-0.6563,-0.6412,-0.6338,-0.6257,-0.6018,-0.6018,-0.5944,-0.5873,-0.5873,-0.5323,-0.4302,-0.3448,-0.2824,-0.251,0.0,0.0,0.0,-0.1335,-0.1415,-0.1572,-0.165,-0.1725,-0.1875,-0.1875,-0.187,-0.1863,-0.1872,-0.1875,-0.1876,-0.1727,-0.1646,-0.1641,-0.1649,-0.1493,-0.1335,-0.1335,-0.1335,-0.1335,-0.1335,-0.1335,-0.1335,-0.1335,-0.1021,-0.0786,-0.1178,-0.1335,-0.11,-0.0314,-0.0079,0.0157,0.0707,0.0943,0.11,0.1257,0.1257,0.1335,0.1726,0.2196,0.2589,0.2982,0.4075,0.516,0.6237,0.7464,0.8765,1.0067,1.2325,1.4188,1.552,1.6936,1.8552,2.0415,2.0853,2.1717,2.3125,2.2909,2.2848,2.3078,2.2653,2.242,2.242,2.1937,2.1698,2.1698,2.136,2.1031,2.07,2.0366,1.9977,1.9671,1.9462,1.9649,2.0172,2.0955,2.1486,2.1824,2.2297,2.2992,2.3917,-0.9145,-0.9145,-0.8986,-0.8443,-0.8117,-0.7776,-0.719,-0.6719,-0.6453,-0.6601,-0.6667,-0.6714,-0.6714,-0.6637,-0.6563,-0.649,-0.6412,-0.6335,-0.6099,-0.6099,-0.6022,-0.5789,-0.5789,-0.5873,-0.5799,-0.4854,-0.4151,-0.3604,-0.3217,-0.2591,-0.1884,-0.1492,-0.1335,-0.1335,-0.1335,-0.1336,-0.1415,-0.1415,-0.1493,-0.1572,-0.1572,-0.1572,-0.1572,-0.1572,-0.1572,-0.1572,-0.1493,-0.1415,-0.1415,-0.1415,-0.1415,-0.1335,-0.1335,-0.1335,-0.1335,-0.1335,-0.11,-0.1021,-0.1257,-0.11,-0.0943,-0.0707,-0.0628,-0.055,-0.0079,0.0314,0.0786,0.1178,0.1335,0.1335,0.1335,0.1335,0.1414,0.1803,0.2275,0.2668,0.3215,0.3841,0.4618,0.5777,0.6773,0.7846,0.8846,1.0708,1.2545,1.4068,1.5421,1.7064,1.9162,1.9771,2.083,2.2555,2.2665,2.2739,2.2909,2.2223,2.1975,2.2111,2.1549,2.136,2.1549,2.1285,2.1094,2.0903,2.0506,2.0183,1.9857,1.9726,2.0042,2.07,2.1031,2.1423,2.1761,2.2123,2.2823,2.3754,-0.8299,-0.8204,-0.8092,-0.745,-0.7086,-0.6828,-0.6741,-0.6384,-0.6261,-0.6486,-0.6563,-0.6563,-0.6563,-0.6335,-0.618,-0.618,-0.618,-0.6025,-0.5864,-0.5864,-0.5789,-0.5562,-0.5643,-0.5721,-0.5646,-0.4233,-0.3137,-0.2433,-0.2512,-0.212,-0.1178,-0.1178,-0.1178,-0.1178,-0.1257,-0.1335,-0.1335,-0.1335,-0.1335,-0.1257,-0.1178,-0.1178,-0.1335,-0.1335,-0.1335,-0.1335,-0.1335,-0.1257,-0.1178,-0.1178,-0.1257,-0.1335,-0.1335,-0.1335,-0.1335,-0.1335,-0.0943,-0.055,-0.0943,-0.1021,-0.0786,0.0079,0.0314,0.0236,0.0157,0.0629,0.1178,0.1257,0.1335,0.1335,0.1335,0.1335,0.157,0.196,0.2353,0.2824,0.337,0.3684,0.4229,0.5315,0.6079,0.6769,0.7621,0.8988,1.0484,1.2098,1.365,1.5483,1.7697,1.8425,1.9619,2.1358,2.1729,2.1939,2.199,2.1439,2.1336,2.1612,2.1158,2.1019,2.1273,2.1221,2.1221,2.1158,2.0764,2.0431,2.0096,2.0096,2.0495,2.1094,2.1158,2.136,2.1686,2.1999,2.2653,2.3518,-0.7238,-0.7315,-0.7165,-0.6481,-0.6477,-0.6296,-0.565,-0.5625,-0.5792,-0.6261,-0.6338,-0.6338,-0.6338,-0.6099,-0.5941,-0.5941,-0.5789,-0.5637,-0.5637,-0.5637,-0.5562,-0.5413,-0.5413,-0.5344,-0.5042,-0.4883,-0.3301,-0.0314,-0.0628,-0.0785,-0.0629,-0.0629,-0.0629,-0.0707,-0.11,-0.1335,-0.1335,-0.1335,-0.1335,-0.1257,-0.0864,-0.0943,-0.1335,-0.1335,-0.1335,-0.1335,-0.1335,-0.1021,-0.0629,-0.0629,-0.0943,-0.1335,-0.1335,-0.1335,-0.1335,-0.1335,-0.0707,-0.0079,-0.0079,-0.0157,0.0079,0.0943,0.1178,0.11,0.0628,0.0628,0.0786,0.1178,0.1335,0.1335,0.1335,0.1569,0.196,0.2353,0.2747,0.3217,0.3684,0.3763,0.4075,0.4698,0.5157,0.5693,0.6318,0.6996,0.7749,0.8429,1.1501,1.406,1.5748,1.6468,1.7494,1.9141,1.9325,1.9467,1.9684,2.0246,2.056,2.07,2.0839,2.0903,2.0967,2.1094,2.1221,2.1158,2.0764,2.0431,2.0096,2.0096,2.0302,2.07,2.1031,2.1273,2.1463,2.18,2.2223,2.2823,-0.6612,-0.66,-0.6467,-0.5845,-0.5761,-0.5754,-0.5542,-0.5604,-0.5637,-0.587,-0.587,-0.587,-0.587,-0.5792,-0.5712,-0.5712,-0.5634,-0.5559,-0.5401,-0.5485,-0.541,-0.5176,-0.5188,-0.5118,-0.4967,-0.3066,-0.1335,-0.0,-0.0157,-0.0236,-0.0236,-0.0236,-0.0236,-0.0236,-0.0471,-0.0629,-0.0864,-0.0864,-0.1021,-0.1257,-0.0786,-0.055,-0.055,-0.0786,-0.0864,-0.0943,-0.1178,-0.1178,-0.0943,-0.0707,-0.0707,-0.0864,-0.0864,-0.11,-0.1335,-0.1335,-0.0314,0.0786,0.0786,0.055,0.0471,0.0786,0.11,0.1257,0.11,0.101,0.1004,0.1254,0.1335,0.1335,0.1648,0.1803,0.2117,0.2746,0.2982,0.3297,0.3921,0.3843,0.3919,0.4311,0.4924,0.5309,0.5315,0.6307,0.6915,0.6923,0.9482,1.1704,1.3107,1.4624,1.5896,1.6903,1.8178,1.8808,1.8777,1.9257,1.9628,2.0031,1.9781,1.9791,2.0129,2.0183,2.0324,2.0453,2.0313,2.0366,2.0366,2.0172,2.0431,2.0967,2.1158,2.1273,2.1463,2.1788,2.2235,2.2702,-0.5861,-0.5828,-0.5744,-0.5324,-0.5266,-0.5296,-0.5392,-0.5404,-0.5404,-0.5404,-0.5404,-0.5482,-0.5559,-0.5559,-0.5479,-0.5479,-0.5482,-0.5326,-0.5246,-0.5251,-0.494,-0.4309,-0.4719,-0.4408,-0.3144,-0.0864,0.0314,0.0157,0.0157,0.0157,0.0157,0.0079,-0.0,-0.0,-0.0,-0.0157,-0.0393,-0.0393,-0.0628,-0.0864,-0.055,-0.0236,-0.0,-0.0314,-0.0393,-0.0471,-0.0786,-0.0786,-0.0471,-0.0157,-0.0157,-0.0236,-0.0079,-0.0393,-0.0707,-0.0707,0.0157,0.11,0.1257,0.1021,0.0786,0.0786,0.1021,0.1333,0.1246,0.1227,0.1217,0.1239,0.1407,0.157,0.1882,0.2117,0.2431,0.2984,0.3217,0.3452,0.3923,0.3921,0.3843,0.3999,0.4538,0.4768,0.4465,0.5309,0.5848,0.5625,0.7294,0.917,1.1089,1.2753,1.3991,1.479,1.6408,1.7387,1.7455,1.7765,1.8345,1.9243,1.8787,1.8865,1.9473,1.955,1.9736,1.9868,1.9911,2.0107,2.0431,2.0172,2.0431,2.1031,2.1158,2.1285,2.14,2.1737,2.2111,2.2531,-0.483,-0.4928,-0.5012,-0.5015,-0.5015,-0.5015,-0.5018,-0.5018,-0.5018,-0.5018,-0.5018,-0.5171,-0.5559,-0.5401,-0.5321,-0.5321,-0.5093,-0.5018,-0.5018,-0.5018,-0.4229,-0.2582,-0.4086,-0.3064,0.11,0.1257,0.1021,0.0628,0.0628,0.0628,0.055,0.0157,-0.0,-0.0,-0.0,-0.0,-0.0,-0.0,-0.0,-0.0,-0.0,-0.0,-0.0,-0.0,-0.0,-0.0,-0.0,0.055,0.1257,0.1257,0.0943,0.0629,0.11,0.0943,0.055,0.055,0.0628,0.0707,0.1178,0.1257,0.1257,0.1257,0.1257,0.1249,0.1219,0.1212,0.1212,0.1212,0.1544,0.1882,0.1882,0.2589,0.3062,0.3062,0.3452,0.3763,0.3763,0.3763,0.3763,0.3841,0.3841,0.3841,0.3841,0.3841,0.3919,0.4079,0.4924,0.6747,0.998,1.0593,1.1508,1.2858,1.3673,1.4466,1.5234,1.557,1.6627,1.8337,1.8027,1.8365,1.9142,1.9473,1.9736,1.9868,1.9507,1.9628,2.0107,2.0096,2.0302,2.0635,2.1031,2.1221,2.1221,2.1561,2.1949,2.2247,-0.4106,-0.4133,-0.4155,-0.4155,-0.4387,-0.4465,-0.4233,-0.4626,-0.4937,-0.4621,-0.4621,-0.4621,-0.4776,-0.4935,-0.5093,-0.5093,-0.4779,-0.4384,-0.391,-0.3682,-0.2979,-0.1723,-0.1333,-0.0549,0.0786,0.11,0.1257,0.11,0.11,0.11,0.11,0.0628,0.0393,0.0393,0.0393,0.0393,0.0393,0.0393,0.0393,0.0393,0.0393,0.0393,0.0393,0.0393,0.0393,0.0393,0.0393,0.055,0.0864,0.1178,0.1178,0.11,0.1257,0.1178,0.11,0.11,0.157,0.2198,0.2356,0.2666,0.2974,0.2974,0.3132,0.3189,0.3035,0.309,0.3149,0.3172,0.3044,0.3054,0.3365,0.3214,0.3219,0.353,0.3684,0.3763,0.3763,0.3763,0.3763,0.3763,0.3763,0.3763,0.3763,0.3763,0.3841,0.3921,0.4151,0.5148,0.713,0.8273,0.9336,1.0415,1.1125,1.2225,1.3585,1.3981,1.4838,1.6175,1.6576,1.7276,1.8182,1.8808,1.9008,1.8942,1.9177,1.9441,1.9791,1.9977,2.0161,2.0302,2.0967,2.1031,2.0839,2.1498,2.1886,2.2247,-0.3763,-0.3763,-0.3763,-0.3763,-0.3997,-0.4073,-0.3841,-0.4233,-0.4467,-0.4231,-0.4151,-0.4151,-0.4151,-0.4389,-0.4548,-0.4548,-0.4073,-0.3599,-0.3205,-0.2506,-0.1803,-0.1175,0.0157,0.0864,0.0864,0.1178,0.1335,0.1335,0.1335,0.1335,0.1257,0.1021,0.0864,0.0864,0.0864,0.0864,0.0864,0.0864,0.0864,0.0864,0.0864,0.0864,0.0864,0.0864,0.0864,0.0864,0.0864,0.0864,0.0943,0.1178,0.1335,0.1335,0.1335,0.1414,0.157,0.1727,0.2198,0.2824,0.3136,0.3522,0.383,0.383,0.3988,0.4033,0.397,0.4038,0.4182,0.4085,0.4084,0.4068,0.438,0.4226,0.4151,0.446,0.4307,0.4153,0.4153,0.3919,0.3763,0.3763,0.3763,0.3763,0.3763,0.3763,0.3763,0.3763,0.3763,0.4229,0.5157,0.6451,0.7596,0.8523,0.9251,1.0289,1.171,1.1844,1.2656,1.4291,1.5508,1.6437,1.7217,1.7988,1.8347,1.8405,1.8787,1.9131,1.9473,1.9791,1.9911,1.9977,2.0571,2.07,2.07,2.1296,2.1737,2.2185,-0.3684,-0.3684,-0.3684,-0.3684,-0.3763,-0.3763,-0.3684,-0.3763,-0.3763,-0.3765,-0.3765,-0.3765,-0.3765,-0.3684,-0.3684,-0.3684,-0.3132,-0.274,-0.266,-0.1409,-0.0705,-0.0627,0.0628,0.1335,0.1335,0.1335,0.1335,0.1335,0.1335,0.1335,0.1335,0.1335,0.1335,0.1335,0.1335,0.1335,0.1335,0.1335,0.1335,0.1335,0.1335,0.1335,0.1335,0.1335,0.1335,0.1335,0.1335,0.1335,0.1414,0.1335,0.1414,0.1414,0.1414,0.1649,0.2038,0.2431,0.2588,0.2821,0.3677,0.3986,0.3986,0.3986,0.4133,0.4306,0.4327,0.4431,0.4474,0.431,0.4766,0.5082,0.5082,0.5389,0.5622,0.5622,0.5162,0.4776,0.4698,0.4231,0.3919,0.3841,0.3841,0.3763,0.3763,0.3763,0.3763,0.3763,0.3763,0.3921,0.4079,0.5148,0.6213,0.721,0.7821,0.8642,0.9659,0.9326,1.037,1.2715,1.4609,1.5711,1.6228,1.7028,1.7735,1.8269,1.8269,1.8607,1.9131,1.9473,1.9605,1.9605,1.9977,2.0302,2.0571,2.0944,2.14,2.1925,-0.2824,-0.2824,-0.2824,-0.2824,-0.3061,-0.3139,-0.2824,-0.3372,-0.3686,-0.3295,-0.3297,-0.3297,-0.3297,-0.2588,-0.2116,-0.2116,-0.2273,-0.1959,-0.094,-0.0314,0.0235,0.0785,0.11,0.1335,0.1335,0.1335,0.1335,0.1335,0.1335,0.1335,0.1335,0.1335,0.1335,0.1335,0.1335,0.1335,0.1335,0.1335,0.1335,0.1335,0.1335,0.1335,0.1335,0.1335,0.1335,0.1335,0.1335,0.1728,0.2196,0.1883,0.2195,0.2586,0.2275,0.2588,0.2976,0.282,0.3443,0.43,0.4999,0.5696,0.616,0.616,0.6071,0.6037,0.6248,0.6327,0.6379,0.6471,0.6349,0.6251,0.6251,0.5857,0.5622,0.5622,0.5699,0.5625,0.5004,0.4924,0.4691,0.4077,0.3921,0.3763,0.3763,0.3763,0.3763,0.3763,0.3763,0.3841,0.3843,0.4148,0.4844,0.6002,0.5696,0.6458,0.8277,0.7973,0.9241,1.1924,1.2802,1.4109,1.5632,1.6298,1.7226,1.8269,1.8269,1.8607,1.9131,1.9473,1.9473,1.9274,1.9846,1.9977,1.9933,2.07,2.121,2.1588,-0.2511,-0.2511,-0.2511,-0.2511,-0.2668,-0.2746,-0.2511,-0.2902,-0.3137,-0.2826,-0.2826,-0.2826,-0.2826,-0.1882,-0.1175,-0.0862,-0.1019,-0.0784,-0.0078,0.0471,0.0943,0.1257,0.1335,0.1414,0.1569,0.1569,0.1649,0.1884,0.1884,0.1727,0.1569,0.1569,0.1492,0.1335,0.1335,0.1335,0.1335,0.1335,0.1335,0.1335,0.1335,0.1335,0.1335,0.1492,0.1569,0.1569,0.1805,0.2275,0.2823,0.2352,0.2665,0.3212,0.2978,0.329,0.3756,0.4139,0.4608,0.5231,0.6009,0.6553,0.6923,0.6923,0.6841,0.676,0.6972,0.7151,0.72,0.722,0.7211,0.7253,0.7253,0.7169,0.7007,0.7007,0.6934,0.678,0.6314,0.6079,0.5693,0.4851,0.4696,0.4616,0.4616,0.4231,0.4075,0.446,0.4073,0.3763,0.3763,0.3921,0.4231,0.4771,0.4618,0.516,0.6388,0.6923,0.8206,1.0157,1.1341,1.2882,1.4775,1.5587,1.6724,1.8056,1.8056,1.8395,1.9008,1.9142,1.9208,1.9131,1.9518,1.966,1.9671,2.0377,2.0944,2.1388,-0.2511,-0.2511,-0.2511,-0.2511,-0.2511,-0.251,-0.2431,-0.2431,-0.2431,-0.2433,-0.2433,-0.2354,-0.2196,-0.1332,-0.047,0.0157,0.0471,0.0628,0.0628,0.1178,0.1492,0.1492,0.1492,0.1649,0.196,0.196,0.2195,0.2511,0.2511,0.2353,0.196,0.196,0.1804,0.1492,0.1492,0.1492,0.1492,0.1492,0.1492,0.1492,0.1492,0.1492,0.1492,0.1883,0.196,0.2038,0.251,0.3057,0.3524,0.3057,0.3212,0.368,0.3759,0.399,0.4533,0.5693,0.6005,0.6086,0.6784,0.7015,0.6965,0.697,0.6931,0.6988,0.7128,0.7405,0.7526,0.743,0.7836,0.8178,0.8178,0.8479,0.8703,0.8703,0.8318,0.8012,0.7859,0.7387,0.6769,0.5928,0.5699,0.5622,0.5774,0.4929,0.4618,0.5306,0.4538,0.3995,0.3919,0.4077,0.4077,0.3919,0.4229,0.454,0.4779,0.6093,0.7242,0.8309,0.9938,1.179,1.378,1.4807,1.6158,1.7638,1.7706,1.8114,1.8741,1.8808,1.8942,1.9075,1.9075,1.9274,1.9605,2.0172,2.0613,2.1135,-0.2431,-0.2511,-0.2511,-0.2511,-0.2511,-0.2431,-0.2275,-0.2275,-0.2198,-0.2043,-0.1964,-0.1727,-0.094,-0.0313,0.047,0.1254,0.1882,0.2196,0.2196,0.2276,0.2276,0.2276,0.2276,0.2354,0.2431,0.2431,0.2431,0.2511,0.2511,0.2431,0.2431,0.2431,0.2354,0.2276,0.2276,0.2276,0.2276,0.2276,0.2276,0.2276,0.2276,0.2276,0.2353,0.2353,0.2431,0.251,0.3057,0.3756,0.4533,0.4613,0.4771,0.5007,0.5234,0.5312,0.5544,0.6247,0.7099,0.7638,0.7484,0.7407,0.7366,0.7161,0.7302,0.7486,0.7877,0.7989,0.8124,0.844,0.8528,0.8627,0.8627,0.8627,0.8703,0.8703,0.8937,0.8861,0.8161,0.8075,0.7846,0.7084,0.6163,0.5851,0.6535,0.5851,0.5389,0.5544,0.5389,0.5004,0.4307,0.4307,0.4307,0.4307,0.4384,0.4696,0.5165,0.5634,0.6405,0.7633,0.8604,1.0387,1.2743,1.378,1.5367,1.7304,1.7569,1.7988,1.8549,1.8741,1.8942,1.9075,1.9075,1.9131,1.9274,1.9911,2.0366,2.0828,-0.2199,-0.2199,-0.2199,-0.2199,-0.2199,-0.212,-0.2042,-0.2042,-0.2042,-0.1887,-0.1492,-0.1019,-0.0627,0.0548,0.1487,0.1879,0.2743,0.3215,0.3215,0.2744,0.2511,0.2511,0.2511,0.2589,0.2826,0.3059,0.3215,0.3215,0.3215,0.3059,0.2826,0.2826,0.2746,0.2511,0.2511,0.2511,0.2511,0.2511,0.2511,0.2511,0.2511,0.2511,0.2511,0.2746,0.2826,0.2904,0.3761,0.4538,0.5231,0.5544,0.5931,0.6395,0.6703,0.6777,0.6934,0.7553,0.7868,0.8102,0.8169,0.8094,0.7952,0.7897,0.7902,0.8042,0.8255,0.834,0.8472,0.8661,0.8856,0.9013,0.9013,0.916,0.9311,0.9311,0.9468,0.9463,0.9155,0.915,0.8922,0.8084,0.7544,0.7238,0.7153,0.6773,0.6468,0.6468,0.6311,0.5925,0.5231,0.5312,0.5237,0.4929,0.4774,0.4929,0.5479,0.5792,0.6409,0.7322,0.8609,1.0392,1.267,1.3787,1.5446,1.7392,1.752,1.7862,1.8414,1.8549,1.8741,1.8942,1.9075,1.9198,1.9396,1.9911,2.0366,2.0839,-0.1886,-0.1887,-0.1887,-0.1887,-0.1887,-0.1887,-0.1808,-0.1808,-0.1808,-0.1729,-0.102,-0.0392,-0.0157,0.133,0.2348,0.2582,0.329,0.3763,0.3763,0.3137,0.2824,0.2824,0.2824,0.2981,0.3219,0.3608,0.3763,0.3763,0.3763,0.3608,0.3297,0.3297,0.3061,0.2824,0.2824,0.2824,0.2824,0.2824,0.2824,0.2824,0.2824,0.2824,0.2824,0.3139,0.3374,0.3761,0.4696,0.547,0.616,0.6623,0.7011,0.7395,0.7859,0.7936,0.7936,0.8546,0.8556,0.8399,0.8571,0.8552,0.8448,0.85,0.8514,0.8548,0.8621,0.8822,0.8944,0.8993,0.9241,0.9473,0.9473,0.9695,0.9922,0.9922,0.9922,0.9922,0.9922,0.9922,0.969,0.9084,0.8775,0.8542,0.8075,0.7774,0.7544,0.7621,0.746,0.7076,0.6461,0.6391,0.6089,0.5553,0.5318,0.5473,0.6018,0.6257,0.6868,0.7846,0.9059,1.0765,1.2889,1.4148,1.5604,1.7254,1.7401,1.7735,1.8202,1.8337,1.8617,1.8808,1.8942,1.9274,1.9671,1.9977,2.0431,2.0967,-0.1887,-0.1887,-0.1887,-0.1887,-0.1887,-0.1808,-0.165,-0.165,-0.1572,-0.1336,-0.0549,0.0235,0.1097,0.196,0.2823,0.3606,0.3763,0.3763,0.3763,0.3763,0.3684,0.3684,0.3684,0.3684,0.3763,0.3763,0.3763,0.3763,0.3763,0.3763,0.3763,0.3763,0.3763,0.3684,0.3684,0.3684,0.3684,0.3684,0.3684,0.3684,0.3684,0.3684,0.3684,0.3763,0.4304,0.5229,0.5854,0.678,0.7706,0.8318,0.8165,0.7859,0.847,0.8241,0.7936,0.8546,0.8937,0.9125,0.8551,0.8548,0.866,0.8714,0.8831,0.9056,0.9431,0.952,0.959,0.9798,0.9846,0.9841,0.9841,0.9846,0.9922,0.9922,0.9922,0.9922,0.9922,0.9922,0.9846,0.9841,0.916,0.9003,0.969,0.9003,0.8699,0.8846,0.8846,0.8542,0.8003,0.7246,0.6637,0.6257,0.5944,0.6321,0.7387,0.6865,0.7625,0.9664,0.9804,1.0977,1.3114,1.4355,1.5455,1.6421,1.7185,1.7598,1.7774,1.8134,1.8539,1.8808,1.8808,1.9142,1.9671,1.9977,2.0431,2.0967,-0.1455,-0.1459,-0.1467,-0.1489,-0.1493,-0.1493,-0.1415,-0.1415,-0.1415,-0.1335,-0.0078,0.094,0.1254,0.2507,0.345,0.3763,0.3763,0.3763,0.3763,0.3763,0.3763,0.3763,0.3763,0.3763,0.3763,0.3763,0.3763,0.3763,0.3763,0.3763,0.3763,0.3763,0.3763,0.3841,0.3921,0.3921,0.3841,0.4075,0.4075,0.3999,0.4153,0.4151,0.4229,0.4693,0.5157,0.5619,0.6777,0.7472,0.7936,0.8784,0.8937,0.878,0.9311,0.9311,0.9155,0.9387,0.9544,0.9599,0.936,0.9401,0.9422,0.9474,0.9501,0.9564,0.9713,0.9787,0.9814,0.99,0.9922,0.9922,0.9922,0.9997,1.0067,1.0067,1.0218,1.0293,1.0293,1.0293,1.0293,1.0293,0.9916,0.9533,0.9382,0.9533,0.9458,0.8998,0.9609,0.9679,0.9064,0.8389,0.7783,0.7253,0.7246,0.7468,0.7851,0.7923,0.8609,0.9895,1.1075,1.2245,1.3484,1.4871,1.6035,1.7047,1.7401,1.7666,1.793,1.8269,1.8482,1.8617,1.8875,1.933,1.9911,2.0042,2.0506,2.1094,-0.1194,-0.1198,-0.1204,-0.1225,-0.1305,-0.1232,-0.1241,-0.1243,-0.1246,-0.1334,0.0235,0.1332,0.1332,0.2821,0.3763,0.3763,0.3763,0.3763,0.3763,0.3843,0.3843,0.3841,0.3763,0.3763,0.3763,0.3763,0.3841,0.3921,0.3921,0.3919,0.3997,0.3997,0.3997,0.3997,0.4155,0.4155,0.3997,0.4307,0.4309,0.4233,0.4307,0.4384,0.4462,0.5312,0.5777,0.6237,0.7548,0.8161,0.8546,0.9241,0.9473,0.9549,0.9846,0.9922,0.9992,1.0067,1.0067,1.0067,1.0067,1.0067,1.0067,0.9992,1.0067,1.0067,1.0067,1.0067,1.0067,1.0067,1.0067,1.0067,1.0067,1.0218,1.0293,1.0293,1.0443,1.0513,1.0513,1.0513,1.0513,1.0513,1.0368,1.0062,0.9528,0.9986,1.0137,0.9679,1.0282,1.0432,0.9895,0.9523,0.8993,0.8461,0.8613,0.8836,0.9216,0.8912,0.9513,1.087,1.2111,1.3208,1.4155,1.5392,1.6473,1.7332,1.747,1.7676,1.8008,1.8347,1.8482,1.8617,1.8875,1.9396,1.9977,2.0042,2.0506,2.1031,-0.1166,-0.1166,-0.1166,-0.1166,-0.1166,-0.1176,-0.1207,-0.1211,-0.1222,-0.1253,0.0235,0.1332,0.1332,0.2821,0.3763,0.3763,0.3763,0.3841,0.3841,0.3999,0.3999,0.3841,0.3841,0.3841,0.3841,0.3841,0.3921,0.4079,0.4079,0.4233,0.4384,0.4384,0.4384,0.4384,0.4384,0.4384,0.4384,0.4384,0.4384,0.4384,0.4384,0.4384,0.4538,0.5312,0.6314,0.7314,0.8152,0.9074,0.9922,0.9922,0.9922,0.9922,0.9922,1.0067,1.0218,1.0443,1.0513,1.0513,1.0513,1.0513,1.0443,1.0218,1.0368,1.0513,1.0513,1.0513,1.0513,1.0513,1.0513,1.0513,1.0513,1.0513,1.0513,1.0513,1.0513,1.0513,1.0513,1.0513,1.0513,1.0513,1.0513,1.0513,1.0513,1.0513,1.0663,1.1037,1.1111,1.0956,1.0565,1.049,1.034,0.9895,0.9895,1.0496,1.1706,0.99,1.0346,1.2893,1.307,1.378,1.4974,1.5842,1.6482,1.6908,1.7332,1.7676,1.8008,1.8202,1.8472,1.8808,1.8808,1.9142,1.9671,1.9977,2.0302,2.07,-0.113,-0.1134,-0.1141,-0.1163,-0.1166,-0.117,-0.1179,-0.118,-0.1035,-0.0521,0.0605,0.1528,0.1986,0.3103,0.3843,0.3999,0.3999,0.4077,0.4229,0.4307,0.4307,0.4229,0.4229,0.4229,0.4229,0.4229,0.4229,0.4309,0.4309,0.4307,0.4384,0.4384,0.4384,0.4384,0.4543,0.4543,0.4384,0.4701,0.4779,0.4621,0.4779,0.5165,0.5777,0.6619,0.7464,0.8389,0.9155,0.9614,0.9916,1.0067,1.0143,1.0143,1.0293,1.0368,1.0443,1.0519,1.0513,1.0513,1.0513,1.0594,1.0663,1.0438,1.0438,1.0513,1.0513,1.0513,1.0513,1.0513,1.0513,1.0513,1.0513,1.0588,1.0738,1.0738,1.0812,1.0887,1.0887,1.0887,1.0887,1.0887,1.0812,1.0738,1.0738,1.0812,1.0962,1.1111,1.1335,1.1484,1.1329,1.1323,1.1174,1.0732,1.1013,1.1459,1.2131,1.1755,1.2198,1.3542,1.425,1.4895,1.5551,1.6061,1.6621,1.7107,1.7392,1.7598,1.7852,1.8269,1.8482,1.8617,1.8875,1.9274,1.9671,1.9977,2.0302,2.0635,-0.1101,-0.1104,-0.111,-0.1129,-0.1132,-0.1136,-0.1147,-0.1149,-0.0865,0.0073,0.1032,0.186,0.2456,0.3321,0.3962,0.4038,0.4076,0.419,0.4382,0.4462,0.454,0.454,0.4621,0.4543,0.4384,0.4384,0.4462,0.454,0.454,0.4543,0.4621,0.4621,0.4621,0.4621,0.4779,0.4779,0.4621,0.4859,0.509,0.5318,0.5398,0.5935,0.6853,0.777,0.8385,0.8927,0.9836,1.0143,1.0143,1.0293,1.0293,1.0368,1.0588,1.0588,1.0663,1.0812,1.0887,1.0887,1.0962,1.1037,1.1111,1.1037,1.0887,1.0738,1.0738,1.0738,1.0738,1.0738,1.0738,1.0738,1.0738,1.0887,1.1037,1.1037,1.1186,1.1335,1.1335,1.1335,1.1335,1.1335,1.126,1.1186,1.1186,1.126,1.1335,1.1484,1.1781,1.2003,1.2077,1.2077,1.2003,1.1929,1.2144,1.2498,1.3011,1.323,1.3608,1.3977,1.4919,1.5488,1.5833,1.6263,1.6682,1.7235,1.7314,1.752,1.7852,1.8144,1.8414,1.8607,1.8875,1.9142,1.9473,1.9791,2.0107,2.0431,-0.1079,-0.1079,-0.1079,-0.1079,-0.1079,-0.102,-0.1044,-0.1047,-0.0634,0.0577,0.1521,0.2319,0.2822,0.3557,0.4003,0.4003,0.4165,0.4261,0.4428,0.46,0.4686,0.4686,0.4932,0.4857,0.4462,0.4462,0.4543,0.4701,0.4701,0.4857,0.5093,0.5093,0.5093,0.5093,0.5093,0.5093,0.5018,0.5093,0.5553,0.624,0.6318,0.685,0.777,0.8689,0.9074,0.9226,1.0137,1.0513,1.0513,1.0513,1.0519,1.0588,1.0812,1.0887,1.0962,1.1335,1.1409,1.1484,1.1632,1.1706,1.1706,1.1706,1.1409,1.1186,1.1186,1.1186,1.1186,1.1186,1.1186,1.1186,1.1186,1.1335,1.1409,1.1409,1.1558,1.1706,1.1706,1.1706,1.1706,1.1706,1.1706,1.1706,1.1706,1.1706,1.1855,1.2003,1.2224,1.2452,1.2599,1.2599,1.282,1.3266,1.3266,1.3557,1.4201,1.4561,1.4633,1.441,1.5141,1.5638,1.5833,1.6324,1.6811,1.7166,1.7235,1.752,1.8008,1.8008,1.8347,1.8741,1.8808,1.8942,1.9142,1.9473,1.9791,2.0172,-0.1012,-0.0877,-0.0607,-0.0607,-0.0607,-0.0608,-0.0611,-0.0612,-0.0204,0.0887,0.1809,0.2752,0.3596,0.388,0.4077,0.4225,0.446,0.463,0.4654,0.4745,0.4795,0.4795,0.4889,0.4937,0.4859,0.4859,0.4859,0.4937,0.4937,0.5246,0.5935,0.5935,0.5935,0.5935,0.5935,0.5553,0.5015,0.5705,0.6163,0.6465,0.7153,0.8071,0.8917,0.9145,0.9604,1.0212,1.0438,1.0513,1.0513,1.0663,1.0812,1.1037,1.1186,1.126,1.1335,1.1558,1.1632,1.1632,1.1706,1.1706,1.1706,1.1706,1.1632,1.1558,1.1558,1.1558,1.1558,1.1558,1.1558,1.1558,1.1558,1.1632,1.1632,1.1632,1.1706,1.1706,1.1706,1.1706,1.1706,1.1706,1.1706,1.1706,1.1706,1.2009,1.2231,1.2452,1.2673,1.2826,1.282,1.282,1.3112,1.3615,1.3905,1.4338,1.4991,1.5488,1.5488,1.4982,1.5505,1.5929,1.6202,1.6342,1.6682,1.7235,1.7392,1.7588,1.7784,1.8134,1.8347,1.8549,1.8741,1.8942,1.9142,1.9473,1.9791,2.0161,-0.0539,-0.0674,-0.0674,-0.0337,-0.027,-0.027,-0.027,0.0876,0.1749,0.1609,0.2649,0.3569,0.4049,0.4102,0.4227,0.4351,0.4496,0.4662,0.472,0.4713,0.4749,0.4749,0.4809,0.4844,0.4844,0.4974,0.5032,0.5018,0.5018,0.5401,0.6163,0.6314,0.6542,0.7003,0.7084,0.6857,0.6475,0.693,0.7387,0.7842,0.83,0.9064,0.9906,0.9981,1.0282,1.0663,1.0738,1.0887,1.0962,1.1037,1.1186,1.1409,1.1484,1.1558,1.1558,1.1781,1.1855,1.1855,1.1929,1.2003,1.2003,1.2003,1.2003,1.1929,1.1706,1.1706,1.1706,1.1706,1.1706,1.1706,1.1706,1.1781,1.1855,1.1855,1.1929,1.2003,1.2003,1.2003,1.2003,1.2003,1.2003,1.2003,1.215,1.2298,1.2526,1.2753,1.2826,1.2973,1.3046,1.3046,1.3331,1.3905,1.4122,1.4553,1.5196,1.5488,1.563,1.563,1.5991,1.6272,1.6473,1.6551,1.676,1.7038,1.7245,1.7451,1.7657,1.792,1.8202,1.8482,1.8617,1.8808,1.9142,1.9274,1.9649,2.0172,-0.0067,-0.0472,-0.0742,-0.0135,-0.0,-0.0,-0.0,0.2427,0.3847,0.2619,0.3558,0.43,0.43,0.43,0.4338,0.4433,0.4439,0.4485,0.4657,0.4682,0.4693,0.4693,0.4715,0.4726,0.4726,0.4967,0.5084,0.4985,0.5085,0.5553,0.6549,0.6696,0.723,0.8067,0.8228,0.8232,0.808,0.8232,0.8689,0.9372,0.9528,0.9981,1.0588,1.0812,1.0887,1.0887,1.1111,1.126,1.1484,1.1484,1.1558,1.1706,1.1706,1.1781,1.1781,1.2003,1.2077,1.2077,1.2231,1.2305,1.2305,1.2305,1.2305,1.2224,1.1855,1.1781,1.1781,1.1781,1.1781,1.1781,1.1781,1.1929,1.2077,1.2077,1.2231,1.2378,1.2378,1.2378,1.2378,1.2378,1.2378,1.2452,1.2673,1.2673,1.2746,1.2973,1.2973,1.3046,1.3273,1.3339,1.363,1.4201,1.4274,1.4633,1.5275,1.5346,1.563,1.6132,1.6473,1.6603,1.6603,1.676,1.6908,1.6968,1.7176,1.7382,1.7529,1.7716,1.8056,1.8482,1.8482,1.8751,1.9142,1.9131,1.9584,2.0172,-0.0,-0.0067,-0.0135,-0.0,-0.0,-0.0,-0.0,0.2427,0.4258,0.4043,0.4169,0.43,0.43,0.43,0.4306,0.4322,0.4322,0.433,0.4346,0.4439,0.4496,0.4496,0.4742,0.4873,0.4873,0.5101,0.5173,0.5078,0.5345,0.6325,0.7851,0.7851,0.8304,0.9069,0.9145,0.8765,0.8156,0.8841,0.9296,0.9599,1.0357,1.0738,1.1037,1.1037,1.1037,1.1111,1.126,1.1484,1.1632,1.1632,1.1706,1.1706,1.1929,1.1929,1.2003,1.2224,1.2224,1.2305,1.2298,1.2305,1.2305,1.2305,1.2305,1.2298,1.2224,1.2231,1.2231,1.2231,1.2231,1.2231,1.2231,1.2224,1.2224,1.2224,1.2452,1.2526,1.2526,1.2673,1.2826,1.2826,1.2826,1.282,1.2893,1.3046,1.3119,1.3193,1.3346,1.3419,1.3492,1.3775,1.4129,1.4497,1.4848,1.5284,1.5726,1.5991,1.6202,1.6272,1.6691,1.676,1.6603,1.6603,1.6821,1.7166,1.7392,1.752,1.7716,1.7862,1.8144,1.8482,1.8482,1.8751,1.9142,1.9407,1.9791,2.0172,-0.0,-0.0,-0.0,-0.0,-0.0,-0.0,-0.0,0.1749,0.3366,0.4177,0.4306,0.43,0.43,0.43,0.43,0.43,0.43,0.4364,0.4431,0.4546,0.4574,0.4645,0.4768,0.487,0.487,0.5148,0.5213,0.5203,0.5705,0.6634,0.7992,0.8514,0.9255,1.0132,1.0282,1.0126,0.9825,1.0126,1.0351,1.0507,1.0807,1.1037,1.1111,1.1186,1.126,1.126,1.1484,1.1706,1.1855,1.1855,1.1929,1.2077,1.215,1.215,1.2224,1.2378,1.2452,1.2526,1.2599,1.2673,1.2673,1.2673,1.2673,1.2673,1.2673,1.2673,1.2599,1.2378,1.2305,1.2305,1.2452,1.2452,1.2526,1.2599,1.2673,1.2746,1.2746,1.2826,1.29,1.29,1.29,1.2973,1.3046,1.2963,1.3071,1.3364,1.3264,1.3382,1.3846,1.3995,1.4364,1.4911,1.5213,1.5568,1.5929,1.6202,1.6342,1.6473,1.6396,1.6542,1.676,1.689,1.7028,1.7235,1.751,1.7647,1.7706,1.794,1.8144,1.8414,1.8482,1.8751,1.9142,1.9274,1.966,2.0107]},{"header":{"parameterUnit":"m.s-1","parameterCategory":1,"la1":30.6,"la2":28.766,"lo1":-90.7593,"lo2":-88.6598,"dy":0.0162,"dx":0.0183,"nx":116,"ny":114,"refTime":"2023-06-27T06:00:00:Z","depth":0,"parameterNumber":3,"parameterNumberName":"V-component_of_WINDS"},"data":[0.0,0.0,0.0,0.0,0.0,0.0,0.0,0.0,0.0,0.0,0.0,0.0,0.0,0.0,0.0,0.0,0.0,0.0,0.0,0.0,0.0,0.0,0.0,0.0,0.0,0.0,0.0,0.0,0.0,0.0,0.0,0.0,0.0,0.0,0.0,0.0,0.0,0.0,0.0,0.0,0.0,0.0,0.0,0.0,0.0,0.0,0.0,0.0,0.0,0.0,0.0,0.0,0.0,0.0,0.0,0.0,0.0,0.0,0.0,0.0,0.0,0.0,0.0,0.0,0.0,0.0,0.0,0.0,0.0,0.0,0.0,0.0,0.0,0.0,0.0,0.0,0.0,0.0,0.0,0.0,0.0,0.0,0.0,0.0,0.0,0.0,0.0,0.0,0.0,0.0,0.0,0.0,0.0,0.0,0.0,0.0,0.0,0.0,0.0,0.0,0.0,0.0,0.0,0.0,0.0,0.0,0.0,0.0,0.0,0.0,0.0,0.0,0.0,0.0,0.0,0.0,0.0,0.0,0.0,0.0,0.0,0.0,0.0,0.0,0.0,0.0,0.0,0.0,0.0,0.0,0.0,0.0,0.0,0.0,0.0,0.0,0.0,0.0,0.0,0.0,0.0,0.0,0.0,0.0,0.0,0.0,0.0,0.0,0.0,0.0,0.0,0.0,0.0,0.0,0.0,0.0,0.0,0.0,0.0,0.0,0.0,0.0,0.0,0.0,0.0,0.0,0.0,0.0,0.0,0.0,0.0,0.0,0.0,0.0,0.0,0.0,0.0,0.0,0.0,0.0,0.0,0.0,0.0,0.0,0.0,0.0,0.0,0.0,0.0,0.0,0.0,0.0,0.0,0.0,0.0,0.0,0.0,0.0,0.0,0.0,0.0,0.0,0.0,0.0,0.0,0.0,0.0,0.0,0.0,0.0,0.0,0.0,0.0,0.0,0.0,0.0,0.0,0.0,0.0,0.0,0.0,0.0,0.0,0.0,0.0,0.0,0.0,0.0,0.0,0.0,0.0,0.0,0.0,0.0,0.0,0.0,0.0,0.0,0.0,0.0,0.0,0.0,0.0,0.0,0.0,0.0,0.0,0.0,0.0,0.0,0.0,0.0,0.0,0.0,0.0,0.0,0.0,0.0,0.0,0.0,0.0,0.0,0.0,0.0,0.0,0.0,0.0,0.0,0.0,0.0,0.0,0.0,0.0,0.0,0.0,0.0,0.0,0.0,0.0,0.0,0.0,0.0,0.0,0.0,0.0,0.0,0.0,0.0,0.0,0.0,0.0,0.0,0.0,0.0,0.0,0.0,0.0,0.0,0.0,0.0,0.0,0.0,0.0,0.0,0.0,0.0,0.0,0.0,0.0,0.0,0.0,0.0,0.0,0.0,0.0,0.0,0.0,0.0,0.0,0.0,0.0,0.0,0.0,0.0,0.0,0.0,0.0,0.0,0.0,0.0,0.0,0.0,0.0,0.0,0.0,0.0,0.0,0.0,0.0,0.0,0.0,0.0,0.0,0.0,0.0,0.0,0.0,0.0,0.0,0.0,0.0,0.0,0.0,0.0,0.0,0.0,0.0,0.0,0.0,0.0,0.0,0.0,0.0,0.0,0.0,0.0,0.0,0.0,0.0,0.0,0.0,0.0,0.0,0.0,0.0,0.0,0.0,0.0,0.0,0.0,0.0,0.0,0.0,0.0,0.0,0.0,0.0,0.0,0.0,0.0,0.0,0.0,0.0,0.0,0.0,0.0,0.0,0.0,0.0,0.0,0.0,0.0,0.0,0.0,0.0,0.0,0.0,0.0,0.0,0.0,0.0,0.0,0.0,0.0,0.0,0.0,0.0,0.0,0.0,0.0,0.0,0.0,0.0,0.0,0.0,0.0,0.0,0.0,0.0,0.0,0.0,0.0,0.0,0.0,0.0,0.0,0.0,0.0,0.0,0.0,0.0,0.0,0.0,0.0,0.0,0.0,0.0,0.0,0.0,0.0,0.0,0.0,0.0,0.0,0.0,0.0,0.0,0.0,0.0,0.0,0.0,0.0,0.0,0.0,0.0,0.0,0.0,0.0,0.0,0.0,0.0,0.0,0.0,0.0,0.0,0.0,0.0,0.0,0.0,0.0,0.0,0.0,0.0,0.0,0.0,0.0,0.0,0.0,0.0,0.0,0.0,0.0,0.0,0.0,0.0,0.0,0.0,0.0,0.0,0.0,0.0,0.0,0.0,0.0,0.0,0.0,0.0,0.0,0.0,0.0,0.0,0.0,0.0,0.0,0.0,0.0,0.0,0.0,0.0,0.0,0.0,0.0,0.0,0.0,0.0,0.0,0.0,0.0,0.0,0.0,0.0,0.0,0.0,0.0,0.0,0.0,0.0,0.0,0.0,0.0,0.0,0.0,0.0,0.0,0.0,0.0,0.0,0.0,0.0,0.0,0.0,0.0,0.0,0.0,0.0,0.0,0.0,0.0,0.0,0.0,0.0,0.0,0.0,0.0,0.0,0.0,0.0,0.0,0.0,0.0,0.0,0.0,0.0,0.0,0.0,0.0,0.0,0.0,0.0,0.0,0.0,0.0,0.0,0.0,0.0,0.0,0.0,0.0,0.0,0.0,0.0,0.0,0.0,0.0,0.0,0.0,0.0,0.0,0.0,0.0,0.0,0.0,0.0,0.0,0.0,0.0,0.0,0.0,0.0,0.0,0.0,0.0,0.0,0.0,0.0,0.0,0.0,0.0,0.0,0.0,0.0,0.0,0.0,0.0,0.0,0.0,0.0,0.0,0.0,0.0,0.0,0.0,0.0,0.0,0.0,0.0,0.0,0.0,0.0,0.0,0.0,0.0,0.0,0.0,0.0,0.0,0.0,0.0,0.0,0.0,0.0,0.0,0.0,0.0,0.0,0.0,0.0,0.0,0.0,0.0,0.0,0.0,0.0,0.0,0.0,0.0,0.0,0.0,0.0,0.0,0.0,0.0,0.0,0.0,0.0,0.0,0.0,0.0,0.0,0.0,0.0,0.0,0.0,0.0,0.0,0.0,0.0,0.0,0.0,0.0,0.0,0.0,0.0,0.0,0.0,0.0,0.0,0.0,0.0,0.0,0.0,0.0,0.0,0.0,0.0,0.0,0.0,0.0,0.0,0.0,0.0,0.0,0.0,0.0,0.0,0.0,0.0,0.0,0.0,0.0,0.0,0.0,0.0,0.0,0.0,0.0,0.0,0.0,0.0,0.0,0.0,0.0,0.0,0.0,0.0,0.0,0.0,0.0,0.0,0.0,0.0,0.0,0.0,0.0,0.0,0.0,0.0,0.0,0.0,0.0,0.0,0.0,0.0,0.0,0.0,0.0,0.0,0.0,0.0,0.0,0.0,0.0,0.0,0.0,0.0,0.0,0.0,0.0,0.0,0.0,0.0,0.0,0.0,0.0,0.0,0.0,0.0,0.0,0.0,0.0,0.0,0.0,0.0,0.0,0.0,0.0,0.0,0.0,0.0,0.0,0.0,0.0,0.0,0.0,0.0,0.0,0.0,0.0,0.0,0.0,0.0,0.0,0.0,0.0,0.0,0.0,0.0,0.0,0.0,0.0,0.0,0.0,0.0,0.0,0.0,0.0,0.0,0.0,0.0,0.0,0.0,0.0,0.0,0.0,0.0,0.0,0.0,0.0,0.0,0.0,0.0,0.0,0.0,0.0,0.0,0.0,0.0,0.0,0.0,0.0,0.0,0.0,0.0,0.0,0.0,0.0,0.0,0.0,0.0,0.0,0.0,0.0,0.0,0.0,0.0,0.0,0.0,0.0,0.0,0.0,0.0,0.0,0.0,0.0,0.0,0.0,0.0,0.0,0.0,0.0,0.0,0.0,0.0,0.0,0.0,0.0,0.0,0.0,0.0,0.0,0.0,0.0,0.0,0.0,0.0,0.0,0.0,0.0,0.0,0.0,0.0,0.0,0.0,0.0,0.0,0.0,0.0,0.0,0.0,0.0,0.0,0.0,0.0,0.0,0.0,0.0,0.0,0.0,0.0,0.0,0.0,0.0,0.0,0.0,0.0,0.0,0.0,0.0,0.0,0.0,0.0,0.0,0.0,0.0,0.0,0.0,0.0,0.0,0.0,0.0,0.0,0.0,0.0,0.0,0.0,0.0,0.0,0.0,0.0,0.0,0.0,0.0,0.0,0.0,0.0,0.0,0.0,0.0,0.0,0.0,0.0,0.0,0.0,0.0,0.0,0.0,0.0,0.0,0.0,0.0,0.0,0.0,0.0,0.0,0.0,0.0,0.0,0.0,0.0,0.0,0.0,0.0,0.0,0.0,0.0,0.0,0.0,0.0,0.0,0.0,0.0,0.0,0.0,0.0,0.0,0.0,0.0,0.0,0.0,0.0,0.0,0.0,0.0,0.0,0.0,0.0,0.0,0.0,0.0,0.0,0.0,0.0,0.0,0.0,0.0,0.0,0.0,0.0,0.0,0.0,0.0,0.0,0.0,0.0,0.0,0.0,0.0,0.0,0.0,0.0,0.0,0.0,0.0,0.0,0.0,0.0,0.0,0.0,0.0,0.0,0.0,0.0,0.0,0.0,0.0,0.0,0.0,0.0,0.0,0.0,0.0,0.0,0.0,0.0,0.0,0.0,0.0,0.0,0.0,0.0,0.0,0.0,0.0,0.0,0.0,0.0,0.0,0.0,0.0,0.0,0.0,0.0,0.0,0.0,0.0,0.0,0.0,0.0,0.0,0.0,0.0,0.0,0.0,0.0,0.0,0.0,0.0,0.0,0.0,0.0,0.0,0.0,0.0,0.0,0.0,0.0,0.0,0.0,0.0,0.0,0.0,0.0,0.0,0.0,0.0,0.0,0.0,0.0,0.0,0.0,0.0,0.0,0.0,0.0,0.0,0.0,0.0,0.0,0.0,0.0,0.0,0.0,0.0,0.0,0.0,0.0,0.0,0.0,0.0,0.0,0.0,0.0,0.0,0.0,0.0,0.0,0.0,0.0,0.0,0.0,0.0,0.0,0.0,0.0,0.0,0.0,0.0,0.0,0.0,0.0,0.0,0.0,0.0,0.0,0.0,0.0,0.0,0.0,0.0,0.0,0.0,0.0,0.0,0.0,0.0,0.0,0.0,0.0,0.0,0.0,0.0,0.0,0.0,0.0,0.0,0.0,0.0,0.0,0.0,0.0,0.0,0.0,0.0,0.0,0.0,0.0,0.0,0.0,0.0,0.0,0.0,0.0,0.0,0.0,0.0,0.0,0.0,0.0,0.0,0.0,0.0,0.0,0.0,0.0,0.0,0.0,0.0,0.0,0.0,0.0,0.0,0.0,0.0,0.0,0.0,0.0,0.0,0.0,0.0,0.0,0.0,0.0,0.0,0.0,0.0,0.0,0.0,0.0,0.0,0.0,0.0,0.0,0.0,0.0,0.0,0.0,0.0,0.0,0.0,0.0,0.0,0.0,0.0,0.0,0.0,0.0,0.0,0.0,0.0,0.0,0.0,0.0,0.0,0.0,0.0,0.0,0.0,0.0,0.0,0.0,0.0,0.0,0.0,0.0,0.0,0.0,0.0,0.0,0.0,0.0,0.0,0.0,0.0,0.0,0.0,0.0,0.0,0.0,0.0,0.0,0.0,0.0,0.0,0.0,0.0,0.0,0.0,0.0,0.0,0.0,0.0,0.0,0.0,0.0,0.0,0.0,0.0,0.0,0.0,0.0,0.0,0.0,0.0,0.0,0.0,0.0,0.0,0.0,0.0,0.0,0.0,0.0,0.0,0.0,0.0,0.0,0.0,0.0,0.0,0.0,0.0,0.0,0.0,0.0,0.0,0.0,0.0,0.0,0.0,0.0,0.0,0.0,0.0,0.0,0.0,0.0,0.0,0.0,0.0,0.0,0.0,0.0,0.0,0.0,0.0,0.0,0.0,0.0,0.0,0.0,0.0,0.0,0.0,0.0,0.0,0.0,0.0,0.0,0.0,0.0,0.0,0.0,0.0,0.0,0.0,0.0,0.0,0.0,0.0,0.0,0.0,0.0,0.0,0.0,0.0,0.0,0.0,0.0,0.0,0.0,0.0,0.0,0.0,0.0,0.0,0.0,0.0,0.0,0.0,0.0,-3.5855,-3.6291,0.0,0.0,0.0,0.0,0.0,0.0,0.0,0.0,0.0,0.0,0.0,0.0,0.0,0.0,0.0,0.0,0.0,0.0,0.0,0.0,0.0,0.0,0.0,0.0,0.0,0.0,0.0,0.0,0.0,0.0,0.0,0.0,0.0,0.0,0.0,0.0,0.0,0.0,0.0,0.0,0.0,0.0,0.0,0.0,0.0,0.0,0.0,0.0,0.0,0.0,0.0,0.0,0.0,0.0,0.0,0.0,0.0,0.0,0.0,0.0,0.0,0.0,0.0,0.0,0.0,0.0,0.0,0.0,0.0,0.0,0.0,0.0,0.0,0.0,0.0,0.0,0.0,0.0,0.0,0.0,0.0,0.0,0.0,0.0,0.0,0.0,0.0,0.0,0.0,0.0,0.0,0.0,0.0,0.0,0.0,0.0,0.0,0.0,0.0,0.0,0.0,0.0,0.0,0.0,0.0,0.0,0.0,0.0,0.0,0.0,0.0,0.0,0.0,0.0,-3.6097,-3.6629,0.0,0.0,0.0,0.0,0.0,0.0,0.0,0.0,0.0,0.0,0.0,0.0,0.0,0.0,0.0,0.0,0.0,0.0,0.0,0.0,0.0,0.0,0.0,0.0,0.0,0.0,0.0,0.0,0.0,0.0,0.0,0.0,0.0,0.0,0.0,0.0,0.0,0.0,0.0,0.0,0.0,0.0,0.0,0.0,0.0,0.0,0.0,0.0,0.0,0.0,0.0,0.0,0.0,0.0,0.0,0.0,0.0,0.0,0.0,0.0,0.0,0.0,0.0,0.0,0.0,0.0,0.0,0.0,0.0,0.0,0.0,0.0,0.0,0.0,0.0,0.0,0.0,0.0,0.0,0.0,0.0,0.0,0.0,0.0,0.0,0.0,0.0,0.0,0.0,0.0,0.0,0.0,0.0,0.0,0.0,0.0,0.0,0.0,0.0,0.0,0.0,0.0,0.0,0.0,0.0,0.0,0.0,0.0,-3.5691,-3.5579,-3.5543,-3.5325,-3.5082,-3.4974,-3.6592,-3.7178,-3.7071,-3.8608,0.0,0.0,0.0,0.0,0.0,0.0,0.0,0.0,0.0,0.0,0.0,0.0,0.0,0.0,0.0,0.0,0.0,0.0,0.0,0.0,0.0,0.0,0.0,0.0,0.0,0.0,0.0,0.0,0.0,0.0,0.0,0.0,0.0,0.0,0.0,0.0,0.0,0.0,0.0,-3.563,-3.5201,-3.4515,0.0,0.0,0.0,0.0,0.0,0.0,0.0,0.0,0.0,0.0,0.0,0.0,0.0,0.0,0.0,0.0,0.0,0.0,0.0,0.0,0.0,0.0,0.0,0.0,0.0,0.0,0.0,0.0,0.0,0.0,0.0,0.0,0.0,0.0,0.0,0.0,0.0,0.0,0.0,0.0,0.0,0.0,0.0,0.0,-3.8248,-3.8056,0.0,0.0,0.0,0.0,0.0,0.0,0.0,0.0,0.0,0.0,0.0,0.0,0.0,-3.787,-3.7858,-3.781,-3.7771,-3.7752,-3.7257,-3.7013,-3.7012,-3.6616,-3.6403,-3.6356,-3.7256,0.0,-3.6876,-3.7776,0.0,0.0,0.0,0.0,0.0,0.0,0.0,0.0,0.0,0.0,0.0,0.0,0.0,0.0,0.0,0.0,0.0,0.0,0.0,0.0,0.0,0.0,0.0,0.0,0.0,0.0,0.0,0.0,0.0,0.0,0.0,0.0,0.0,0.0,0.0,0.0,0.0,0.0,0.0,0.0,0.0,-3.3585,-3.3936,-3.4352,-3.4822,-3.5746,0.0,0.0,0.0,0.0,0.0,0.0,0.0,0.0,0.0,0.0,0.0,0.0,0.0,0.0,0.0,0.0,0.0,0.0,0.0,0.0,0.0,0.0,0.0,0.0,0.0,0.0,0.0,0.0,0.0,0.0,0.0,0.0,0.0,0.0,0.0,0.0,0.0,0.0,0.0,-3.9295,-3.8969,-3.8934,-3.8508,-3.8063,0.0,0.0,0.0,0.0,0.0,0.0,0.0,0.0,0.0,-3.8199,-3.8199,-3.8206,-3.8214,-3.817,-3.8132,-3.8092,-3.76,-3.7335,-3.7275,-3.6881,-3.6686,-3.6652,-3.697,-3.7236,-3.7567,-3.8109,-3.8635,-3.9045,0.0,0.0,0.0,0.0,-3.8386,-3.8285,0.0,0.0,0.0,0.0,0.0,0.0,0.0,0.0,0.0,0.0,0.0,0.0,0.0,0.0,0.0,0.0,0.0,0.0,0.0,0.0,0.0,0.0,0.0,0.0,0.0,0.0,0.0,0.0,0.0,0.0,0.0,0.0,0.0,0.0,0.0,-3.3692,-3.4314,-3.5222,-3.652,0.0,0.0,0.0,0.0,0.0,0.0,0.0,0.0,0.0,0.0,0.0,0.0,0.0,0.0,0.0,0.0,0.0,0.0,0.0,0.0,0.0,0.0,0.0,0.0,0.0,0.0,0.0,0.0,0.0,0.0,0.0,0.0,0.0,0.0,0.0,0.0,0.0,0.0,-4.0246,-3.9835,-3.9835,-3.9262,-3.8779,0.0,0.0,0.0,0.0,0.0,0.0,-3.8528,-3.8528,-3.8624,-3.8856,-3.8876,-3.8864,-3.8858,-3.8846,-3.8801,-3.8761,-3.832,-3.808,-3.8041,-3.7671,-3.7493,-3.7493,-3.7417,-3.7823,-3.8496,-3.8526,-3.8667,-3.8892,-3.8892,-3.8851,-3.8737,-3.8111,-3.7879,-3.7679,0.0,0.0,0.0,0.0,0.0,0.0,0.0,0.0,0.0,0.0,0.0,0.0,0.0,0.0,0.0,0.0,0.0,0.0,0.0,0.0,0.0,0.0,0.0,0.0,0.0,0.0,0.0,0.0,0.0,0.0,0.0,0.0,0.0,0.0,0.0,0.0,0.0,-3.5311,-3.626,-3.7298,0.0,0.0,0.0,0.0,0.0,0.0,0.0,0.0,0.0,0.0,0.0,0.0,0.0,0.0,0.0,0.0,0.0,0.0,0.0,0.0,0.0,0.0,0.0,0.0,0.0,0.0,0.0,0.0,0.0,0.0,0.0,0.0,0.0,0.0,0.0,0.0,0.0,0.0,0.0,-4.0732,-4.0694,0.0,0.0,0.0,0.0,-3.8257,-3.8199,-3.8566,-3.9391,-3.9429,-3.9804,-4.0636,-4.0674,-4.0674,-4.0674,-4.0597,-4.0565,-4.0571,-4.0216,-4.0059,-4.0041,-3.977,-3.9643,-3.9643,-3.9554,-3.9566,-3.9557,-3.8464,-3.8588,-3.9477,-3.9477,-3.9298,-3.9073,-3.9017,-3.8865,-3.8524,0.0,0.0,0.0,0.0,0.0,0.0,0.0,0.0,0.0,0.0,0.0,0.0,0.0,0.0,0.0,0.0,0.0,0.0,0.0,0.0,0.0,0.0,0.0,0.0,0.0,0.0,0.0,0.0,0.0,0.0,0.0,0.0,0.0,0.0,0.0,0.0,0.0,0.0,0.0,-3.7143,-3.7716,-3.8636,0.0,0.0,0.0,0.0,0.0,0.0,0.0,0.0,0.0,0.0,0.0,0.0,0.0,0.0,0.0,0.0,0.0,0.0,0.0,0.0,0.0,0.0,0.0,0.0,0.0,0.0,0.0,0.0,0.0,0.0,0.0,0.0,0.0,0.0,0.0,0.0,0.0,-4.0017,-4.0462,0.0,-3.9584,-4.001,-4.021,-3.9901,-3.9862,-4.0017,-4.0307,-4.0326,-4.0481,-4.079,-4.079,-4.079,-4.079,-4.0778,-4.0746,-4.07,-4.0454,-4.0283,-4.0174,-3.9983,-3.984,-3.9797,-3.9775,-3.9838,-3.9901,-3.9451,-3.9368,-3.9502,-3.9502,-3.9433,-3.9275,-3.8796,-3.8514,-3.8324,0.0,0.0,0.0,0.0,0.0,0.0,0.0,0.0,0.0,0.0,0.0,0.0,0.0,0.0,0.0,0.0,0.0,0.0,0.0,0.0,0.0,0.0,0.0,0.0,0.0,0.0,0.0,0.0,0.0,0.0,0.0,0.0,0.0,0.0,0.0,0.0,0.0,0.0,0.0,0.0,-3.7028,-3.7829,-3.8913,0.0,0.0,0.0,0.0,0.0,0.0,0.0,0.0,0.0,0.0,0.0,0.0,0.0,0.0,0.0,0.0,0.0,0.0,0.0,0.0,0.0,0.0,0.0,0.0,0.0,0.0,0.0,0.0,0.0,0.0,0.0,0.0,0.0,0.0,-4.0539,-4.0249,-3.9959,-4.0191,-4.0249,-3.9971,-4.0462,-4.079,-4.079,-4.079,-4.079,-4.079,-4.079,-4.079,-4.079,-4.079,-4.079,-4.079,-4.079,-4.0778,-4.0733,-4.0583,-4.0454,-4.0367,-4.0211,-4.012,-4.0062,-4.0062,-4.012,-4.0233,-4.0177,-4.0001,-3.9766,-3.9762,-3.9717,-3.9571,-3.9044,-3.879,-3.8587,0.0,0.0,0.0,0.0,0.0,0.0,0.0,0.0,0.0,0.0,0.0,0.0,0.0,0.0,0.0,0.0,0.0,0.0,0.0,0.0,0.0,0.0,0.0,0.0,0.0,0.0,0.0,0.0,0.0,0.0,0.0,0.0,0.0,0.0,0.0,0.0,0.0,0.0,0.0,0.0,0.0,-3.7187,-3.7382,0.0,0.0,0.0,0.0,0.0,0.0,0.0,0.0,0.0,0.0,0.0,0.0,0.0,0.0,0.0,0.0,0.0,0.0,0.0,0.0,0.0,0.0,0.0,0.0,0.0,0.0,0.0,0.0,0.0,0.0,0.0,0.0,0.0,-4.0757,-4.0029,-3.9797,-4.0629,-4.001,-3.9835,-4.0674,-4.0771,-4.079,-4.079,-4.079,-4.079,-4.079,-4.079,-4.079,-4.079,-4.079,-4.079,-4.079,-4.079,-4.079,-4.079,-4.0733,-4.07,-4.07,-4.0621,-4.0612,-4.0607,-4.0607,-4.0562,-4.0482,-4.0432,-4.0362,-4.0307,-4.031,-4.0157,-3.9914,-3.9914,-3.9739,-3.9395,0.0,0.0,0.0,0.0,0.0,0.0,0.0,0.0,0.0,0.0,0.0,0.0,0.0,0.0,0.0,0.0,0.0,0.0,0.0,0.0,0.0,0.0,0.0,0.0,0.0,0.0,0.0,0.0,0.0,0.0,0.0,0.0,0.0,0.0,0.0,0.0,0.0,0.0,0.0,0.0,0.0,-3.6712,-3.7322,0.0,0.0,0.0,0.0,0.0,0.0,0.0,0.0,0.0,0.0,0.0,0.0,0.0,0.0,0.0,0.0,0.0,0.0,0.0,0.0,0.0,0.0,0.0,0.0,0.0,0.0,0.0,0.0,0.0,0.0,0.0,-4.0451,-4.0002,-3.9937,-3.9669,-3.9364,-3.903,-3.9298,-3.9603,-3.9835,-4.0423,-4.079,-4.079,-4.079,-4.079,-4.079,-4.079,-4.079,-4.079,-4.079,-4.079,-4.079,-4.079,-4.079,-4.079,-4.079,-4.0746,-4.07,-4.0687,-4.0646,-4.0607,-4.0607,-4.0558,-4.0492,-4.043,-4.0379,-4.0362,-4.031,-4.0253,-4.0176,-4.0176,-4.0157,-4.0019,0.0,0.0,0.0,0.0,0.0,0.0,0.0,0.0,0.0,0.0,0.0,0.0,0.0,0.0,0.0,0.0,0.0,0.0,0.0,0.0,0.0,0.0,0.0,0.0,0.0,0.0,0.0,0.0,0.0,0.0,0.0,0.0,0.0,0.0,0.0,0.0,0.0,0.0,0.0,0.0,0.0,0.0,-3.6806,-3.7157,-3.7914,-3.8863,-3.9595,-4.0153,-4.0617,-4.0949,0.0,0.0,0.0,0.0,0.0,0.0,0.0,0.0,0.0,0.0,0.0,0.0,0.0,0.0,0.0,0.0,0.0,0.0,0.0,0.0,0.0,0.0,0.0,0.0,-4.0052,-3.9447,-3.8712,-3.853,-3.8577,-3.8821,-3.8935,-3.927,-3.9987,-4.0505,-4.079,-4.079,-4.0796,-4.08,-4.08,-4.0843,-4.0834,-4.0834,-4.0834,-4.0834,-4.0834,-4.0834,-4.0823,-4.08,-4.08,-4.0776,-4.0746,-4.0746,-4.0706,-4.0631,-4.0598,-4.0569,-4.0523,-4.043,-4.0398,-4.0398,0.0,0.0,0.0,0.0,-4.031,-4.0291,0.0,0.0,0.0,0.0,0.0,0.0,0.0,0.0,0.0,0.0,0.0,0.0,0.0,0.0,0.0,0.0,0.0,0.0,0.0,0.0,0.0,0.0,0.0,0.0,0.0,0.0,0.0,0.0,0.0,0.0,0.0,0.0,0.0,0.0,0.0,0.0,0.0,0.0,0.0,0.0,0.0,0.0,-3.6066,-3.6846,-3.7164,-3.7391,-3.9048,-3.9705,-3.9902,-4.074,0.0,0.0,0.0,0.0,0.0,0.0,0.0,0.0,0.0,0.0,0.0,0.0,0.0,0.0,0.0,0.0,0.0,0.0,0.0,0.0,0.0,0.0,0.0,0.0,-3.9519,-3.8897,-3.7414,-3.7065,-3.7583,-3.9265,-3.8772,-3.8956,-4.0643,-4.0812,-4.0815,-4.0815,-4.0804,-4.0818,-4.0818,-4.0859,0.0,0.0,0.0,-4.0907,-4.0907,-4.0907,-4.0869,-4.0818,-4.0787,-4.0804,-4.0803,-4.0803,-4.0759,-4.07,-4.0654,-4.0612,-4.0592,-4.0463,-4.0396,-4.0379,-4.0328,-4.031,-4.031,-4.031,-4.031,-4.031,0.0,0.0,0.0,0.0,0.0,0.0,0.0,0.0,0.0,0.0,0.0,0.0,0.0,0.0,0.0,0.0,0.0,0.0,0.0,0.0,0.0,0.0,0.0,0.0,0.0,0.0,0.0,0.0,0.0,0.0,0.0,0.0,0.0,0.0,0.0,0.0,0.0,0.0,0.0,0.0,0.0,0.0,-3.5943,-3.6099,-3.6576,-3.726,-3.8293,-3.9111,-3.9851,-4.0701,-4.1,-4.0994,-4.0994,0.0,0.0,0.0,0.0,0.0,0.0,0.0,0.0,0.0,0.0,0.0,0.0,0.0,0.0,0.0,0.0,0.0,0.0,0.0,0.0,-3.8881,-3.8146,-3.7571,-3.7245,-3.6587,-3.6748,-3.8439,-3.8438,-3.8975,-4.0714,-4.0888,-4.0878,-4.0878,-4.0888,-4.0869,-4.0869,-4.0878,-4.0907,-4.0907,-4.0907,-4.0907,-4.0907,-4.0907,-4.0878,-4.0869,-4.0828,0.0,-4.0804,-4.0796,-4.0759,-4.07,-4.0687,-4.0646,-4.0588,-4.0508,-4.0427,-4.0307,-4.031,-4.031,-4.031,-4.031,-4.031,-4.031,0.0,0.0,0.0,0.0,0.0,0.0,0.0,0.0,0.0,0.0,0.0,0.0,0.0,0.0,0.0,0.0,0.0,0.0,0.0,0.0,0.0,0.0,0.0,0.0,0.0,0.0,0.0,0.0,0.0,0.0,0.0,0.0,0.0,0.0,0.0,0.0,0.0,0.0,0.0,0.0,0.0,0.0,-3.5768,-3.5827,-3.6106,-3.6565,-3.744,-3.8288,-3.9127,-4.0021,-4.0293,-4.036,-4.0768,-4.063,-4.04,0.0,0.0,0.0,0.0,0.0,0.0,0.0,0.0,0.0,0.0,0.0,0.0,0.0,0.0,-4.0248,-3.9396,0.0,-3.8912,-3.803,-3.7539,-3.7102,-3.6668,-3.6216,-3.6572,-3.8254,-3.8388,-3.9038,-4.0788,-4.0926,-4.0907,-4.0907,-4.0926,-4.0943,-4.0943,-4.098,-4.0996,-4.0996,-4.0996,-4.0996,-4.0996,-4.0996,-4.0988,-4.0943,-4.0917,-4.0859,-4.0807,-4.0792,-4.0776,-4.0746,-4.07,-4.0673,-4.0598,-4.0492,-4.0394,-4.0307,-4.031,-4.031,-4.031,-4.031,-4.031,-4.031,0.0,0.0,0.0,0.0,0.0,0.0,0.0,0.0,0.0,0.0,0.0,0.0,0.0,0.0,0.0,0.0,0.0,0.0,0.0,0.0,0.0,0.0,0.0,0.0,0.0,0.0,0.0,0.0,0.0,0.0,0.0,0.0,0.0,0.0,0.0,0.0,0.0,0.0,0.0,0.0,0.0,0.0,-3.5512,-3.564,-3.5715,-3.5881,-3.6754,-3.7482,-3.8188,-3.9226,-3.9585,-3.9721,-4.0535,-4.0354,-3.9966,-4.0664,-4.0932,0.0,0.0,0.0,0.0,0.0,0.0,0.0,0.0,-4.0879,-4.0625,-3.9824,-3.9648,-3.9375,-3.8504,-3.8341,-3.8063,-3.7194,-3.7058,-3.6801,-3.6111,-3.6009,-3.6571,-3.8098,-3.8357,-3.9033,-4.0609,-4.0871,-4.0952,-4.0952,-4.0996,-4.1018,-4.1018,-4.1065,-4.1097,-4.1097,-4.1097,-4.1097,-4.1097,-4.1097,-4.1065,-4.1011,-4.1003,-4.0943,-4.0839,-4.0828,-4.0815,-4.0808,-4.0739,-4.0668,-4.0588,-4.0479,-4.0379,-4.0307,-4.0309,-4.0291,-4.031,-4.031,-4.031,-4.031,0.0,0.0,0.0,0.0,0.0,0.0,0.0,0.0,0.0,0.0,0.0,0.0,0.0,0.0,0.0,0.0,0.0,0.0,0.0,0.0,0.0,0.0,0.0,0.0,0.0,0.0,0.0,0.0,0.0,0.0,0.0,0.0,0.0,0.0,0.0,0.0,0.0,0.0,0.0,0.0,0.0,0.0,-3.5159,-3.5254,-3.5412,-3.5739,-3.6609,-3.6977,-3.7305,-3.8965,-3.9511,-3.9661,-4.0535,-4.074,-4.0682,-4.0779,-4.0858,-4.0917,-4.0904,-4.1,-4.1096,-4.1096,-4.1094,-4.0915,0.0,-4.0034,-3.9785,-3.8926,-3.875,-3.8476,-3.7617,-3.7452,-3.7165,-3.6284,-3.6147,-3.6108,-3.601,-3.6004,-3.6368,-3.732,-3.8053,-3.8863,-3.9838,-4.0632,-4.1081,-4.1081,-4.1081,-4.1086,-4.1086,-4.1106,-4.1111,-4.1111,-4.1111,-4.1111,-4.1111,-4.1111,-4.11,-4.1089,-4.1039,-4.0991,-4.098,-4.0917,-4.0898,-4.0888,-4.0742,-4.0655,-4.0588,-4.0511,-4.0449,-4.0379,-4.0307,-4.0309,-4.031,-4.031,-4.031,-4.031,0.0,0.0,0.0,0.0,0.0,0.0,0.0,0.0,0.0,0.0,0.0,0.0,0.0,0.0,0.0,0.0,0.0,0.0,0.0,0.0,0.0,0.0,0.0,0.0,0.0,0.0,0.0,0.0,0.0,0.0,0.0,0.0,0.0,0.0,0.0,0.0,0.0,0.0,0.0,0.0,0.0,0.0,-3.4756,-3.4868,-3.5045,-3.533,-3.5933,-3.6446,0.0,0.0,-3.8684,-3.8929,-4.0256,-4.0365,-4.0068,-4.0595,-4.0792,-4.0846,-4.0829,-4.0878,-4.0805,-4.0337,-4.0234,-4.0033,-3.9266,-3.9127,-3.89,-3.8025,-3.7832,-3.7578,-3.6699,-3.6541,-3.6419,-3.6055,-3.5991,-3.5991,-3.5991,-3.601,-3.632,-3.7198,-3.8034,-3.8889,-3.9711,-4.0589,-4.1091,-4.1091,-4.1091,-4.1091,-4.1091,-4.1091,-4.1091,-4.1091,-4.1091,-4.1091,-4.1091,-4.1091,-4.1091,-4.1106,-4.1075,-4.1033,-4.0991,-4.0976,-4.0915,-4.0858,-4.1277,-4.1422,-4.1384,-4.1797,-4.1925,-4.1815,-4.1207,-4.0998,-4.0941,-4.0482,-4.031,-4.031,0.0,0.0,0.0,0.0,0.0,0.0,0.0,0.0,0.0,0.0,0.0,0.0,0.0,0.0,0.0,0.0,0.0,0.0,0.0,0.0,0.0,0.0,0.0,0.0,0.0,0.0,0.0,0.0,0.0,0.0,0.0,0.0,0.0,0.0,0.0,0.0,0.0,0.0,0.0,0.0,0.0,0.0,-3.4386,-3.4473,-3.4617,-3.4794,-3.5262,-3.5828,0.0,0.0,-3.7632,-3.7921,-3.9546,-3.9657,-3.9379,-4.0236,-4.0535,-4.0571,-4.034,-4.0288,-4.0142,-3.9364,-3.9168,-3.8972,-3.8254,-3.8147,-3.7948,-3.7118,-3.6949,-3.6756,-3.6113,-3.5996,-3.5995,-3.6005,-3.6001,-3.5999,-3.5999,-3.5994,-3.6325,-3.7204,-3.8063,-3.8918,-3.9739,-4.0598,-4.1105,-4.1105,-4.1105,-4.1105,-4.1105,-4.1105,-4.1105,-4.1105,-4.1105,-4.1105,-4.1105,-4.1105,-4.1105,-4.11,-4.11,-4.1061,-4.1026,-4.1026,-4.1085,-4.1227,-4.1776,-4.2118,-4.229,-4.2813,-4.2979,-4.2831,-4.2144,-4.1877,-4.1762,-4.0941,-4.0501,-4.031,0.0,0.0,0.0,0.0,0.0,0.0,0.0,0.0,0.0,0.0,0.0,0.0,0.0,0.0,0.0,0.0,0.0,0.0,0.0,0.0,0.0,0.0,0.0,0.0,0.0,0.0,0.0,0.0,0.0,0.0,0.0,0.0,0.0,0.0,0.0,0.0,0.0,0.0,0.0,0.0,0.0,0.0,-3.4005,-3.4025,-3.4031,-3.4128,-3.4775,0.0,0.0,0.0,-3.6394,-3.6716,-3.8195,-3.869,0.0,-3.9699,-4.0024,-3.9946,-3.9157,-3.9042,-3.8975,-3.8241,-3.8063,-3.7869,-3.7203,-3.7094,-3.6931,-3.6189,-3.6033,-3.6021,-3.5996,-3.5996,-3.5996,-3.5996,-3.5994,-3.5991,-3.5991,-3.6001,-3.6325,-3.7204,-3.8063,-3.8941,-3.9819,-4.0639,-4.1108,-4.1108,-4.1108,-4.1108,-4.1108,-4.1108,-4.1108,-4.1108,-4.1108,-4.1108,-4.1108,-4.1108,-4.1104,-4.1094,-4.1094,-4.1105,-4.1091,-4.11,-4.1487,-4.2159,-4.2111,-4.2504,-4.3153,-4.3108,-4.3011,-4.2889,-4.2869,-4.2814,-4.266,-4.1781,-4.0979,-4.031,0.0,0.0,0.0,0.0,0.0,0.0,0.0,0.0,0.0,0.0,0.0,0.0,0.0,0.0,0.0,0.0,0.0,0.0,0.0,0.0,0.0,0.0,0.0,0.0,0.0,0.0,0.0,0.0,0.0,0.0,0.0,0.0,0.0,0.0,0.0,0.0,0.0,0.0,0.0,0.0,0.0,0.0,-3.335,-3.339,-3.3552,-3.3828,0.0,0.0,0.0,0.0,0.0,0.0,-3.7313,-3.8054,-3.8683,-3.9559,-3.9488,-3.9051,-3.8765,-3.8384,-3.7827,-3.7015,-3.6954,-3.6902,-3.6222,-3.6183,-3.6236,-3.5973,-3.6391,-3.6793,-3.6804,-3.6791,-3.6815,-3.6855,-3.6387,-3.5995,-3.5995,-3.5995,-3.6539,-3.7999,-3.8428,-3.9151,-4.0557,-4.0938,-4.1108,-4.1108,-4.1108,-4.1108,-4.1108,-4.1108,-4.1108,-4.1108,-4.1108,-4.1108,-4.1108,-4.1108,-4.1108,-4.1104,-4.1097,-4.109,-4.1105,-4.1106,-4.152,-4.2288,-4.2801,-4.3412,-4.4095,-4.4565,-4.4718,-4.4574,-4.3943,-4.3675,-4.356,-4.268,-4.18,-4.0959,0.0,0.0,0.0,0.0,0.0,0.0,0.0,0.0,0.0,0.0,0.0,0.0,0.0,0.0,0.0,0.0,0.0,0.0,0.0,0.0,0.0,0.0,0.0,0.0,0.0,0.0,0.0,0.0,0.0,0.0,0.0,0.0,0.0,0.0,0.0,0.0,0.0,0.0,0.0,0.0,0.0,0.0,-3.2912,-3.2993,-3.3172,0.0,0.0,0.0,0.0,0.0,0.0,-3.5405,-3.6143,-3.7197,-3.822,-3.8836,-3.87,-3.8177,-3.763,-3.7165,-3.6625,-3.5836,-3.5794,-3.5837,-3.5528,-3.5591,-3.5846,-3.6242,-3.6774,-3.7264,-3.76,-3.7669,-3.7589,-3.7301,-3.6815,-3.6366,-3.6034,-3.5996,-3.664,-3.8397,-3.859,-3.9253,-4.0931,-4.1097,-4.1108,-4.1108,-4.1108,-4.1108,-4.1108,-4.1094,-4.1097,-4.1097,-4.1097,-4.1097,-4.1097,-4.1097,-4.1094,-4.1108,-4.1101,-4.1101,-4.1097,-4.11,-4.1713,-4.2785,-4.3296,-4.4067,-4.504,-4.5465,-4.5599,-4.5475,-4.4825,-4.4556,-4.446,-4.3559,-4.2678,-4.1799,0.0,0.0,0.0,0.0,0.0,0.0,0.0,0.0,0.0,0.0,0.0,0.0,0.0,0.0,0.0,0.0,0.0,0.0,0.0,0.0,0.0,0.0,0.0,0.0,0.0,0.0,0.0,0.0,0.0,0.0,0.0,0.0,0.0,0.0,0.0,0.0,0.0,0.0,0.0,0.0,0.0,0.0,-3.2702,-3.2802,0.0,0.0,0.0,0.0,0.0,0.0,-3.4023,-3.4171,-3.4715,-3.6083,-3.7485,-3.7521,-3.7599,-3.7349,-3.588,-3.551,-3.5384,-3.4723,-3.4645,-3.4772,-3.5108,-3.5311,-3.5758,-3.685,-3.7148,-3.7481,-3.8396,-3.8522,-3.8232,-3.7396,-3.7253,-3.6947,-3.6127,-3.6034,-3.6699,-3.8398,-3.8631,-3.9312,-4.0933,-4.1099,-4.1091,-4.1094,-4.1091,-4.1091,-4.1108,-4.1101,-4.1107,-4.1108,-4.1108,-4.1108,-4.1108,-4.1108,-4.1103,-4.1091,-4.1091,-4.1111,-4.1108,-4.1097,-4.2013,-4.3604,-4.3536,-4.4422,-4.5893,-4.5761,-4.5668,-4.5586,-4.5438,-4.54,-4.5283,-4.44,-4.3558,-4.2737,0.0,0.0,0.0,0.0,0.0,0.0,0.0,0.0,0.0,0.0,0.0,0.0,0.0,0.0,0.0,0.0,0.0,0.0,0.0,0.0,0.0,0.0,0.0,0.0,0.0,0.0,0.0,0.0,0.0,0.0,0.0,0.0,0.0,0.0,0.0,0.0,0.0,0.0,0.0,0.0,0.0,0.0,-3.2335,0.0,0.0,0.0,0.0,0.0,0.0,-3.3433,-3.3633,-3.3872,-3.4574,-3.518,-3.5724,-3.6442,-3.6223,-3.5717,-3.5436,-3.4914,-3.4451,-3.4325,-3.4458,-3.4674,-3.4813,-3.5467,-3.6213,-3.6704,-3.7827,-3.8864,-3.9321,-3.8855,-3.8364,-3.8205,-3.7082,-3.6196,-3.6016,-3.6528,-3.7313,-3.8452,-3.9177,-3.9979,-4.0994,-4.1094,-4.1093,-4.1093,-4.1091,-4.1101,-4.1111,-4.1094,-4.1123,-4.1171,-4.1171,-4.1171,-4.1171,-4.1113,-4.1091,-4.1103,-4.1103,-4.1099,-4.1108,-4.1108,-4.2034,-4.367,-4.361,-4.4482,-4.5964,-4.5827,-4.5731,-4.5657,-4.5476,-4.54,-4.5362,-4.509,-4.4397,-4.3497,0.0,0.0,0.0,0.0,0.0,0.0,0.0,0.0,0.0,0.0,0.0,0.0,0.0,0.0,0.0,0.0,0.0,0.0,0.0,0.0,0.0,0.0,0.0,0.0,0.0,0.0,0.0,0.0,0.0,0.0,0.0,0.0,0.0,0.0,0.0,0.0,0.0,0.0,0.0,0.0,0.0,0.0,0.0,0.0,0.0,0.0,0.0,0.0,0.0,-3.3073,-3.3226,-3.3442,-3.4311,-3.4673,-3.4823,-3.5433,-3.5318,-3.4954,-3.4705,-3.4341,-3.4023,-3.4099,-3.4274,-3.4555,-3.5026,-3.5665,-3.6387,-3.7373,-3.8454,-3.9392,-3.9909,-3.9403,-3.8788,-3.8494,-3.7261,-3.6242,-3.5994,-3.6651,-3.7519,-3.8483,-3.9361,-4.0223,-4.1023,-4.1105,-4.1108,-4.1107,-4.1092,-4.1094,-4.1107,-4.1105,-4.1129,-4.1191,-4.1191,-4.1191,-4.1191,-4.1152,-4.1133,-4.1131,-4.1112,-4.109,-4.1105,-4.1094,-4.1849,-4.315,-4.3461,-4.4312,-4.5502,-4.5712,-4.5761,-4.5671,-4.5475,-4.54,-4.54,-4.5319,-4.4493,-4.3365,0.0,0.0,0.0,0.0,0.0,0.0,0.0,0.0,0.0,0.0,0.0,0.0,0.0,0.0,0.0,0.0,0.0,0.0,0.0,0.0,0.0,0.0,0.0,0.0,0.0,0.0,0.0,0.0,0.0,0.0,0.0,0.0,0.0,0.0,0.0,0.0,0.0,0.0,0.0,0.0,0.0,0.0,0.0,0.0,0.0,0.0,0.0,0.0,0.0,0.0,-3.2852,-3.3073,-3.3876,-3.4222,-3.4364,-3.4486,-3.4645,-3.4576,-3.3936,-3.3815,-3.3895,-3.3947,-3.4148,-3.4556,-3.5464,-3.5916,-3.6637,-3.8307,-3.8932,-3.9442,-4.025,-3.9895,-3.9228,-3.849,-3.755,-3.6656,-3.5967,-3.6645,-3.7554,-3.8432,-3.9412,-4.029,-4.0996,-4.1058,-4.1069,-4.1082,-4.1088,-4.1094,-4.1093,-4.1094,-4.1133,-4.1172,-4.1191,-4.1191,-4.1191,-4.1191,-4.1191,-4.1191,-4.1133,-4.1113,-4.1094,-4.1105,-4.1582,-4.2454,-4.327,-4.4063,-4.4861,-4.5531,-4.5771,-4.5684,-4.5475,-4.54,-4.5381,-4.5185,-4.4208,-4.2908,0.0,0.0,0.0,0.0,0.0,0.0,0.0,0.0,0.0,0.0,0.0,0.0,0.0,0.0,0.0,0.0,0.0,0.0,0.0,0.0,0.0,0.0,0.0,0.0,0.0,0.0,0.0,0.0,0.0,0.0,0.0,0.0,0.0,0.0,0.0,0.0,0.0,0.0,0.0,0.0,0.0,0.0,0.0,0.0,0.0,0.0,0.0,0.0,0.0,0.0,-3.2539,-3.2934,-3.3216,-3.3376,-3.3467,-3.3633,-3.3749,-3.3797,-3.367,-3.3671,-3.3753,-3.3834,-3.4383,-3.5024,-3.5373,-3.6533,-3.771,-3.8248,-3.9069,-3.9831,-4.0307,-3.976,-3.9032,-3.8349,-3.7478,-3.6607,-3.5766,-3.6968,-3.8016,-3.8228,-3.9673,-4.0701,-4.0837,-4.0855,-4.0896,-4.1017,-4.1019,-4.1042,-4.1094,-4.1105,-4.111,-4.1129,-4.1129,-4.1129,-4.1129,-4.1113,-4.1113,-4.1113,-4.1152,-4.1152,-4.1094,-4.1093,-4.1577,-4.2458,-4.3314,-4.4104,-4.4869,-4.5572,-4.5814,-4.5684,-4.5475,-4.54,-4.5304,-4.4516,-4.4015,-4.3516,0.0,0.0,0.0,0.0,0.0,0.0,0.0,0.0,0.0,0.0,0.0,0.0,0.0,0.0,0.0,0.0,0.0,0.0,0.0,0.0,0.0,0.0,0.0,0.0,0.0,0.0,-3.1061,-3.0885,0.0,0.0,0.0,-3.0393,-3.0559,-3.1117,0.0,0.0,0.0,0.0,0.0,0.0,0.0,0.0,0.0,0.0,0.0,0.0,0.0,0.0,0.0,0.0,-3.2197,-3.2506,-3.2654,-3.2752,-3.2866,-3.3037,-3.322,-3.3386,-3.3386,-3.353,-3.3661,-3.3671,-3.4358,-3.5147,-3.5726,-3.6842,-3.7914,-3.8529,-3.9158,-3.9709,-4.0062,-3.9572,-3.9061,-3.8895,-3.8003,-3.7082,-3.6364,-3.7243,-3.7983,-3.813,-3.9296,-4.0257,-4.0692,-4.0752,-4.0595,-4.0205,-4.0613,-4.0945,-4.1042,-4.1046,-4.106,-4.1099,-4.1099,-4.1099,-4.1099,-4.1105,-4.1108,-4.1092,-4.1131,-4.1132,-4.1094,-4.1094,-4.1326,-4.1802,-4.3111,-4.3857,-4.4208,-4.5409,-4.5794,-4.5632,-4.5456,-4.5112,-4.4613,-4.413,-4.3361,-4.2481,0.0,0.0,0.0,0.0,0.0,0.0,0.0,0.0,0.0,0.0,0.0,0.0,0.0,0.0,0.0,0.0,0.0,0.0,0.0,0.0,0.0,0.0,0.0,0.0,0.0,0.0,0.0,-3.1179,-3.1162,0.0,0.0,0.0,0.0,0.0,-3.1078,-3.1021,-3.1235,0.0,0.0,0.0,0.0,-3.1462,0.0,0.0,0.0,0.0,0.0,0.0,0.0,0.0,-3.1875,-3.2001,-3.2109,-3.2301,-3.2489,-3.2654,-3.2862,-3.3081,-3.3081,-3.3309,-3.3502,-3.3502,-3.4189,-3.5089,-3.5852,-3.6709,-3.755,-3.8331,-3.8659,-3.8987,-3.9458,-3.9185,-3.8984,-3.9282,-3.853,-3.7663,-3.689,-3.7483,-3.8016,-3.8008,-3.8953,-3.9855,-4.0539,-4.0455,-4.0091,-3.9428,-3.9896,-4.0413,-4.0937,-4.0947,-4.0959,-4.1018,-4.1037,-4.1042,-4.1042,-4.1031,-4.1042,-4.1035,-4.103,-4.1035,-4.1068,-4.1073,-4.1074,-4.117,-4.2744,-4.3448,-4.3605,-4.5021,-4.5524,-4.5346,-4.5207,-4.4556,-4.3712,-4.3458,-4.2519,-4.1354,0.0,0.0,0.0,0.0,0.0,0.0,0.0,0.0,0.0,0.0,0.0,0.0,0.0,0.0,0.0,0.0,0.0,0.0,0.0,0.0,0.0,0.0,0.0,0.0,0.0,0.0,0.0,-3.1726,-3.1507,0.0,0.0,0.0,0.0,0.0,0.0,-3.1393,-3.1055,-3.1393,0.0,0.0,0.0,0.0,0.0,0.0,0.0,0.0,0.0,-3.1559,-3.1617,-3.1576,-3.1614,-3.1654,-3.1654,-3.1966,-3.2352,-3.2555,-3.2687,-3.2734,-3.2734,-3.2988,-3.325,-3.325,-3.4025,-3.4867,-3.5165,-3.5854,-3.6499,-3.6776,-3.6883,-3.7249,-3.8263,-3.8496,-3.8605,-3.8746,-3.8727,-3.8156,-3.6593,-3.7699,-3.848,-3.7802,-3.9193,-4.0245,-4.0321,-3.9682,-3.9262,-3.9309,-3.8659,-3.9004,-4.0723,-4.0752,-4.0732,-4.0752,-4.0791,-4.083,-4.083,-4.0828,-4.0838,-4.0825,-4.0832,-4.0863,-4.0909,-4.0984,-4.1015,-4.1068,-4.209,-4.2896,-4.3566,-4.4381,-4.4666,-4.4585,-4.4381,-4.3733,-4.2814,-4.1952,-4.1489,-4.1214,0.0,0.0,0.0,0.0,0.0,0.0,0.0,0.0,0.0,0.0,0.0,0.0,0.0,0.0,0.0,0.0,0.0,0.0,0.0,0.0,0.0,0.0,0.0,0.0,0.0,0.0,-3.2197,-3.2091,-3.2073,0.0,0.0,0.0,0.0,0.0,0.0,-3.1932,-3.2021,-3.1968,0.0,0.0,0.0,0.0,0.0,0.0,0.0,0.0,0.0,0.0,-3.1709,-3.1538,-3.1538,-3.1579,-3.1466,-3.1617,-3.1893,-3.2109,-3.2266,-3.2403,-3.2437,-3.2669,-3.2894,-3.2894,-3.3723,-3.4534,-3.4709,-3.5447,-3.6179,-3.638,-3.6464,-3.6727,-3.7376,-3.7548,-3.7851,-3.8632,-3.8687,-3.8417,-3.789,-3.8284,-3.8567,-3.8385,-3.8975,-3.9624,-4.0233,-3.9525,-3.8867,-3.8428,-3.7586,-3.7655,-3.8931,-3.9548,-3.9886,-3.9926,-4.0449,-4.0761,-4.0801,-4.0791,-4.0799,-4.0807,-4.08,-4.082,-4.084,-4.0909,-4.0939,-4.0994,-4.1933,-4.2487,-4.276,-4.352,-4.373,-4.358,-4.3425,-4.2776,-4.1913,-4.1489,-4.0905,-4.0302,0.0,0.0,0.0,0.0,0.0,0.0,0.0,0.0,0.0,0.0,0.0,0.0,0.0,0.0,0.0,0.0,0.0,0.0,0.0,0.0,0.0,0.0,0.0,0.0,0.0,0.0,-3.2521,-3.2521,-3.2606,-3.2737,0.0,0.0,-3.2669,-3.2866,0.0,0.0,0.0,0.0,0.0,0.0,0.0,0.0,0.0,0.0,0.0,0.0,0.0,0.0,0.0,0.0,0.0,-3.1559,-3.1334,0.0,0.0,-3.1709,-3.1912,-3.2091,-3.2161,-3.2352,-3.257,-3.257,-3.3208,-3.3862,-3.4042,-3.4691,-3.5301,-3.5522,-3.5634,-3.5861,-3.6427,-3.6555,-3.7013,0.0,0.0,-3.8474,-3.8662,-3.8593,-3.8572,-3.8743,-3.8803,-3.907,-3.9795,-3.8898,-3.7921,-3.7094,-3.6468,-3.6392,-3.6999,-3.7913,-3.8565,-3.8878,-3.976,-4.0256,-4.03,-4.0551,-4.068,-4.0684,-4.0684,-4.068,-4.0713,-4.0792,-4.084,-4.0906,-4.1589,-4.2011,-4.2236,-4.2721,-4.284,-4.2722,-4.2541,-4.1952,-4.1151,-4.0973,-4.0407,-3.9766,0.0,0.0,0.0,0.0,0.0,0.0,0.0,0.0,0.0,0.0,0.0,0.0,0.0,0.0,0.0,0.0,0.0,0.0,0.0,0.0,0.0,0.0,0.0,0.0,0.0,0.0,0.0,0.0,0.0,-3.3086,-3.3086,-3.3024,-3.2925,-3.2795,0.0,0.0,0.0,0.0,0.0,0.0,0.0,0.0,0.0,0.0,0.0,0.0,0.0,0.0,0.0,0.0,0.0,0.0,0.0,0.0,0.0,0.0,-3.1668,-3.18,-3.18,-3.2055,-3.2318,-3.2318,-3.2521,-3.2784,-3.3055,-3.3274,-3.3499,-3.3771,-3.3913,-3.4301,-3.5229,-3.5522,-3.6137,-3.7739,-3.8128,-3.8252,-3.839,-3.8459,-3.855,-3.8696,-3.8763,-3.8784,-3.8822,-3.7431,-3.6165,-3.5286,-3.5229,-3.5229,-3.5229,-3.5926,-3.6765,-3.7674,-3.8642,-3.9118,-3.9118,-3.9976,-4.0396,-4.0396,-4.0396,-4.0447,-4.0523,-4.0581,-4.0681,-4.082,-4.0882,-4.1397,-4.2197,-4.2065,-4.2044,-4.2085,-4.1825,-4.1254,-4.0545,-4.0157,-3.9962,-3.9859,0.0,0.0,0.0,0.0,0.0,0.0,0.0,0.0,0.0,0.0,0.0,0.0,0.0,0.0,0.0,0.0,0.0,0.0,0.0,0.0,0.0,0.0,0.0,0.0,0.0,0.0,0.0,0.0,0.0,0.0,0.0,-3.3502,-3.3426,-3.3368,-3.3444,-3.3426,0.0,0.0,0.0,0.0,0.0,0.0,-3.2616,0.0,0.0,0.0,0.0,0.0,0.0,0.0,0.0,0.0,0.0,0.0,0.0,0.0,0.0,-3.1504,-3.1634,-3.1819,-3.1948,-3.2002,-3.2283,-3.259,-3.269,-3.2993,-3.3298,-3.3491,-3.3671,-3.3907,-3.4297,-3.4456,-3.5094,-3.6901,-3.6771,-3.6906,-3.815,-3.7878,-3.7612,-3.7787,-3.7947,-3.7811,-3.7277,-3.678,-3.6146,-3.5267,-3.5209,-3.5209,-3.5209,-3.5425,-3.5959,-3.6852,-3.7658,-3.8115,-3.8202,-3.8487,-3.8637,-3.869,-3.869,-3.8703,-3.8747,-3.9411,-3.9764,-3.9879,-4.0546,-4.1008,-4.1305,-4.128,-4.1221,-4.119,-4.0974,-4.0723,-4.0446,-4.0232,-4.006,-3.9956,0.0,0.0,0.0,0.0,0.0,0.0,0.0,0.0,0.0,0.0,0.0,0.0,0.0,0.0,0.0,0.0,0.0,0.0,0.0,0.0,0.0,0.0,0.0,0.0,0.0,0.0,0.0,0.0,0.0,0.0,0.0,0.0,0.0,-3.3834,-3.3807,-3.3834,0.0,0.0,0.0,0.0,0.0,0.0,-3.316,0.0,0.0,0.0,0.0,0.0,0.0,0.0,0.0,0.0,0.0,0.0,0.0,0.0,-3.1213,-3.1312,-3.1466,-3.1596,-3.1688,-3.1765,-3.202,-3.2249,-3.2353,-3.2719,-3.3081,-3.3256,-3.352,-3.3726,-3.3807,-3.3921,-3.4585,-3.6408,-3.6385,-3.6657,-3.8016,-3.7582,-3.7039,-3.6873,-3.6976,-3.6881,-3.6442,-3.6099,-3.568,-3.5127,-3.5089,-3.5089,-3.5089,-3.5054,-3.5321,-3.5889,-3.669,-3.7146,-3.7217,-3.7559,-3.7766,-3.7833,-3.7833,-3.7849,-3.7881,-3.8485,-3.8999,-3.9399,-4.0023,-4.0552,0.0,-4.0878,-4.0863,-4.0846,-4.063,-4.0544,-4.0521,-4.0304,-4.0158,-4.0059,0.0,0.0,0.0,0.0,0.0,0.0,0.0,0.0,0.0,0.0,0.0,0.0,0.0,0.0,0.0,0.0,0.0,0.0,0.0,0.0,0.0,0.0,0.0,0.0,0.0,0.0,0.0,0.0,-3.4534,-3.4445,-3.4423,0.0,0.0,0.0,0.0,0.0,0.0,0.0,0.0,0.0,0.0,0.0,0.0,0.0,0.0,0.0,0.0,0.0,0.0,0.0,0.0,0.0,0.0,0.0,0.0,0.0,0.0,0.0,0.0,-3.1406,-3.1517,-3.1579,-3.1709,-3.1856,-3.2108,-3.247,0.0,-3.3037,-3.3397,-3.3671,-3.3698,-3.3842,-3.4552,-3.6241,-3.6601,-3.7001,-3.7897,-3.7403,-3.6678,-3.5996,-3.592,-3.5962,-3.6082,-3.5363,-3.4908,-3.4908,-3.4908,-3.4908,-3.4908,-3.483,-3.483,-3.4889,-3.5742,-3.6197,-3.6215,-3.7014,-3.7469,-3.7521,-3.7521,-3.7557,-3.7627,-3.7737,-3.8274,-3.9138,-3.938,-4.0033,-4.0897,-4.0848,-4.0898,-4.098,-4.0723,-4.0681,-4.0732,-4.0372,-4.0214,-4.0177,0.0,0.0,0.0,0.0,0.0,0.0,0.0,0.0,0.0,0.0,0.0,0.0,0.0,0.0,0.0,0.0,0.0,0.0,0.0,0.0,0.0,0.0,0.0,0.0,0.0,0.0,0.0,-3.5011,-3.4959,-3.4869,-3.4697,-3.4676,0.0,0.0,0.0,0.0,0.0,0.0,0.0,0.0,0.0,0.0,0.0,0.0,0.0,0.0,-3.3889,-3.3587,0.0,0.0,0.0,0.0,0.0,0.0,0.0,0.0,-3.1562,-3.1449,-3.1157,0.0,-3.1517,-3.1579,-3.1728,-3.1912,0.0,-3.2283,-3.2639,-3.2813,-3.3111,-3.3397,-3.3643,-3.3753,-3.4402,-3.6356,-3.5506,-3.5224,-3.7079,-3.6189,-3.5256,-3.5028,-3.5093,-3.5153,-3.5134,-3.5002,-3.4908,-3.4908,-3.4908,-3.4908,-3.4908,-3.4889,-3.4869,-3.481,-3.5038,-3.523,-3.5378,-3.5639,-3.5766,-3.5783,-3.5783,-3.5818,-3.5905,-3.6591,-3.7087,-3.7462,-3.8833,-3.9642,-4.0052,-4.0699,-4.0977,-4.0975,-4.0819,-4.0703,-4.0623,-4.0476,-4.036,-4.0252,0.0,0.0,0.0,0.0,0.0,0.0,0.0,0.0,0.0,0.0,0.0,0.0,0.0,0.0,0.0,0.0,0.0,0.0,0.0,0.0,0.0,0.0,0.0,0.0,0.0,0.0,0.0,0.0,0.0,-3.5211,0.0,0.0,0.0,0.0,0.0,0.0,0.0,0.0,0.0,0.0,-3.4906,0.0,0.0,0.0,0.0,0.0,-3.4566,-3.4266,0.0,-3.3485,-3.299,-3.2488,0.0,0.0,0.0,0.0,-3.0971,-3.0771,-3.0781,-3.1015,-3.1269,-3.1428,-3.1524,-3.1674,-3.1802,0.0,-3.2422,-3.2669,-3.2925,-3.316,-3.3339,-3.2895,-3.3131,-3.5222,-3.4221,-3.3988,-3.636,-3.5903,-3.52,-3.4955,-3.5015,-3.4936,-3.4561,-3.4588,-3.4649,-3.467,-3.467,-3.467,-3.467,-3.467,-3.4649,-3.4623,-3.4727,-3.4829,-3.4965,-3.5038,-3.5089,-3.5143,-3.5193,-3.5226,-3.5261,-3.5768,-3.6285,-3.6824,-3.8234,-3.917,-3.9712,-4.0586,-4.0952,-4.0946,-4.0776,-4.0642,-4.0545,-4.0411,-4.0307,-4.0233,0.0,0.0,0.0,0.0,0.0,0.0,0.0,0.0,0.0,0.0,0.0,0.0,0.0,0.0,0.0,0.0,0.0,0.0,0.0,0.0,0.0,0.0,0.0,0.0,0.0,0.0,0.0,0.0,0.0,0.0,0.0,0.0,0.0,0.0,0.0,0.0,0.0,0.0,0.0,-3.5285,-3.5268,0.0,0.0,0.0,0.0,0.0,0.0,0.0,0.0,-3.4283,-3.3709,-3.3046,-3.2211,0.0,0.0,0.0,0.0,0.0,-3.0106,-3.0376,-3.0683,-3.0999,-3.1123,-3.1201,-3.1504,0.0,0.0,0.0,0.0,-3.2713,-3.257,-3.1464,-3.1288,-3.3381,-3.3031,-3.3144,-3.4871,-3.5331,-3.5297,-3.4816,-3.4987,-3.4858,-3.4179,-3.4221,-3.4316,-3.4363,-3.4386,-3.4386,-3.4386,-3.4386,-3.4386,-3.4386,-3.458,-3.4687,-3.4747,-3.485,-3.4945,-3.5075,-3.5126,-3.5141,-3.5176,-3.5239,-3.5718,-3.6541,-3.7546,-3.8535,-3.9481,-4.0352,-4.0773,-4.0873,-4.0681,-4.054,-4.0441,-4.027,-4.0196,-4.0158,0.0,0.0,0.0,0.0,0.0,0.0,0.0,0.0,0.0,0.0,0.0,0.0,0.0,0.0,0.0,0.0,0.0,0.0,0.0,0.0,0.0,0.0,0.0,0.0,0.0,0.0,0.0,0.0,0.0,0.0,-3.5749,-3.5713,-3.5679,0.0,0.0,0.0,0.0,-3.5618,-3.5624,-3.5617,-3.5621,0.0,0.0,0.0,0.0,0.0,0.0,0.0,0.0,-3.4623,-3.4214,-3.389,-3.3628,0.0,0.0,0.0,0.0,0.0,-2.8829,-2.8925,-2.942,-2.9978,-3.0201,-3.0302,-3.0344,-3.0818,0.0,0.0,-3.1882,-3.1493,-3.0626,-2.9509,-2.9339,-3.1179,-3.261,-3.2723,-3.0566,-3.2144,-3.3321,-3.2822,-3.3753,-3.4235,-3.3733,-3.4012,-3.4245,-3.4316,-3.4316,-3.434,-3.4404,-3.434,-3.434,-3.4404,-3.4495,-3.4517,-3.4473,-3.4752,-3.4908,-3.4927,-3.4945,-3.4945,-3.4964,-3.5073,-3.5234,-3.5496,-3.6562,-3.7598,-3.865,-3.9465,-4.0199,-4.0804,-4.0649,-4.0496,-4.0306,-4.0233,-4.0177,-4.0077,0.0,0.0,0.0,0.0,0.0,0.0,0.0,0.0,0.0,0.0,0.0,0.0,0.0,0.0,0.0,0.0,0.0,0.0,0.0,0.0,0.0,0.0,0.0,0.0,0.0,0.0,0.0,0.0,0.0,-3.5919,-3.5851,-3.5841,-3.5825,-3.5749,0.0,0.0,-3.576,-3.5799,-3.5791,-3.5753,0.0,0.0,0.0,0.0,0.0,0.0,0.0,0.0,0.0,0.0,-3.4541,-3.393,-3.3585,0.0,0.0,0.0,0.0,0.0,-3.0129,-3.0035,-3.0039,-3.0323,-2.9757,-2.9528,-3.0956,-3.0514,-2.9922,0.0,-3.0277,-3.0057,-2.9585,-2.8442,-2.7816,-2.8584,-3.0387,-3.1104,-2.9438,-3.0537,-3.1878,-3.2907,-3.3476,-3.3803,-3.3815,-3.3954,-3.4074,-3.4124,-3.4173,-3.4197,-3.4173,-3.4148,-3.4173,-3.4245,-3.4293,-3.434,-3.434,-3.4542,-3.467,-3.4791,-3.487,-3.4908,-3.4889,-3.5037,-3.5124,-3.5209,-3.6309,-3.737,-3.8338,-3.9155,-4.0013,-4.0789,-4.0539,-4.0319,-4.0139,-4.002,-3.9977,-3.9954,0.0,0.0,0.0,0.0,0.0,0.0,0.0,0.0,0.0,0.0,0.0,0.0,0.0,0.0,0.0,0.0,0.0,0.0,0.0,0.0,0.0,0.0,0.0,0.0,0.0,0.0,0.0,-3.5996,-3.5996,-3.5976,-3.5911,-3.5925,-3.5901,0.0,0.0,0.0,-3.5845,-3.5873,-3.5877,-3.5819,0.0,0.0,0.0,0.0,0.0,0.0,0.0,0.0,0.0,0.0,0.0,0.0,0.0,0.0,0.0,-3.2226,-3.1499,-3.0745,-3.1091,-3.0935,-3.0633,-3.0472,-2.9641,-2.9429,-3.1494,-3.0633,-2.9447,-2.9746,-2.976,-2.9617,-2.9351,-2.8319,-2.7337,-2.6708,-2.8271,-2.9244,-2.8372,-2.8962,-3.0116,-3.176,-3.2598,-3.3194,-3.3468,-3.3652,-3.3815,-3.3972,-3.4023,-3.4049,-3.4049,-3.4023,-3.4049,-3.4124,-3.4197,-3.4245,-3.4269,-3.4363,-3.4473,-3.4645,-3.4751,-3.4811,-3.4812,-3.4963,-3.5054,-3.5126,-3.6056,-3.7023,-3.7977,-3.8768,-3.9618,-4.0431,-4.0286,-4.0101,-3.9899,-3.9785,-3.9758,-3.9781,0.0,0.0,0.0,0.0,0.0,0.0,0.0,0.0,0.0,0.0,0.0,0.0,0.0,0.0,0.0,0.0,0.0,0.0,0.0,0.0,0.0,0.0,0.0,0.0,0.0,-3.5934,-3.5997,-3.6001,-3.5997,-3.6004,-3.5999,-3.5991,-3.5993,-3.5991,0.0,0.0,-3.5978,-3.5914,-3.5911,-3.5885,-3.5826,0.0,0.0,0.0,0.0,0.0,0.0,0.0,0.0,0.0,0.0,0.0,0.0,0.0,-3.3719,-3.3613,-3.2297,-3.0696,-2.9885,-3.0,-3.0166,-2.9483,-2.9977,-3.0704,-3.0935,-3.12,-3.154,-3.2051,-3.18,-3.1161,-3.0044,-2.9453,-2.8521,-2.6617,-2.7412,-2.7557,-2.5639,-2.6622,-2.7423,-2.7124,-3.0075,-3.2072,-3.1969,-3.28,-3.3494,-3.3868,-3.3895,-3.3998,-3.4173,-3.4074,-3.4074,-3.4197,-3.4245,-3.4269,-3.4197,-3.434,-3.4404,-3.4409,-3.4476,-3.4539,-3.4539,-3.4728,-3.4888,-3.5038,-3.5369,-3.6103,-3.7148,-3.789,-3.868,-3.9446,-3.9871,-3.9857,-3.9623,-3.9551,-3.9508,-3.9532,0.0,0.0,0.0,0.0,0.0,0.0,0.0,0.0,0.0,0.0,0.0,0.0,0.0,0.0,0.0,0.0,0.0,0.0,0.0,0.0,0.0,0.0,0.0,-3.5449,-3.5551,-3.576,-3.5894,-3.5948,-3.5908,-3.5889,-3.5885,-3.589,0.0,0.0,0.0,-3.5875,-3.5866,-3.5859,-3.5811,-3.576,-3.5743,-3.5698,0.0,0.0,0.0,0.0,0.0,0.0,0.0,0.0,-3.4813,0.0,0.0,0.0,-3.3643,-3.3588,-3.2982,-3.2272,-3.2049,-3.2141,-3.215,-3.1589,-3.1712,0.0,0.0,-3.1125,-3.0347,-3.0491,-3.0482,-3.0273,-2.9706,-3.078,-3.1011,-2.8622,-2.8613,-2.7911,-2.5065,-2.5133,-2.5892,-2.6912,-2.8721,-3.0537,-3.2137,-3.3164,-3.3743,-3.3815,-3.3921,-3.3998,-3.4074,-3.4023,-3.4049,-3.4124,-3.4173,-3.4173,-3.4197,-3.4245,-3.4269,-3.4269,-3.4946,-3.5254,-3.5273,-3.5919,-3.6255,-3.6321,-3.6716,-3.7452,-3.8399,-3.8666,-3.9228,-3.9907,-3.9697,-3.9556,-3.9452,-3.9401,-3.9401,-3.9452,0.0,0.0,0.0,0.0,0.0,0.0,0.0,0.0,0.0,0.0,0.0,0.0,0.0,0.0,0.0,0.0,0.0,0.0,0.0,0.0,0.0,0.0,0.0,-3.5311,-3.5393,-3.5581,-3.5749,-3.5879,-3.5813,-3.5806,-3.5794,0.0,0.0,0.0,0.0,-3.5764,-3.5776,-3.5752,-3.5706,-3.567,-3.5669,-3.5618,0.0,0.0,0.0,0.0,0.0,0.0,0.0,0.0,0.0,0.0,0.0,0.0,0.0,0.0,-3.3386,-3.322,-3.3426,-3.3397,-3.319,-3.2876,0.0,0.0,-3.2766,-3.1611,-3.0546,-3.063,-3.0759,-3.0823,-3.0695,-3.2106,-3.27,-3.0918,-2.9949,-2.832,-2.5201,-2.4563,-2.4583,-2.5105,-2.6819,-2.879,-3.0913,-3.2456,-3.3421,-3.3625,-3.3815,-3.3972,-3.4023,-3.4023,-3.4074,-3.4124,-3.4124,-3.4148,-3.4197,-3.4197,-3.4197,-3.4197,-3.5187,-3.5645,-3.5688,-3.6616,-3.7065,-3.7115,-3.7471,-3.808,-3.8807,-3.8895,-3.9325,-3.9857,-3.9446,-3.9245,-3.9237,-3.9192,-3.9192,-3.9264,0.0,0.0,0.0,0.0,0.0,0.0,0.0,0.0,0.0,0.0,0.0,0.0,0.0,0.0,0.0,0.0,0.0,0.0,0.0,0.0,0.0,0.0,0.0,-3.5122,-3.5391,-3.5405,-3.5531,-3.5791,-3.5791,-3.5791,-3.5791,-3.5791,0.0,0.0,0.0,0.0,-3.5697,0.0,-3.5607,-3.5596,-3.5596,-3.5554,-3.5493,0.0,0.0,0.0,0.0,0.0,0.0,0.0,0.0,0.0,0.0,0.0,0.0,0.0,-3.3465,-3.3154,-3.3439,-3.316,-3.2795,-3.2795,-3.2848,-3.2916,-3.2975,-3.2848,-3.2848,-3.3286,-3.3393,-3.3393,-3.3411,-3.3352,-3.331,-3.331,-3.1108,-2.8516,-2.5951,-2.488,-2.3451,-2.0918,-2.416,-2.6935,-2.7797,-3.0331,-3.2313,-3.3214,-3.3606,-3.3895,-3.4099,-3.4099,-3.4124,-3.4197,-3.4197,-3.4197,-3.4197,-3.4197,-3.4197,-3.4197,-3.507,-3.5547,-3.5634,-3.6509,-3.7004,-3.713,-3.7268,-3.7536,-3.7937,-3.8263,-3.8618,-3.9017,-3.8989,-3.8979,-3.891,-3.891,-3.891,-3.8921,0.0,0.0,0.0,0.0,0.0,0.0,0.0,0.0,0.0,0.0,0.0,0.0,0.0,0.0,0.0,0.0,0.0,0.0,0.0,0.0,0.0,0.0,0.0,0.0,0.0,0.0,-3.5589,-3.5659,-3.5657,-3.5654,0.0,0.0,0.0,-3.5654,0.0,0.0,0.0,0.0,0.0,-3.5522,-3.5528,-3.552,-3.5493,0.0,0.0,0.0,0.0,0.0,0.0,0.0,0.0,0.0,0.0,0.0,0.0,-3.3842,-3.3734,-3.3606,-3.3743,-3.3662,-3.3419,-3.3093,-3.2908,-3.2813,-3.2844,-3.3037,-3.3226,-3.3364,-3.3393,-3.3364,-3.3226,-3.3165,-3.3165,-3.3165,-3.1004,-2.8457,-2.5949,-2.3899,-2.2122,-2.0734,-2.3336,-2.5962,-2.772,-3.0615,-3.2638,-3.3243,-3.3606,-3.3895,-3.4099,-3.4099,-3.4124,-3.4197,-3.4197,-3.4197,-3.4197,-3.4197,-3.4197,-3.4197,-3.507,-3.582,-3.6403,-3.7273,-3.8059,-3.8727,-3.8977,-3.8665,-3.8027,-3.7885,-3.8315,-3.9045,-3.8881,-3.8732,-3.8634,-3.8664,-3.8713,-3.878,0.0,0.0,0.0,0.0,0.0,0.0,0.0,0.0,0.0,0.0,0.0,0.0,0.0,0.0,0.0,0.0,0.0,0.0,0.0,0.0,0.0,0.0,0.0,0.0,0.0,-3.5315,-3.5476,0.0,0.0,0.0,0.0,0.0,0.0,-3.5591,0.0,-3.5547,0.0,0.0,0.0,-3.5493,-3.5493,-3.5474,-3.546,0.0,0.0,0.0,0.0,0.0,0.0,0.0,0.0,0.0,0.0,0.0,0.0,-3.3947,-3.3734,-3.3512,-3.3634,-3.355,-3.3368,-3.3111,-3.3068,-3.3019,-3.3019,-3.3226,-3.3352,-3.3352,-3.3304,-3.3256,-3.3196,-3.2243,-3.1474,-3.1514,-2.9375,-2.6834,-2.4331,-2.278,-2.1309,-1.9764,-2.1668,-2.3947,-2.6123,-2.8997,-3.1287,-3.2642,-3.3284,-3.3689,-3.3972,-3.4049,-3.4124,-3.4173,-3.4197,-3.4197,-3.4197,-3.4197,-3.4197,-3.4197,-3.4717,-3.5404,-3.6259,-3.7426,-3.8253,-3.8816,-3.8982,-3.8146,-3.6729,-3.7285,-3.7325,-3.7128,-3.8089,-3.8465,-3.8478,-3.8478,-3.8528,-3.8578,0.0,0.0,0.0,0.0,0.0,0.0,0.0,0.0,0.0,0.0,0.0,0.0,0.0,0.0,0.0,0.0,0.0,0.0,0.0,0.0,0.0,0.0,0.0,0.0,0.0,0.0,0.0,0.0,0.0,0.0,0.0,0.0,-3.5579,-3.5579,0.0,-3.547,0.0,0.0,0.0,-3.5474,-3.5474,-3.5446,-3.5379,-3.5398,0.0,0.0,0.0,0.0,0.0,0.0,0.0,0.0,0.0,0.0,-3.4124,-3.4074,-3.3616,-3.3142,-3.3343,-3.3202,-3.2993,-3.3024,-3.3196,-3.3364,-3.3411,-3.3322,-3.3262,-3.3262,-3.3165,-3.3051,-3.2928,-3.0779,-2.8943,-2.8766,-2.66,-2.4147,-2.1816,-2.1546,-2.0656,-1.8268,-1.9619,-2.1607,-2.3787,-2.6466,-2.9108,-3.1686,-3.2741,-3.3408,-3.3734,-3.3972,-3.4074,-3.4099,-3.4173,-3.4197,-3.4197,-3.4197,-3.4197,-3.4197,-3.4197,-3.4606,-3.5423,-3.7039,-3.7856,-3.7959,-3.7798,-3.6466,-3.4589,-3.6433,-3.5909,-3.4192,-3.6983,-3.8186,-3.8368,-3.8289,-3.8322,-3.8382,0.0,0.0,0.0,0.0,0.0,0.0,0.0,0.0,0.0,0.0,0.0,0.0,0.0,0.0,0.0,0.0,0.0,0.0,0.0,0.0,0.0,0.0,0.0,0.0,0.0,0.0,0.0,0.0,0.0,0.0,0.0,0.0,0.0,-3.536,0.0,-3.5326,0.0,0.0,0.0,-3.533,-3.533,-3.533,-3.5315,-3.5324,-3.5304,0.0,0.0,0.0,0.0,0.0,0.0,0.0,-3.4792,-3.4524,-3.4293,-3.4539,-3.425,-3.3902,-3.4037,-3.385,-3.3559,-3.3345,-3.3226,-3.3196,-3.3292,-3.3201,-3.3091,-3.3135,-3.3117,-3.2464,-3.0335,-2.9422,-2.8312,-2.6216,-2.3895,-2.2112,-2.1571,-1.9982,-1.8636,-1.8085,-2.0125,-2.2247,-2.3857,-2.6977,-2.9665,-3.1445,-3.255,-3.325,-3.3476,-3.3734,-3.3947,-3.4099,-3.4124,-3.4148,-3.4197,-3.4197,-3.4197,-3.4197,-3.4197,-3.429,-3.4531,-3.6185,-3.7461,-3.829,-3.6881,-3.5432,-3.4109,-3.5219,-3.4968,-3.4165,-3.6896,-3.7951,-3.802,-3.8036,-3.8119,-3.8168,0.0,0.0,0.0,0.0,0.0,0.0,0.0,0.0,0.0,0.0,0.0,0.0,0.0,0.0,0.0,0.0,0.0,0.0,0.0,0.0,0.0,0.0,0.0,0.0,0.0,0.0,0.0,0.0,0.0,0.0,0.0,0.0,0.0,-3.535,0.0,-3.5398,0.0,0.0,0.0,-3.535,-3.535,-3.533,-3.5315,-3.5354,-3.5339,-3.5304,0.0,0.0,0.0,0.0,0.0,0.0,0.0,0.0,-3.4454,-3.4542,-3.4321,-3.4074,-3.4087,-3.3928,-3.3698,-3.3452,-3.3334,-3.3256,-3.3292,-3.3152,-3.2669,-3.1383,-3.2118,-3.2188,-2.9495,-2.7929,-2.6194,-2.3642,-2.1167,-1.9602,-1.9658,-1.8981,-1.8462,-1.8462,-2.0062,-2.1762,-2.3315,-2.5825,-2.8186,-3.0227,-3.1705,-3.2745,-3.3232,-3.3597,-3.386,-3.3947,-3.4049,-3.4124,-3.4148,-3.4173,-3.4197,-3.4197,-3.4197,-3.4396,-3.4797,-3.5962,-3.7026,-3.7827,-3.6299,-3.4396,-3.24,-3.2918,-3.1976,-3.0541,-3.432,-3.5741,-3.5882,-3.7317,-3.7949,-3.8052,0.0,0.0,0.0,0.0,0.0,0.0,0.0,0.0,0.0,0.0,0.0,0.0,0.0,0.0,0.0,0.0,0.0,0.0,0.0,0.0,0.0,0.0,0.0,0.0,0.0,0.0,0.0,0.0,0.0,0.0,0.0,0.0,0.0,-3.5398,0.0,0.0,0.0,0.0,0.0,-3.5383,-3.5383,-3.5335,-3.53,-3.535,-3.5354,-3.5324,-3.5369,-3.532,-3.5226,-3.5293,0.0,0.0,0.0,0.0,-3.4647,-3.4486,-3.4284,-3.4087,-3.4025,-3.3831,-3.3615,-3.3452,-3.3382,-3.3304,-3.3292,-3.2791,-3.1723,-2.9474,-3.071,-3.1278,-2.8218,-2.5787,-2.3465,-2.1052,-1.8933,-1.7666,-1.7784,-1.8576,-1.911,-1.911,-1.9944,-2.1169,-2.2733,-2.4515,-2.6491,-2.8812,-3.0723,-3.2126,-3.2844,-3.3379,-3.3726,-3.3807,-3.3947,-3.4074,-3.4099,-3.4148,-3.4197,-3.4197,-3.4197,-3.4544,-3.5192,-3.5809,-3.6468,-3.707,-3.5884,-3.358,-3.0594,-3.0803,-2.903,-2.6559,-3.097,-3.2624,-3.2884,-3.5834,-3.7028,-3.7253,0.0,0.0,0.0,0.0,0.0,0.0,0.0,0.0,0.0,0.0,0.0,0.0,0.0,0.0,0.0,0.0,0.0,0.0,-3.4221,0.0,0.0,-3.4221,0.0,0.0,0.0,0.0,0.0,0.0,0.0,0.0,0.0,0.0,0.0,-3.5315,0.0,0.0,0.0,0.0,-3.5293,-3.5226,-3.5226,-3.5277,-3.5293,-3.5308,0.0,-3.5383,-3.533,-3.53,-3.53,-3.53,-3.5273,0.0,0.0,0.0,-3.4945,-3.4981,-3.4813,-3.4591,-3.4445,-3.3968,-3.3509,-3.3422,-3.3244,-3.3073,-3.3135,-3.122,-2.9379,-2.9052,-2.9226,-2.7968,-2.3136,-2.1963,-2.0905,-1.8406,-1.8118,-1.8202,-1.8202,-1.8998,-1.9539,-1.9539,-2.0666,-2.1806,-2.2792,-2.5025,-2.6864,-2.801,-3.0129,-3.1573,-3.2039,-3.2777,-3.3368,-3.3807,-3.3834,-3.3921,-3.4099,-3.4124,-3.4148,-3.4197,-3.4197,-3.4228,-3.4284,-3.4907,-3.566,-3.6484,-3.5734,-3.334,-3.0048,-3.0598,-2.9041,-2.6457,-2.8601,-2.943,-2.9764,-3.2709,-3.3817,-3.4225,0.0,0.0,0.0,0.0,0.0,0.0,0.0,0.0,0.0,0.0,0.0,0.0,0.0,0.0,0.0,-3.4197,-3.4197,-3.4197,-3.4197,-3.4197,-3.4197,-3.4197,-3.4197,0.0,0.0,0.0,0.0,0.0,0.0,0.0,0.0,-3.5412,-3.5364,0.0,0.0,0.0,0.0,0.0,-3.5273,-3.5261,-3.5261,-3.5261,-3.5261,0.0,0.0,0.0,-3.5398,-3.5364,-3.5315,-3.533,-3.53,-3.5254,-3.5261,0.0,0.0,0.0,-3.5053,-3.4812,-3.4529,-3.416,-3.378,-3.3481,-3.3274,-3.2736,-3.1148,-2.9844,-2.8123,-2.5226,-2.461,-2.3885,-2.1636,-2.1355,-2.0669,-1.8172,-1.8076,-1.8337,-1.8539,-1.9462,-2.0118,-2.0324,-2.1451,-2.2445,-2.311,-2.4969,-2.6518,-2.739,-2.9562,-3.1065,-3.1537,-3.255,-3.3208,-3.3397,-3.3652,-3.3842,-3.3921,-3.3998,-3.3852,-3.3462,-3.3017,-3.2747,-3.2711,-3.3266,-3.4262,-3.5562,-3.4943,-3.3145,-3.0532,-2.9228,-2.7088,-2.4732,-2.6295,-2.6627,-2.6602,-2.9614,-3.1782,-3.3394,0.0,0.0,0.0,0.0,0.0,0.0,0.0,0.0,0.0,0.0,0.0,0.0,0.0,0.0,0.0,0.0,-3.4197,-3.4197,-3.4197,-3.4197,-3.4197,-3.4197,-3.4197,-3.4197,0.0,0.0,0.0,0.0,0.0,0.0,-3.5412,-3.5412,-3.5383,0.0,-3.535,-3.535,0.0,0.0,0.0,-3.5277,-3.5277,-3.5242,-3.5223,-3.5285,-3.532,0.0,0.0,-3.5412,-3.533,-3.5407,-3.5379,-3.5315,-3.5339,-3.5242,0.0,0.0,0.0,-3.4889,-3.4636,-3.433,-3.3998,-3.3615,-3.2889,-3.1744,-2.9502,-2.7967,-2.591,-2.1995,-2.0772,-2.0393,-2.0442,-2.068,-2.0307,-1.8602,-1.8596,-1.8865,-1.9187,-2.0096,-2.0816,-2.1146,-2.2049,-2.286,-2.3343,-2.4867,-2.6076,-2.6828,-2.8928,-3.0427,-3.0987,-3.2022,-3.266,-3.275,-3.3117,-3.325,-3.3183,-3.3338,-3.3099,-3.2556,-3.1987,-3.1644,-3.1568,-3.1879,-3.2769,-3.4055,-3.383,-3.2692,-3.0844,-2.8193,-2.5704,-2.3568,-2.4051,-2.3851,-2.3661,-2.658,-2.9025,-3.1138,0.0,0.0,0.0,0.0,0.0,0.0,0.0,0.0,0.0,0.0,0.0,0.0,-3.4197,-3.4197,-3.4197,-3.4197,-3.4197,-3.4197,-3.4197,-3.4197,-3.4197,-3.4197,-3.4197,0.0,-3.4197,0.0,0.0,0.0,0.0,0.0,-3.5412,-3.546,-3.5417,-3.5293,-3.53,-3.5304,-3.5293,0.0,0.0,-3.5209,-3.5209,-3.5239,-3.53,-3.53,-3.5379,-3.5493,-3.5493,-3.546,-3.5412,-3.5476,-3.5449,-3.5412,-3.546,-3.5446,-3.5364,0.0,0.0,0.0,-3.503,-3.4555,-3.3954,-3.3839,-3.1683,-2.9497,-2.9096,-2.5153,-2.1532,-2.1269,-1.9598,-1.8205,-1.8395,-1.8461,-1.8634,-1.9145,-1.9704,-2.0096,-2.0462,-2.1187,-2.1714,-2.1827,-2.2347,-2.286,-2.3343,-2.4867,-2.5903,-2.6226,-2.8115,-2.9581,-3.0328,-3.0948,-3.1479,-3.1882,-3.1876,-3.1779,-3.1531,-3.166,-3.1713,-3.1658,-3.1686,-3.1644,-3.1483,-3.1269,-3.1286,-3.1535,-3.2313,-3.1902,-3.0422,-2.8091,-2.599,-2.4123,-2.1934,-2.1009,-2.1081,-2.3548,-2.4553,-2.5456,0.0,0.0,0.0,0.0,0.0,0.0,0.0,0.0,0.0,0.0,0.0,0.0,0.0,-3.3881,-3.3993,-3.3473,-3.39,-3.4197,-3.4197,-3.4197,-3.4197,-3.4197,-3.4197,-3.4197,-3.4197,0.0,0.0,0.0,0.0,-3.5141,-3.5223,-3.535,-3.5398,-3.5304,-3.53,-3.527,-3.5245,-3.5245,0.0,-3.5261,-3.5261,-3.5273,-3.5296,-3.535,-3.5379,-3.5427,-3.5482,-3.5476,-3.5476,-3.5547,-3.5522,-3.5476,-3.5541,-3.5515,-3.546,-3.5379,-3.527,-3.5155,-3.4999,-3.4755,-3.4423,-3.4037,-3.1747,-2.9082,-2.7198,-2.3953,-2.0931,-1.9459,-1.8691,-1.8452,-1.8998,-1.8942,-1.8998,-1.9507,-2.0031,-2.042,-2.0858,-2.1439,-2.1963,-2.2211,-2.2787,-2.339,-2.406,-2.5148,-2.6065,-2.673,-2.7731,-2.8465,-2.8947,-2.951,-2.9935,-3.0055,-3.0561,-3.0908,-3.1074,-3.0432,-3.0308,-3.0619,-3.0009,-2.9752,-2.9819,-2.9383,-2.9351,-2.9685,-3.0268,-3.0254,-2.9644,-2.8078,-2.6427,-2.4731,-2.293,-2.1907,-2.1404,-2.1728,-2.2917,-2.4707,0.0,0.0,0.0,0.0,0.0,0.0,0.0,0.0,0.0,0.0,0.0,0.0,0.0,0.0,-3.3287,-3.3008,-3.3491,-3.39,-3.4179,-3.4197,-3.4221,-3.4269,-3.4269,-3.4293,-3.434,0.0,0.0,0.0,0.0,0.0,0.0,-3.5354,-3.5398,-3.5315,-3.5315,-3.5285,0.0,-3.5223,-3.5258,-3.5308,-3.5308,-3.532,-3.533,-3.5379,-3.522,-3.4999,-3.5053,-3.5059,-3.5072,-3.514,-3.5321,-3.5528,-3.5584,-3.5547,-3.5501,-3.5476,-3.5388,-3.5266,-3.5136,-3.4996,-3.4775,-3.4383,-3.2111,-2.9216,-2.621,-2.3471,-2.0805,-1.8352,-1.8124,-1.8654,-1.9473,-1.9539,-1.9649,-2.0226,-2.0677,-2.106,-2.1451,-2.1951,-2.2334,-2.2592,-2.315,-2.3657,-2.4072,-2.497,-2.5682,-2.617,-2.6837,-2.7326,-2.7668,-2.8254,-2.8648,-2.8767,-2.9236,-2.9614,-2.9879,-2.9239,-2.9107,-2.9551,-2.9178,-2.9069,-2.9119,-2.8918,-2.8894,-2.899,-2.9244,-2.9248,-2.8956,-2.7926,-2.6614,-2.5028,-2.329,-2.2209,-2.1624,-2.0877,-2.168,-2.3277,0.0,0.0,0.0,0.0,0.0,0.0,0.0,0.0,0.0,0.0,0.0,0.0,0.0,0.0,0.0,-3.292,-3.2971,-3.3348,-3.4104,-3.4203,-3.4269,-3.4386,-3.4404,-3.4473,-3.4602,0.0,0.0,0.0,0.0,0.0,0.0,0.0,-3.5412,-3.5296,-3.5364,-3.5364,-3.5315,-3.5315,-3.5315,-3.5296,-3.5296,-3.533,-3.5374,-3.5393,-3.4903,-3.4212,-3.4186,-3.4212,-3.4205,-3.4276,-3.4855,-3.5565,-3.5589,-3.5565,-3.5509,-3.5585,-3.5366,-3.5178,0.0,0.0,0.0,-3.4865,-3.2686,-2.9766,-2.6486,-2.3787,-2.1132,-1.8335,-1.8131,-1.8706,-1.9553,-1.9933,-2.042,-2.1262,-2.1702,-2.2013,-2.2347,-2.2726,-2.2969,-2.3138,-2.3424,-2.3548,-2.3431,-2.4325,-2.4747,-2.4476,-2.5367,-2.6168,-2.6611,-2.7153,-2.7646,-2.8134,-2.7979,-2.7904,-2.794,-2.8063,-2.8273,-2.8557,-2.9393,-2.9728,-2.962,-3.0089,-2.998,-2.9489,-2.937,-2.9075,-2.8529,-2.7683,-2.6503,-2.5013,-2.2694,-2.168,-2.1544,-2.0808,-2.0556,-2.0937,0.0,0.0,0.0,0.0,0.0,0.0,0.0,0.0,0.0,0.0,0.0,0.0,-3.1002,-3.0931,-3.1288,-3.2191,-3.281,-3.3239,-3.3463,-3.4113,-3.4517,-3.4539,-3.4539,-3.4561,-3.4602,0.0,0.0,0.0,0.0,0.0,0.0,0.0,0.0,0.0,-3.5412,-3.546,-3.5446,-3.533,-3.533,-3.5364,-3.5364,-3.5028,-3.4609,-3.5243,-3.493,-3.4199,-3.4243,-3.428,-3.4276,-3.4348,-3.4491,-3.4759,-3.5407,-3.5589,-3.5577,-3.5577,-3.5496,-3.5397,-3.5416,0.0,0.0,0.0,0.0,0.0,-2.9716,-2.7341,-2.5102,-2.4175,-2.279,-2.1968,-2.276,-2.1606,-2.0794,-2.1788,-2.2049,-2.2297,-2.2836,-2.3017,-2.3198,-2.3641,-2.3444,-2.3563,-2.4123,-2.4218,-2.4447,-2.4995,-2.5269,-2.5437,-2.5479,-2.5566,-2.6193,-2.7437,-2.7519,-2.7947,-2.8833,-2.8883,-2.9062,-2.9378,-2.9607,-2.9744,-2.9823,-2.9846,-2.964,-2.9246,-2.9589,-2.9395,-2.8734,-2.8075,-2.7102,-2.5819,-2.4213,-2.308,-2.2235,-2.119,-2.0555,-2.0368,0.0,0.0,0.0,0.0,0.0,0.0,0.0,0.0,0.0,0.0,0.0,0.0,-3.019,-3.0139,-3.0534,-3.1478,-3.2264,-3.2884,-3.3219,-3.407,-3.4623,-3.4687,-3.4687,-3.4708,-3.473,0.0,0.0,0.0,0.0,0.0,0.0,0.0,0.0,0.0,0.0,0.0,-3.5493,-3.5412,-3.5412,-3.5446,-3.5412,-3.5139,-3.4757,-3.4911,-3.4437,-3.3665,-3.333,-3.323,-3.3313,-3.3721,-3.4301,-3.4966,-3.5488,-3.5635,-3.5637,-3.5643,-3.5601,-3.5577,-3.5496,-3.5528,-3.5572,-3.5444,0.0,0.0,-3.1305,-2.9702,-2.8108,-2.6813,-2.5493,-2.4438,-2.3997,-2.2779,-2.1902,-2.1956,-2.2099,-2.2396,-2.3017,-2.3365,-2.3721,-2.4041,-2.3958,-2.4048,-2.4448,-2.4406,-2.4546,-2.5009,-2.514,-2.5176,-2.5175,-2.5014,-2.5495,-2.6825,-2.716,-2.7805,-2.8783,-2.8979,-2.9229,-2.9573,-2.9919,-3.0143,-3.0262,-3.0439,-3.0261,-2.9779,-3.0018,-2.9758,-2.9042,-2.844,-2.743,-2.6036,-2.4503,-2.3329,-2.2396,-2.1437,-2.0818,-2.0401,0.0,0.0,0.0,0.0,0.0,0.0,0.0,0.0,0.0,0.0,0.0,0.0,-2.9567,-2.9531,-2.985,-3.0696,-3.1599,-3.2425,-3.3137,-3.4097,-3.4687,-3.4809,-3.4809,-3.483,-3.4908,0.0,0.0,0.0,0.0,0.0,0.0,0.0,0.0,0.0,0.0,0.0,-3.5507,-3.5493,-3.5493,-3.5493,-3.5446,-3.5331,-3.5141,-3.4449,-3.3647,-3.276,-3.1981,-3.1736,-3.1921,-3.2822,-3.4206,-3.5579,-3.5687,-3.5718,-3.5708,-3.5708,-3.5698,-3.5698,-3.5629,-3.5658,-3.5698,-3.5708,-3.5707,0.0,-3.218,-3.153,-3.0774,-2.8108,-2.7404,-2.6684,-2.4792,-2.4253,-2.3806,-2.2569,-2.2658,-2.2937,-2.3173,-2.3826,-2.435,-2.4408,-2.4654,-2.4735,-2.4662,-2.4815,-2.4858,-2.478,-2.5043,-2.5329,-2.5533,-2.5191,-2.5456,-2.6519,-2.701,-2.7602,-2.8326,-2.8786,-2.9178,-2.9521,-3.0261,-3.0659,-3.0748,-3.1347,-3.1278,-3.0651,-3.0526,-3.0044,-2.9289,-2.8748,-2.7575,-2.5937,-2.4187,-2.2997,-2.2245,-2.1593,-2.1149,-2.0779,-3.1455,0.0,0.0,0.0,0.0,0.0,0.0,0.0,0.0,0.0,0.0,0.0,-2.9719,-2.9682,-2.9757,-2.9999,-3.1393,-3.2336,-3.2487,-3.3979,-3.485,-3.487,-3.4889,-3.4889,-3.4908,-3.4889,0.0,0.0,0.0,0.0,0.0,0.0,0.0,0.0,0.0,0.0,-3.5489,-3.5441,-3.546,-3.5493,-3.5493,-3.4647,-3.3468,-3.3987,-3.3294,-3.2003,-3.178,-3.1736,-3.1932,-3.287,-3.3877,-3.4855,-3.5562,-3.5773,-3.5782,-3.5773,-3.5773,-3.5773,-3.5754,-3.5736,-3.5726,-3.5818,-3.5815,0.0,-3.5073,-3.4867,-3.4542,-3.371,-3.1777,-3.0246,-3.0188,-2.8496,-2.713,-2.7288,-2.7299,-2.65,-2.4097,-2.4131,-2.4624,-2.5119,-2.4915,-2.4959,-2.5472,-2.5164,-2.4965,-2.5154,-2.5379,-2.5779,-2.6326,-2.5818,-2.6121,-2.7415,-2.7532,-2.8128,-2.9215,-2.9603,-2.9856,-3.0038,-3.052,-3.0825,-3.0954,-3.0977,-3.0804,-3.0526,-3.0231,-2.9957,-2.9677,-2.8966,-2.7739,-2.6222,-2.5245,-2.3897,-2.2505,-2.1957,-2.1225,-2.0467,-3.1057,0.0,0.0,0.0,0.0,0.0,0.0,0.0,0.0,0.0,-2.9177,-2.9293,-2.9608,-2.9701,-2.9942,-3.0445,-3.1635,-3.2524,-3.2959,-3.4188,-3.4927,-3.4945,-3.4945,-3.4983,-3.5001,-3.5001,-3.5038,0.0,0.0,0.0,0.0,0.0,0.0,0.0,0.0,0.0,-3.5547,-3.5476,-3.5482,-3.5457,-3.4993,-3.4301,-3.3506,-3.3103,-3.2447,-3.1695,-3.127,-3.1419,-3.199,-3.2897,-3.3768,-3.4639,-3.5538,-3.5815,-3.585,-3.585,-3.585,-3.585,-3.5845,-3.5803,-3.5776,-3.5866,-3.5872,0.0,0.0,-3.5844,-3.5747,-3.5535,-3.4375,-3.302,-3.179,-3.0462,-2.9285,-2.8481,-2.8331,-2.7914,-2.6688,-2.6278,-2.6076,-2.604,-2.5824,-2.5902,-2.6484,-2.6205,-2.6079,-2.6322,-2.6191,-2.6243,-2.6572,-2.6101,-2.6289,-2.7349,-2.7504,-2.8091,-2.9074,-2.9454,-2.9766,-3.0,-3.0225,-3.0477,-3.0855,-3.0593,-3.0468,-3.0316,-2.9957,-2.9694,-2.9425,-2.8858,-2.7997,-2.6946,-2.5809,-2.4526,-2.3182,-2.2543,-2.1628,-2.0669,-3.0656,-3.0585,0.0,0.0,0.0,0.0,0.0,0.0,0.0,-2.8594,-2.9002,-2.941,-2.9736,-3.0076,-3.0615,-3.1347,-3.2179,-3.2956,-3.3657,-3.4472,-3.4945,-3.5001,-3.502,-3.5038,-3.5092,-3.5092,-3.5092,0.0,0.0,0.0,0.0,0.0,0.0,0.0,0.0,0.0,-3.5604,-3.5528,-3.5419,-3.5188,-3.4257,-3.3897,-3.3776,-3.2269,-3.16,-3.1386,-3.0751,-3.1013,-3.1812,-3.2865,-3.3685,-3.4447,-3.5485,-3.5864,-3.5892,-3.5892,-3.5892,-3.5898,-3.5891,-3.5879,-3.5853,-3.5908,-3.5928,-3.5917,0.0,0.0,0.0,-3.5822,-3.5779,-3.5009,-3.2623,-3.2122,-3.1496,-2.9712,-2.9348,-2.9431,-2.9939,-2.915,-2.8201,-2.7294,-2.7151,-2.7282,-2.7535,-2.7414,-2.7357,-2.7452,-2.7096,-2.6831,-2.6782,-2.6447,-2.6559,-2.7137,-2.7393,-2.7859,-2.8606,-2.8967,-2.9289,-2.9661,-2.9722,-3.0027,-3.0568,-3.0231,-3.0087,-3.0044,-2.9677,-2.938,-2.9167,-2.8795,-2.8383,-2.7784,-2.6347,-2.5148,-2.4066,-2.3255,-2.2286,-2.125,-2.9059,-2.9009,-2.893,0.0,0.0,0.0,0.0,0.0,0.0,-2.891,-2.9754,-3.0437,-3.0715,-3.1562,-3.2142,-3.2255,-3.3105,-3.3673,-3.3695,-3.4564,-3.5038,-3.5001,-3.5057,-3.5092,-3.5092,-3.5092,-3.5092,-3.5092,0.0,0.0,0.0,0.0,0.0,0.0,-3.5637,-3.5665,-3.5601,-3.5584,-3.5148,-3.4364,-3.3477,-3.3094,-3.2949,-3.2042,-3.1268,-3.0625,-3.0597,-3.0651,-3.1006,-3.2713,-3.3343,-3.3719,-3.5365,-3.5883,-3.5903,-3.5903,-3.5894,-3.5904,-3.5904,-3.5929,-3.5977,-3.5981,-3.6001,-3.5997,-3.5981,0.0,-3.5894,-3.5895,0.0,-3.5767,-3.5438,0.0,0.0,-3.4653,-3.416,-3.3611,-3.2939,-3.2273,-3.1143,-2.9247,-2.8854,-2.8701,-2.8528,-2.8238,-2.7989,-2.779,-2.783,-2.7735,-2.752,-2.7309,-2.736,-2.7685,-2.7605,-2.7784,-2.8268,-2.8444,-2.8748,-2.9166,-2.9425,-2.9738,-3.006,-2.9766,-2.9677,-2.9633,-2.9305,-2.9259,-2.9425,-2.9013,-2.8811,-2.8606,-2.7129,-2.5849,-2.4741,-2.4266,-2.3327,-2.2187,-2.8881,-2.8767,-2.8694,0.0,0.0,0.0,0.0,0.0,-2.8637,-2.8743,-2.9374,-3.0025,-3.0592,-3.128,-3.2103,-3.3124,-3.3559,-3.3995,-3.4488,-3.4884,-3.5092,-3.5129,-3.5147,-3.5164,-3.516,-3.516,-3.516,-3.516,-3.516,0.0,0.0,0.0,0.0,0.0,-3.5727,-3.5728,-3.5658,-3.5665,-3.5129,-3.4226,-3.3346,-3.2686,-3.2112,-3.1306,-3.0788,-3.051,-3.0576,-3.0956,-3.1608,-3.2869,-3.3634,-3.428,-3.5505,-3.5894,-3.5889,-3.5899,-3.5904,-3.5909,-3.5958,-3.5986,-3.5994,-3.6001,-3.6001,-3.6001,-3.6001,-3.5977,-3.595,-3.5917,0.0,0.0,0.0,0.0,0.0,0.0,-3.516,-3.4697,-3.4337,-3.3592,-3.242,-3.0605,-3.0137,-2.9805,-2.9361,-2.8889,-2.8494,-2.8253,-2.8088,-2.7905,-2.7625,-2.7524,-2.759,-2.7675,-2.7625,-2.7725,-2.7989,-2.8103,-2.8332,-2.87,-2.8951,-2.9305,-2.9694,-2.9425,-2.9425,-2.9589,-2.9259,-2.9167,-2.9259,-2.9013,-2.8826,-2.8653,-2.778,-2.6768,-2.5741,-2.4993,-2.3962,-2.2834,-2.8929,-2.8815,-2.8743,-2.8737,0.0,0.0,0.0,-2.8767,-2.8773,-2.8773,-2.9329,-3.0029,-3.0852,-3.1506,-3.2517,-3.3995,-3.4163,-3.4447,-3.5054,-3.511,-3.5164,-3.52,-3.5217,-3.5231,-3.5209,-3.5226,-3.5226,-3.5209,0.0,0.0,0.0,0.0,0.0,0.0,-3.5834,-3.5791,-3.5727,-3.5708,-3.5039,-3.3933,-3.3302,-3.2373,-3.132,-3.0721,-3.052,-3.054,-3.0602,-3.122,-3.2136,-3.3025,-3.391,-3.4789,-3.5632,-3.5904,-3.5924,-3.5929,-3.5938,-3.5938,-3.5986,-3.5997,-3.6004,-3.5991,-3.5991,-3.5991,-3.5991,-3.5991,-3.5999,-3.5934,-3.5937,0.0,0.0,0.0,-3.5827,-3.5775,0.0,-3.5193,-3.509,-3.4447,-3.3448,-3.1964,-3.1273,-3.07,-3.0175,-2.9512,-2.8982,-2.8638,-2.8317,-2.7955,-2.7625,-2.7625,-2.7625,-2.7625,-2.7625,-2.7675,-2.784,-2.7955,-2.8152,-2.8444,-2.87,-2.9014,-2.9335,-2.9167,-2.9243,-2.9454,-2.9213,-2.9121,-2.9213,-2.9013,-2.8873,-2.87,-2.8268,-2.7595,-2.6745,-2.5618,-2.454,-2.3492,-2.8994,-2.8929,-2.8881,-2.881,-2.8737,-2.8767,-2.8957,-2.9163,-2.9272,-2.9272,-3.0185,-3.1147,-3.1955,-3.3053,-3.4052,-3.4887,-3.5091,-3.5145,-3.5092,-3.516,-3.5196,-3.52,-3.5264,-3.5261,-3.5209,-3.527,-3.527,-3.5209,0.0,0.0,0.0,0.0,0.0,0.0,-3.5905,-3.5857,-3.5791,-3.5727,-3.4758,-3.3227,-3.3132,-3.2116,-3.0627,-3.052,-3.054,-3.061,-3.0676,-3.1255,-3.2149,-3.3073,-3.3989,-3.4837,-3.5656,-3.5938,-3.6005,-3.6005,-3.599,-3.5997,-3.6001,-3.6004,-3.5991,-3.5991,-3.5991,-3.5991,-3.5991,-3.5991,-3.5994,-3.5994,-3.5994,-3.5994,-3.5996,-3.5993,-3.5976,-3.5893,-3.5823,0.0,0.0,-3.5094,-3.4566,-3.346,-3.2174,-3.1278,-3.1004,-3.0243,-2.9496,-2.8841,-2.8527,-2.8152,-2.7625,-2.7625,-2.7625,-2.7625,-2.7625,-2.774,-2.8005,-2.802,-2.8201,-2.8589,-2.8747,-2.8826,-2.8904,-2.9013,-2.9121,-2.9137,-2.9121,-2.9259,-2.947,-2.9213,-2.9106,-2.9044,-2.8573,-2.8152,-2.7625,-2.6312,-2.5258,-2.4337,-2.8994,-2.8994,-2.8947,-2.8881,-2.881,-2.8839,-2.9034,-2.9212,-2.9522,-3.0143,-3.062,-3.145,-3.2864,-3.3505,-3.4143,-3.5053,-3.5164,-3.5181,-3.516,-3.5193,-3.5209,-3.5264,-3.5296,-3.5293,-3.527,-3.53,-3.53,-3.527,-3.5285,0.0,0.0,0.0,0.0,0.0,0.0,-3.5885,-3.5857,-3.585,-3.4816,-3.3095,-3.1972,-3.1177,-3.0665,-3.0597,-3.0577,-3.0687,-3.1324,-3.2117,-3.3005,-3.3896,-3.4769,-3.5539,-3.588,-3.5981,-3.6005,-3.5994,-3.5997,-3.6001,-3.6001,-3.6007,-3.5991,-3.5991,-3.5991,-3.5991,-3.5991,-3.5991,-3.5991,-3.5991,-3.5991,-3.5996,-3.6005,-3.6005,-3.5992,-3.5973,-3.5864,-3.5767,0.0,-3.5226,-3.4718,-3.4128,-3.3069,-3.2177,-3.1699,-3.0761,-2.9946,-2.9374,-2.8669,-2.8088,-2.7725,-2.7625,-2.7625,-2.7625,-2.7625,-2.7625,-2.774,-2.7905,-2.8054,-2.8201,-2.8604,-2.8826,-2.8826,-2.9045,-2.9075,-2.9075,-2.9075,-2.9259,-2.947,-2.9213,-2.9167,-2.9198,-2.8716,-2.8284,-2.7825,-2.6774,-2.5851,-2.4894,-2.904,-2.9017,-2.8994,-2.8905,-2.8962,-2.9056,-2.9193,-2.9661,-3.0246,-3.0829,-3.126,-3.205,-3.3449,-3.3728,-3.4194,-3.5124,-3.5198,-3.5196,-3.5209,-3.5226,-3.5242,-3.5312,-3.5324,-3.532,-3.5315,-3.535,-3.535,-3.5315,-3.5336,-3.5476,0.0,0.0,0.0,0.0,0.0,-3.5894,-3.5905,-3.5911,-3.5048,-3.3549,-3.1844,-3.0989,-3.0729,-3.1006,-3.0909,-3.0754,-3.1676,-3.2584,-3.3471,-3.433,-3.5203,-3.5938,-3.5986,-3.5994,-3.5997,-3.6004,-3.6004,-3.6004,-3.6004,-3.6007,-3.5991,-3.5991,-3.5991,-3.5991,-3.5991,-3.5991,-3.5991,-3.5991,-3.5991,-3.5996,-3.6003,-3.6009,-3.5994,-3.5993,-3.5923,-3.5838,0.0,-3.5271,-3.4831,-3.4508,-3.3723,-3.2903,-3.2248,-3.1346,-3.0476,-2.9657,-2.8842,-2.822,-2.784,-2.7675,-2.7625,-2.7625,-2.7625,-2.7625,-2.7675,-2.7905,-2.8005,-2.8054,-2.8556,-2.8794,-2.8794,-2.8998,-2.9075,-2.9075,-2.9075,-2.9259,-2.947,-2.9213,-2.9167,-2.9259,-2.8763,-2.8429,-2.8024,-2.7137,-2.6108,-2.4894,-2.9089,-2.9062,-2.8975,-2.8929,-2.9191,-2.9399,-2.9399,-3.0483,-3.1321,-3.1359,-3.214,-3.2978,-3.3779,-3.3925,-3.4285,-3.5124,-3.5212,-3.519,-3.519,-3.5277,-3.5293,-3.5293,-3.5369,-3.5364,-3.5315,-3.5427,-3.5446,-3.5315,-3.5451,0.0,0.0,0.0,0.0,0.0,-3.5923,-3.589,-3.5909,-3.5905,-3.5399,-3.4439,-3.2759,-3.1579,-3.0911,-3.1753,-3.1553,-3.0956,-3.1812,-3.2692,-3.3595,-3.4462,-3.5314,-3.6005,-3.5997,-3.6004,-3.5991,-3.5991,-3.5991,-3.5991,-3.5991,-3.5991,-3.5991,-3.5991,-3.5991,-3.5994,-3.5994,-3.5994,-3.5991,-3.5991,-3.5991,-3.5991,-3.5991,-3.5995,-3.5991,-3.5991,-3.6001,-3.5903,-3.5655,-3.5282,-3.4925,-3.4659,-3.4099,-3.3419,-3.2616,-3.1898,-3.0965,-2.9745,-2.9042,-2.8463,-2.784,-2.7675,-2.7625,-2.7625,-2.7625,-2.7675,-2.779,-2.7905,-2.8054,-2.8186,-2.8589,-2.8794,-2.8794,-2.8998,-2.9121,-2.9121,-2.9121,-2.9305,-2.9515,-2.9259,-2.9213,-2.9305,-2.8811,-2.8541,-2.8299,-2.7393,-2.604,-2.4452,-2.9156,-2.9112,-2.9044,-2.8994,-2.9293,-2.9551,-2.9551,-3.0589,-3.1615,-3.226,-3.3064,-3.3884,-3.4757,-3.4852,-3.498,-3.5261,-3.5261,-3.5273,-3.527,-3.5285,-3.532,-3.5369,-3.5398,-3.5412,-3.5446,-3.5474,-3.5474,-3.5446,-3.5526,0.0,-3.5693,0.0,0.0,0.0,-3.5974,-3.597,-3.5981,-3.5924,-3.5402,-3.4514,-3.3457,-3.2912,-3.2736,-3.297,-3.2892,-3.282,-3.3634,-3.4119,-3.4482,-3.5305,-3.5767,-3.5997,-3.5997,-3.6004,-3.5991,-3.5991,-3.5991,-3.5991,-3.5991,-3.5991,-3.5991,-3.5991,-3.5991,-3.5996,-3.6005,-3.6001,-3.5991,-3.5991,-3.5991,-3.5991,-3.5991,-3.5996,-3.6001,-3.601,-3.5955,-3.587,-3.5772,-3.5488,-3.5196,-3.4924,-3.4548,-3.3986,-3.3166,-3.2108,-3.1147,-3.0303,-2.9374,-2.859,-2.8005,-2.7905,-2.779,-2.7625,-2.7625,-2.7625,-2.7625,-2.7905,-2.8005,-2.8054,-2.8556,-2.8794,-2.8794,-2.8998,-2.9213,-2.938,-2.938,-2.9649,-3.0017,-2.9722,-2.9633,-2.9633,-2.9243,-2.8811,-2.825,-2.7225,-2.6147,-2.5231,-2.924,-2.9197,-2.9134,-2.9089,-2.9714,-3.0207,-3.017,-3.112,-3.2175,-3.3142,-3.3987,-3.4694,-3.5187,-3.5223,-3.5254,-3.5289,-3.5289,-3.5304,-3.53,-3.533,-3.5364,-3.5398,-3.5427,-3.546,-3.5493,-3.5501,-3.5509,-3.554,-3.5639,-3.5724,-3.5794,0.0,0.0,0.0,-3.6001,-3.5997,-3.599,-3.5962,-3.5446,-3.4603,-3.4155,-3.3745,0.0,-3.3823,-3.3979,-3.4077,-3.4915,-3.4978,-3.4822,-3.5669,-3.597,-3.6001,-3.6004,-3.6007,-3.5991,-3.5991,-3.5991,-3.5991,-3.5991,-3.5991,-3.5991,-3.5991,-3.5991,-3.5996,-3.6009,-3.6009,-3.6005,-3.5994,-3.6001,-3.5991,-3.5995,-3.5993,-3.6003,-3.6003,-3.5939,-3.5899,-3.5859,-3.5602,-3.5335,-3.5095,-3.4775,-3.4353,-3.3725,-3.2656,-3.1631,-3.079,-2.9972,-2.912,-2.8268,-2.8171,-2.791,-2.7423,-2.7524,-2.7625,-2.7625,-2.794,-2.8103,-2.8103,-2.8556,-2.8794,-2.8794,-2.8998,-2.9167,-2.9335,-2.9425,-2.9694,-3.0,-2.9766,-2.9722,-2.9766,-2.9319,-2.8842,-2.8299,-2.753,-2.6625,-2.5659,-2.9302,-2.924,-2.9222,-2.9225,-3.0187,-3.0996,-3.1109,-3.1989,-3.2961,-3.388,-3.4757,-3.5293,-3.5293,-3.5304,-3.5296,-3.5315,-3.5315,-3.5315,-3.533,-3.5379,-3.5412,-3.5407,-3.5474,-3.5488,-3.5507,-3.5509,-3.5546,-3.5599,-3.5752,-3.5846,-3.5889,0.0,0.0,0.0,-3.6004,-3.6001,-3.6001,-3.599,-3.5557,-3.4874,-3.4874,-3.4425,-3.3824,-3.4581,-3.4874,-3.4971,-3.5732,-3.5513,-3.4983,-3.574,-3.6001,-3.6004,-3.601,-3.5991,-3.5991,-3.5991,-3.5991,-3.5991,-3.5991,-3.5994,-3.5994,-3.5994,-3.5991,-3.5996,-3.5991,-3.5995,-3.5996,-3.6005,-3.5994,-3.5994,-3.5996,-3.6003,-3.6005,-3.5991,-3.5938,-3.5908,-3.5903,-3.5687,-3.5425,-3.5162,-3.4884,0.0,-3.4203,-3.3259,-3.2262,-3.1257,-3.0737,-2.9919,-2.867,-2.848,-2.8061,-2.7284,-2.7524,-2.7625,-2.7625,-2.7974,-2.8186,-2.8186,-2.8589,-2.8794,-2.8794,-2.8998,-2.9121,-2.9167,-2.9441,-2.9633,-2.9853,-2.9677,-2.9677,-2.975,-2.9136,-2.8748,-2.8396,-2.8122,-2.7261,-2.6026,-2.9323,-2.9302,-2.9307,-2.9357,-3.013,-3.1111,-3.2145,-3.3165,-3.3872,-3.4055,-3.4783,-3.53,-3.53,-3.53,-3.5315,-3.5379,-3.5379,-3.5412,-3.546,-3.5493,-3.5488,-3.5489,-3.5489,-3.5522,-3.5573,-3.5573,-3.562,-3.5679,-3.5811,-3.5885,-3.5889,0.0,0.0,0.0,-3.5991,-3.6007,-3.6001,-3.5997,-3.5916,-3.5771,-3.5771,-3.5674,-3.5557,-3.5713,-3.5771,-3.5791,-3.5955,-3.59,-3.5802,-3.5958,-3.6004,-3.5991,-3.5991,-3.5991,-3.5991,-3.5991,-3.5991,-3.5991,-3.5991,-3.6001,-3.6007,-3.5996,-3.5991,-3.5999,-3.5995,-3.5996,-3.5996,-3.6009,-3.6003,-3.5999,-3.5994,-3.5994,-3.5971,-3.5935,-3.5909,-3.5903,-3.5892,-3.5765,-3.5585,-3.5372,-3.5114,-3.4832,-3.4539,-3.3633,-3.2827,-3.2175,-3.1519,-3.0573,-2.9291,-2.91,-2.856,-2.756,-2.779,-2.784,-2.7625,-2.7974,-2.8186,-2.8186,-2.8589,-2.8794,-2.8794,-2.8998,-2.9213,-2.9425,-2.9633,-2.9897,-3.0146,-3.0258,-3.0113,-2.9766,-2.9243,-2.8905,-2.87,-2.8284,-2.7645,-2.6797,-2.9453,-2.9453,-2.9624,-3.0189,-3.1107,-3.2079,-3.3115,-3.417,-3.4817,-3.4769,-3.5115,-3.5364,-3.5364,-3.5379,-3.5412,-3.5446,-3.546,-3.5474,-3.5495,-3.5495,-3.5509,-3.5547,-3.5547,-3.5573,-3.5605,-3.5667,-3.5736,-3.5795,-3.5872,-3.5922,-3.5947,-3.5985,-3.5991,-3.5991,-3.5991,-3.601,-3.6007,-3.6007,-3.6004,-3.6001,-3.6001,-3.6001,-3.6001,-3.6001,-3.6001,-3.6001,-3.6004,-3.6007,-3.6007,-3.6007,-3.6007,-3.5991,-3.5991,-3.5991,-3.5991,-3.5991,-3.5999,-3.6001,-3.5994,-3.5999,-3.6003,-3.6009,-3.5991,-3.5992,-3.5996,-3.5995,-3.6007,-3.5996,-3.5991,-3.5991,-3.5991,-3.5991,-3.5988,-3.5912,-3.5904,-3.5897,-3.5852,-3.5791,-3.5679,-3.547,-3.5254,-3.503,-3.4832,-3.4223,-3.3552,-3.2942,-3.2331,-3.1428,-3.0079,-2.9729,-2.9069,-2.7978,-2.7989,-2.7955,-2.779,-2.8317,-2.851,-2.8429,-2.8858,-2.8998,-2.8858,-2.9029,-2.9167,-2.9305,-2.956,-2.9782,-3.0,-3.0087,-2.9853,-2.9425,-2.9213,-2.8951,-2.8747,-2.8444,-2.781,-2.6967,-2.9925,-3.0093,-3.0467,-3.1333,-3.2298,-3.3192,-3.3887,-3.487,-3.5507,-3.5427,-3.5412,-3.5412,-3.5412,-3.5474,-3.5501,-3.5501,-3.5501,-3.5528,-3.5515,-3.5515,-3.5547,-3.5623,-3.563,-3.5618,-3.5649,-3.5766,-3.5859,-3.5914,-3.5928,-3.5953,-3.5996,-3.5996,-3.5996,-3.5996,-3.5994,-3.5991,-3.5991,-3.5991,-3.5991,-3.5994,-3.5996,-3.5996,-3.5991,-3.5991,-3.5991,-3.5991,-3.5991,-3.5994,-3.5996,-3.5996,-3.5994,-3.5991,-3.5991,-3.5991,-3.5991,-3.5991,-3.6003,-3.5992,-3.6003,-3.6001,-3.6007,-3.5996,-3.5995,-3.5995,-3.5996,-3.601,-3.5996,-3.5994,-3.5991,-3.5991,-3.5991,-3.5991,-3.5962,-3.5903,-3.5899,-3.5885,-3.5818,-3.5807,-3.5727,-3.5562,-3.538,-3.5234,-3.51,-3.4755,-3.4292,-3.3695,-3.316,-3.2279,-3.0963,-3.0513,-2.9783,-2.8732,-2.8575,-2.8463,-2.84,-2.8842,-2.8967,-2.8811,-2.9121,-2.9198,-2.9013,-2.9075,-2.9075,-2.9121,-2.938,-2.9589,-2.9793,-2.9793,-2.9544,-2.9167,-2.9121,-2.8998,-2.8779,-2.8541,-2.7974,-2.7174,-3.1042,-3.1686,-3.2321,-3.2584,-3.3322,-3.3972,-3.4224,-3.502,-3.5566,-3.5507,-3.5493,-3.5493,-3.5493,-3.5495,-3.5502,-3.5502,-3.5547,-3.5591,-3.5591,-3.5591,-3.5623,-3.5685,-3.5685,-3.5755,-3.5878,-3.588,-3.5923,-3.5995,-3.5991,-3.5987,-3.601,-3.601,-3.601,-3.6009,-3.5999,-3.5991,-3.5991,-3.5991,-3.5991,-3.5994,-3.6005,-3.6003,-3.5991,-3.5991,-3.5991,-3.5991,-3.5991,-3.6001,-3.601,-3.601,-3.6003,-3.5991,-3.5991,-3.5991,-3.5991,-3.5991,-3.6009,-3.5996,-3.5996,-3.5996,-3.5996,-3.6003,-3.5996,-3.5999,-3.5991,-3.5991,-3.6007,-3.5996,-3.5991,-3.5991,-3.5991,-3.5942,-3.5903,-3.5899,-3.5911,-3.5872,-3.5807,-3.5799,-3.5765,-3.5688,-3.5566,-3.5444,-3.5378,-3.517,-3.4952,-3.4774,-3.3882,-3.2924,-3.1934,-3.1634,-3.1079,-3.0046,-3.0044,-2.9976,-2.974,-2.9597,-2.9499,-2.9425,-2.935,-2.9305,-2.9259,-2.9167,-2.9075,-2.9121,-2.938,-2.9589,-2.9793,-2.9793,-2.9677,-2.9425,-2.9213,-2.9013,-2.8873,-2.8668,-2.8317,-2.781,-3.2139,-3.2441,-3.2886,-3.3577,-3.3968,-3.4385,-3.4993,-3.5379,-3.5591,-3.5554,-3.5554,-3.5554,-3.5554,-3.5566,-3.556,-3.556,-3.5572,-3.5604,-3.5608,-3.5635,-3.5666,-3.5701,-3.5778,-3.5847,-3.5908,-3.5944,-3.5971,-3.5996,-3.5996,-3.5995,-3.5995,-3.5995,-3.5995,-3.5995,-3.5993,-3.601,-3.6005,-3.6005,-3.6001,-3.5994,-3.6007,-3.5992,-3.5992,-3.6007,-3.6005,-3.6003,-3.5996,-3.5996,-3.6003,-3.6009,-3.6009,-3.6005,-3.6005,-3.5999,-3.5991,-3.5991,-3.5995,-3.6007,-3.6007,-3.5992,-3.5993,-3.6007,-3.5999,-3.5994,-3.5999,-3.5591,-3.5376,-3.5896,-3.5991,-3.5991,-3.5939,-3.5912,-3.5895,-3.5891,-3.5892,-3.5884,-3.5801,-3.581,-3.5782,-3.5757,-3.5599,-3.5523,-3.5562,-3.532,-3.5166,-3.5205,-3.4482,-3.3751,-3.3063,-3.2464,-3.1882,-3.1293,-3.0706,-3.0393,-3.0344,-3.0227,-3.0081,-2.9837,-3.0027,-3.0044,-2.9842,-2.9782,-2.971,-2.9621,-2.9694,-2.9633,-2.9633,-2.9766,-2.9589,-2.9259,-2.9121,-2.9013,-2.8873,-2.8653,-2.8332,-2.791,-3.3237,-3.3481,-3.3872,-3.4593,-3.472,-3.4913,-3.555,-3.5628,-3.5628,-3.5628,-3.5628,-3.5616,-3.5604,-3.5604,-3.5596,-3.5596,-3.5616,-3.5639,-3.5631,-3.567,-3.5715,-3.5737,-3.5843,-3.5902,-3.5937,-3.5986,-3.5995,-3.5996,-3.5996,-3.5996,-3.5996,-3.5996,-3.5996,-3.5996,-3.5996,-3.5996,-3.5994,-3.5994,-3.5991,-3.6005,-3.5992,-3.5995,-3.5996,-3.5995,-3.5994,-3.5993,-3.6007,-3.6007,-3.5993,-3.5996,-3.5996,-3.5995,-3.5996,-3.5994,-3.6009,-3.6009,-3.5996,-3.5999,-3.5994,-3.6001,-3.6007,-3.6007,-3.6001,-3.5932,-3.5681,-3.5135,-3.4861,-3.5486,-3.5812,-3.5962,-3.5908,-3.5895,-3.5894,-3.5911,-3.5872,-3.585,-3.5821,-3.5801,-3.581,-3.5793,-3.5669,-3.562,-3.5718,-3.5523,-3.5419,-3.5514,-3.507,-3.4525,-3.3876,-3.3222,-3.2762,-3.2453,-3.1688,-3.1206,-3.1168,-3.1082,-3.0834,-3.0351,-3.0658,-3.0634,-3.0274,-3.0248,-3.0103,-3.0017,-2.9941,-2.981,-2.9589,-2.9766,-2.9589,-2.9213,-2.9121,-2.9029,-2.892,-2.8716,-2.8429,-2.8073,-3.4369,-3.5065,-3.5665,-3.5684,-3.5684,-3.5684,-3.5704,-3.5704,-3.5704,-3.5704,-3.5704,-3.5662,-3.5604,-3.5608,-3.5601,-3.5601,-3.5673,-3.5704,-3.5704,-3.5704,-3.5727,-3.5805,-3.5862,-3.5924,-3.5999,-3.5994,-3.6001,-3.5991,-3.5991,-3.5991,-3.5992,-3.5996,-3.5996,-3.5996,-3.5996,-3.5996,-3.5996,-3.5996,-3.5996,-3.5996,-3.5996,-3.5996,-3.5996,-3.5996,-3.5996,-3.5996,-3.5996,-3.5992,-3.5994,-3.5994,-3.6003,-3.601,-3.5999,-3.6003,-3.5992,-3.5992,-3.5991,-3.6009,-3.5996,-3.5994,-3.5994,-3.5994,-3.5994,-3.5779,-3.4901,-3.4705,-3.4705,-3.4705,-3.5357,-3.5908,-3.5908,-3.5903,-3.5905,-3.5905,-3.585,-3.5799,-3.5799,-3.5799,-3.5799,-3.5791,-3.5791,-3.5791,-3.5791,-3.5791,-3.5782,-3.5803,-3.5599,-3.5119,-3.4239,-3.4116,-3.3901,-3.3496,-3.3214,-3.2876,-3.2484,-3.2281,-3.1771,-3.0975,-3.1067,-3.0868,-3.0485,-3.0274,-3.0103,-3.0017,-3.0182,-3.0081,-2.981,-2.9793,-2.9677,-2.947,-2.9213,-2.9075,-2.9075,-2.8873,-2.8604,-2.8348,-3.5348,-3.5581,-3.5775,-3.5775,-3.5728,-3.5718,-3.5766,-3.5737,-3.5695,-3.5698,-3.5698,-3.5698,-3.5678,-3.5676,-3.5673,-3.5673,-3.5697,-3.5708,-3.5704,-3.5788,-3.5853,-3.5877,-3.5932,-3.5972,-3.6007,-3.5999,-3.5994,-3.5999,-3.5999,-3.5999,-3.5999,-3.5991,-3.5994,-3.5994,-3.5994,-3.5994,-3.5994,-3.5994,-3.5994,-3.5994,-3.5994,-3.5994,-3.5994,-3.5994,-3.5994,-3.5994,-3.5994,-3.5992,-3.6005,-3.5996,-3.5996,-3.5999,-3.5994,-3.5996,-3.5999,-3.5999,-3.5962,-3.5929,-3.5938,-3.5878,-3.5795,-3.5795,-3.5801,-3.556,-3.4692,-3.4451,-3.427,-3.3718,-3.4789,-3.5807,-3.576,-3.5833,-3.5891,-3.5842,-3.5807,-3.5799,-3.5799,-3.5799,-3.5799,-3.5799,-3.5799,-3.5799,-3.5799,-3.5799,-3.5791,-3.5801,-3.5736,-3.5508,-3.5044,-3.4792,-3.4542,-3.4334,-3.3987,-3.3587,-3.3207,-3.2937,-3.2559,-3.2091,-3.1842,-3.149,-3.1021,-3.0692,-3.0568,-3.0609,-3.0393,-3.0225,-3.0044,-2.9897,-2.975,-2.9677,-2.9259,-2.9213,-2.935,-2.892,-2.8652,-2.8348,-3.5799,-3.5799,-3.5799,-3.5799,-3.5773,-3.5745,-3.5791,-3.5766,-3.5737,-3.5747,-3.5736,-3.5736,-3.5736,-3.5747,-3.5747,-3.5747,-3.5745,-3.5737,-3.5735,-3.583,-3.5892,-3.5899,-3.5957,-3.6005,-3.6005,-3.5996,-3.5991,-3.5991,-3.5991,-3.5991,-3.5994,-3.6001,-3.6005,-3.6005,-3.6005,-3.6005,-3.6005,-3.6005,-3.6005,-3.6005,-3.6005,-3.6005,-3.6005,-3.6005,-3.6005,-3.6005,-3.6005,-3.6005,-3.6003,-3.5996,-3.5991,-3.5991,-3.5991,-3.5988,-3.5962,-3.5955,-3.5929,-3.5885,-3.584,-3.5764,-3.5693,-3.5693,-3.5696,-3.5396,-3.4184,-3.4117,-3.4061,-3.3266,-3.4505,-3.5706,-3.567,-3.5708,-3.5736,-3.5679,-3.5718,-3.5756,-3.5756,-3.5782,-3.5799,-3.5799,-3.5799,-3.5799,-3.5799,-3.5799,-3.5799,-3.5799,-3.5799,-3.5727,-3.5566,-3.5235,-3.4986,-3.4832,-3.4524,-3.4188,-3.3769,-3.3681,-3.3405,-3.2867,-3.2332,-3.1914,-3.1545,-3.1157,-3.0992,-3.0935,-3.0658,-3.0468,-3.0274,-3.0044,-2.9941,-2.9897,-2.9515,-2.9425,-2.9425,-2.9045,-2.8716,-2.8396,-3.5807,-3.5807,-3.5807,-3.5807,-3.5799,-3.5799,-3.5807,-3.5799,-3.5799,-3.5818,-3.5818,-3.5818,-3.5818,-3.5807,-3.5807,-3.5807,-3.5801,-3.5813,-3.58,-3.5871,-3.5911,-3.5912,-3.5971,-3.5991,-3.5991,-3.5991,-3.5991,-3.5991,-3.5991,-3.5991,-3.5991,-3.5991,-3.5991,-3.5991,-3.5991,-3.5991,-3.5991,-3.5991,-3.5991,-3.5991,-3.5991,-3.5991,-3.5991,-3.5991,-3.5991,-3.5991,-3.5991,-3.5991,-3.5988,-3.5991,-3.5988,-3.5988,-3.5988,-3.5958,-3.5899,-3.5894,-3.5883,-3.5846,-3.5729,-3.5676,-3.5676,-3.5676,-3.5581,-3.5069,-3.3432,-3.3655,-3.3984,-3.3296,-3.4457,-3.5596,-3.5596,-3.5531,-3.5495,-3.5495,-3.5604,-3.5678,-3.5688,-3.5747,-3.5782,-3.5791,-3.5791,-3.5799,-3.5799,-3.5799,-3.5799,-3.5799,-3.5799,-3.5801,-3.5803,-3.5508,-3.5238,-3.5047,-3.4916,-3.4661,-3.425,-3.4504,-3.4184,-3.3341,-3.262,-3.2213,-3.2021,-3.1691,-3.1346,-3.1015,-3.1015,-3.0814,-3.0468,-3.0274,-3.0189,-3.0189,-2.9897,-2.9677,-2.9515,-2.9227,-2.892,-2.8573,-3.5885,-3.5885,-3.5885,-3.5885,-3.5885,-3.5878,-3.5885,-3.5838,-3.5826,-3.5864,-3.5884,-3.5884,-3.5884,-3.5883,-3.5875,-3.5875,-3.5885,-3.5884,-3.5886,-3.5936,-3.5976,-3.5987,-3.5999,-3.5991,-3.5991,-3.5991,-3.5991,-3.5991,-3.5991,-3.5991,-3.5991,-3.5991,-3.5991,-3.5991,-3.5991,-3.5991,-3.5991,-3.5991,-3.5991,-3.5991,-3.5991,-3.5991,-3.5991,-3.5991,-3.5991,-3.5991,-3.5991,-3.5974,-3.5909,-3.5927,-3.589,-3.5864,-3.5904,-3.5883,-3.5814,-3.5827,-3.5753,-3.566,-3.5568,-3.5463,-3.5386,-3.5386,-3.443,-3.3384,-3.2908,-3.2933,-3.3201,-3.3681,-3.4677,-3.5449,-3.5449,-3.5477,-3.5495,-3.5495,-3.5483,-3.5514,-3.5607,-3.5599,-3.563,-3.5784,-3.5801,-3.5799,-3.5799,-3.5799,-3.5799,-3.5799,-3.5799,-3.5791,-3.581,-3.5717,-3.559,-3.5393,-3.5463,-3.5273,-3.4811,-3.4882,-3.4486,-3.3674,-3.335,-3.284,-3.2229,-3.1986,-3.1562,-3.1015,-3.1015,-3.0814,-3.0468,-3.0274,-3.0274,-3.0401,-2.9984,-2.9897,-2.9973,-2.9425,-2.9059,-2.8779,-3.5908,-3.5908,-3.5908,-3.5908,-3.5897,-3.5891,-3.5908,-3.5879,-3.5859,-3.5905,-3.5905,-3.5905,-3.5905,-3.5908,-3.5899,-3.5908,-3.5923,-3.5948,-3.5957,-3.5973,-3.6003,-3.5994,-3.5991,-3.5988,-3.5942,-3.5942,-3.5958,-3.5947,-3.5947,-3.5955,-3.5942,-3.5942,-3.5965,-3.5991,-3.5991,-3.5991,-3.5991,-3.5991,-3.5991,-3.5991,-3.5991,-3.5991,-3.5991,-3.5965,-3.5942,-3.5942,-3.5951,-3.5904,-3.5866,-3.588,-3.5858,-3.5813,-3.5833,-3.5806,-3.5741,-3.5639,-3.5601,-3.5535,-3.5432,-3.5355,-3.5205,-3.4806,-3.4006,-3.3225,-3.2802,-3.3283,-3.3872,-3.3968,-3.4668,-3.5258,-3.5258,-3.5235,-3.5228,-3.5228,-3.5262,-3.5292,-3.5359,-3.538,-3.5444,-3.5648,-3.5669,-3.5659,-3.5659,-3.5747,-3.5765,-3.5679,-3.5745,-3.5799,-3.5799,-3.5801,-3.5747,-3.5639,-3.5679,-3.5585,-3.5325,-3.5205,-3.4848,-3.4289,-3.3895,-3.334,-3.261,-3.2316,-3.1787,-3.1117,-3.1117,-3.0918,-3.0568,-3.0485,-3.0443,-3.0468,-3.0199,-3.013,-3.0146,-2.9649,-2.9227,-2.8904,-3.5908,-3.5908,-3.5908,-3.5908,-3.5908,-3.5889,-3.5894,-3.5894,-3.5894,-3.5914,-3.5914,-3.5919,-3.5909,-3.5893,-3.5895,-3.5898,-3.5954,-3.5971,-3.5971,-3.5977,-3.5985,-3.5985,-3.5985,-3.5958,-3.5903,-3.5903,-3.589,-3.5908,-3.5908,-3.5899,-3.5903,-3.5903,-3.5931,-3.5985,-3.5985,-3.5985,-3.5985,-3.5985,-3.5985,-3.5985,-3.5985,-3.5985,-3.5985,-3.5927,-3.5903,-3.5899,-3.5889,-3.5846,-3.5784,-3.5846,-3.5813,-3.5768,-3.576,-3.5715,-3.5631,-3.5444,-3.5412,-3.5418,-3.5311,-3.5266,-3.5017,-3.388,-3.3689,-3.3597,-3.2829,-3.3748,-3.4661,-3.4222,-3.4632,-3.5075,-3.5075,-3.4983,-3.4908,-3.4908,-3.4982,-3.5053,-3.5088,-3.513,-3.5234,-3.5425,-3.5483,-3.5495,-3.5451,-3.5637,-3.5679,-3.5504,-3.5669,-3.5754,-3.5782,-3.5784,-3.5784,-3.5782,-3.5727,-3.5689,-3.5697,-3.5457,-3.52,-3.4944,-3.4373,-3.3762,-3.3064,-3.2681,-3.2056,-3.1334,-3.1295,-3.1061,-3.0733,-3.0692,-3.0609,-3.0526,-3.0526,-3.0401,-3.0189,-2.9766,-2.9438,-2.909,-3.5894,-3.5908,-3.5908,-3.5908,-3.5908,-3.5894,-3.5904,-3.5904,-3.5929,-3.5977,-3.5981,-3.5955,-3.5906,-3.5897,-3.5895,-3.5896,-3.5908,-3.5909,-3.5909,-3.5924,-3.5924,-3.5924,-3.5924,-3.5919,-3.5894,-3.5894,-3.5894,-3.5908,-3.5908,-3.5894,-3.5894,-3.5894,-3.5919,-3.5924,-3.5924,-3.5924,-3.5924,-3.5924,-3.5924,-3.5924,-3.5924,-3.5924,-3.5899,-3.5899,-3.5894,-3.5889,-3.5846,-3.5741,-3.5631,-3.564,-3.5639,-3.5626,-3.5554,-3.5543,-3.5507,-3.543,-3.5289,-3.5176,-3.5209,-3.5226,-3.4655,-3.2302,-3.227,-3.2749,-3.2496,-3.265,-3.32,-3.449,-3.4851,-3.4927,-3.4927,-3.4927,-3.4908,-3.4908,-3.4869,-3.4888,-3.4999,-3.4978,-3.503,-3.5212,-3.5405,-3.5438,-3.5259,-3.5438,-3.5531,-3.5507,-3.5531,-3.5607,-3.5718,-3.5718,-3.5718,-3.5718,-3.5708,-3.5669,-3.5623,-3.5572,-3.5422,-3.5157,-3.4832,-3.424,-3.3414,-3.3064,-3.24,-3.1542,-3.1372,-3.1157,-3.0871,-3.0733,-3.0609,-3.0526,-3.0526,-3.0468,-3.0401,-2.9941,-2.9633,-2.9335,-3.5948,-3.5948,-3.5948,-3.5948,-3.5948,-3.5953,-3.5958,-3.5958,-3.5958,-3.6005,-3.5965,-3.5923,-3.5893,-3.5875,-3.5848,-3.5849,-3.5852,-3.5852,-3.5852,-3.5872,-3.5908,-3.5908,-3.5908,-3.5903,-3.5905,-3.5866,-3.5852,-3.5852,-3.5852,-3.5866,-3.5905,-3.5905,-3.5891,-3.5908,-3.5908,-3.5908,-3.5908,-3.5908,-3.5908,-3.5908,-3.5908,-3.5908,-3.5908,-3.5891,-3.5905,-3.5898,-3.5779,-3.5669,-3.5535,-3.5507,-3.5445,-3.5364,-3.5307,-3.5273,-3.5262,-3.5155,-3.5126,-3.5092,-3.5037,-3.4713,-3.4105,-3.2893,-3.2912,-3.318,-3.3107,-3.3449,-3.3979,-3.4737,-3.487,-3.4849,-3.4849,-3.4791,-3.4751,-3.4751,-3.4728,-3.471,-3.4772,-3.4753,-3.4812,-3.5016,-3.5117,-3.5181,-3.5159,-3.5254,-3.5331,-3.5331,-3.5339,-3.5406,-3.5535,-3.5543,-3.5574,-3.5637,-3.5658,-3.5637,-3.5596,-3.5566,-3.5441,-3.5203,-3.4851,-3.4259,-3.3442,-3.3082,-3.2384,-3.1538,-3.1445,-3.1252,-3.0952,-3.0871,-3.0733,-3.0609,-3.0526,-3.0426,-3.03,-2.9941,-2.9633,-2.935,-3.5986,-3.6005,-3.6005,-3.6005,-3.6005,-3.6005,-3.6009,-3.6009,-3.6009,-3.5994,-3.5942,-3.5896,-3.5898,-3.5854,-3.5821,-3.5805,-3.5806,-3.5799,-3.5799,-3.5859,-3.5885,-3.5885,-3.5885,-3.5872,-3.5891,-3.5834,-3.5799,-3.5799,-3.5799,-3.5834,-3.5884,-3.5884,-3.5885,-3.5885,-3.5885,-3.5885,-3.5885,-3.5885,-3.5885,-3.5885,-3.5885,-3.5885,-3.5885,-3.5878,-3.5857,-3.5779,-3.5669,-3.5538,-3.5386,-3.5302,-3.5247,-3.5168,-3.5088,-3.507,-3.507,-3.4926,-3.4964,-3.4982,-3.4699,-3.4301,-3.3884,-3.3469,-3.3525,-3.3658,-3.3639,-3.4112,-3.4585,-3.4774,-3.479,-3.4747,-3.4747,-3.4666,-3.4602,-3.4602,-3.4602,-3.4602,-3.4602,-3.4602,-3.4647,-3.4811,-3.487,-3.4908,-3.4978,-3.5066,-3.5117,-3.51,-3.5095,-3.5174,-3.5292,-3.5345,-3.5438,-3.5565,-3.5581,-3.5558,-3.5489,-3.5488,-3.5335,-3.503,-3.4716,-3.4144,-3.3358,-3.2929,-3.2351,-3.1614,-3.1555,-3.1346,-3.1055,-3.0975,-3.0831,-3.0692,-3.0609,-3.0401,-3.0146,-2.9897,-2.9589,-2.9259,-3.6005,-3.6005,-3.6005,-3.6005,-3.6005,-3.6009,-3.5997,-3.5997,-3.6001,-3.601,-3.5933,-3.5898,-3.5901,-3.5903,-3.5866,-3.5815,-3.5799,-3.5799,-3.5799,-3.5799,-3.5807,-3.5807,-3.5807,-3.5807,-3.5799,-3.5799,-3.5799,-3.5799,-3.5799,-3.5799,-3.5799,-3.5799,-3.5799,-3.5807,-3.5807,-3.5807,-3.5807,-3.5807,-3.5807,-3.5807,-3.5807,-3.5807,-3.5807,-3.5799,-3.5698,-3.5516,-3.5457,-3.5292,-3.5122,-3.4982,-3.5018,-3.5088,-3.4945,-3.5,-3.507,-3.4926,-3.4869,-3.4659,-3.398,-3.4282,-3.4415,-3.2808,-3.2958,-3.3505,-3.3441,-3.3477,-3.3721,-3.4454,-3.4623,-3.4604,-3.4604,-3.4623,-3.4602,-3.4602,-3.4602,-3.4602,-3.4602,-3.4602,-3.4623,-3.4604,-3.4791,-3.4812,-3.4647,-3.4812,-3.4889,-3.4832,-3.4832,-3.4908,-3.5015,-3.5219,-3.5379,-3.5488,-3.5522,-3.5397,-3.513,-3.5315,-3.5119,-3.4553,-3.4473,-3.4035,-3.3291,-3.2818,-3.2401,-3.2054,-3.1651,-3.1423,-3.1257,-3.1095,-3.0855,-3.0692,-3.0692,-3.0485,-3.0146,-2.9897,-2.9589,-2.9259,-3.5087,-3.5185,-3.536,-3.5907,-3.6004,-3.6004,-3.6007,-3.6007,-3.6007,-3.5991,-3.5937,-3.5906,-3.5896,-3.585,-3.583,-3.5799,-3.5799,-3.5799,-3.5799,-3.5799,-3.5799,-3.5799,-3.5799,-3.5799,-3.5799,-3.5799,-3.5799,-3.5799,-3.5799,-3.5799,-3.5799,-3.5799,-3.5799,-3.5791,-3.5801,-3.5801,-3.5791,-3.5765,-3.5765,-3.5793,-3.5756,-3.5736,-3.5727,-3.5649,-3.5566,-3.5476,-3.5273,-3.5152,-3.507,-3.4908,-3.4869,-3.4889,-3.4751,-3.4751,-3.4772,-3.473,-3.4708,-3.4612,-3.4333,-3.4484,-3.4559,-3.3876,-3.397,-3.4196,-3.4153,-3.4132,-3.4226,-3.4526,-3.4602,-3.4602,-3.4602,-3.458,-3.4539,-3.4539,-3.4495,-3.4473,-3.4473,-3.4473,-3.4473,-3.4473,-3.4583,-3.467,-3.4711,-3.467,-3.4691,-3.4793,-3.4649,-3.4609,-3.4735,-3.4944,-3.5105,-3.5258,-3.5219,-3.5133,-3.5049,-3.5013,-3.4851,-3.4508,-3.4086,-3.3642,-3.3164,-3.2631,-3.2162,-3.1726,-3.1555,-3.1385,-3.1213,-3.1015,-3.0912,-3.0831,-3.0651,-3.0342,-2.9941,-2.9853,-2.956,-2.9167,-3.4178,-3.4295,-3.4471,-3.5076,-3.5171,-3.5291,-3.5545,-3.5584,-3.5681,-3.5952,-3.5937,-3.5893,-3.5893,-3.5846,-3.5799,-3.5799,-3.5799,-3.5799,-3.5799,-3.581,-3.581,-3.5791,-3.5799,-3.5799,-3.5799,-3.5799,-3.5791,-3.5801,-3.5801,-3.5782,-3.5773,-3.5773,-3.5773,-3.5773,-3.5775,-3.5775,-3.5773,-3.5718,-3.5737,-3.5766,-3.5718,-3.5708,-3.5699,-3.5543,-3.547,-3.5372,-3.5136,-3.4999,-3.4926,-3.479,-3.4747,-3.4727,-3.4623,-3.4602,-3.4561,-3.4539,-3.4539,-3.4539,-3.4539,-3.4539,-3.4539,-3.4561,-3.4539,-3.4539,-3.4539,-3.4539,-3.4539,-3.4539,-3.4539,-3.4539,-3.4539,-3.4495,-3.4473,-3.4473,-3.4427,-3.4386,-3.4386,-3.4386,-3.4386,-3.4386,-3.445,-3.452,-3.4651,-3.4542,-3.4498,-3.4609,-3.4435,-3.439,-3.4508,-3.4632,-3.4774,-3.4907,-3.487,-3.4794,-3.4695,-3.4774,-3.4595,-3.4213,-3.3732,-3.3317,-3.2947,-3.2453,-3.1984,-3.1593,-3.1517,-3.1402,-3.119,-3.0992,-3.0912,-3.0831,-3.0651,-3.03,-2.9897,-2.9853,-2.956,-2.9213,-3.3398,-3.3398,-3.3398,-3.3398,-3.3398,-3.369,-3.4569,-3.4686,-3.4998,-3.5876,-3.5937,-3.5893,-3.5893,-3.5846,-3.5799,-3.5799,-3.5799,-3.5791,-3.5791,-3.5793,-3.5793,-3.5791,-3.5791,-3.5791,-3.5791,-3.5791,-3.5801,-3.5803,-3.5803,-3.5766,-3.5708,-3.5708,-3.5708,-3.5708,-3.5708,-3.5708,-3.5708,-3.5708,-3.5708,-3.5708,-3.5708,-3.5708,-3.5669,-3.5543,-3.5359,-3.5165,-3.4961,-3.4773,-3.4602,-3.4602,-3.4602,-3.4602,-3.4602,-3.4539,-3.4495,-3.4427,-3.4386,-3.4386,-3.4386,-3.4386,-3.4427,-3.4495,-3.445,-3.4386,-3.4386,-3.4386,-3.4386,-3.4386,-3.4386,-3.4386,-3.4386,-3.4386,-3.4386,-3.4386,-3.4386,-3.4386,-3.4386,-3.4386,-3.4386,-3.4386,-3.4386,-3.4386,-3.4386,-3.4386,-3.434,-3.4221,-3.4197,-3.4227,-3.4288,-3.4311,-3.4357,-3.4508,-3.4508,-3.433,-3.3998,-3.4526,-3.4375,-3.3587,-3.3393,-3.3064,-3.2669,-3.2301,-3.2001,-3.18,-3.1593,-3.1402,-3.119,-3.1055,-3.0895,-3.0692,-3.0692,-3.0485,-3.0146,-2.9897,-2.9677,-2.9425,-3.2363,-3.248,-3.2675,-3.33,-3.3398,-3.3495,-3.3749,-3.3788,-3.3871,-3.4137,-3.4643,-3.4986,-3.4983,-3.547,-3.581,-3.5793,-3.5793,-3.5784,-3.5727,-3.5718,-3.5718,-3.5727,-3.5727,-3.5727,-3.5727,-3.5727,-3.5727,-3.5737,-3.5737,-3.5718,-3.5708,-3.5708,-3.5708,-3.5708,-3.5708,-3.5708,-3.5708,-3.5707,-3.5697,-3.5698,-3.5697,-3.5623,-3.547,-3.5283,-3.5114,-3.4944,-3.4772,-3.4668,-3.4583,-3.4539,-3.4517,-3.4517,-3.4473,-3.445,-3.4427,-3.4404,-3.4386,-3.4386,-3.4386,-3.4381,-3.434,-3.4409,-3.4409,-3.4386,-3.4386,-3.4386,-3.4386,-3.4386,-3.4386,-3.4386,-3.4386,-3.4363,-3.4316,-3.4316,-3.4293,-3.4269,-3.4269,-3.4269,-3.4269,-3.4269,-3.4293,-3.4316,-3.4316,-3.4293,-3.4245,-3.4197,-3.4124,-3.4074,-3.4105,-3.4087,-3.4136,-3.4298,-3.4147,-3.4,-3.3787,-3.3899,-3.3742,-3.3309,-3.297,-3.2684,-3.242,-3.2214,-3.1929,-3.1671,-3.1538,-3.1423,-3.1235,-3.1015,-3.0912,-3.0831,-3.0651,-3.0401,-3.0146,-2.9897,-2.9677,-2.947,-3.1524,-3.1621,-3.1797,-3.2324,-3.2402,-3.2519,-3.2831,-3.289,-3.3016,-3.3359,-3.3793,-3.407,-3.4052,-3.4489,-3.4775,-3.4766,-3.5096,-3.5397,-3.5689,-3.5699,-3.5689,-3.5689,-3.5698,-3.5708,-3.5708,-3.5708,-3.5699,-3.5689,-3.5689,-3.5708,-3.5698,-3.5698,-3.5698,-3.5698,-3.5697,-3.5697,-3.5698,-3.5706,-3.5654,-3.5581,-3.5589,-3.5464,-3.5258,-3.5047,-3.4925,-3.4831,-3.4586,-3.4517,-3.4517,-3.4473,-3.4473,-3.445,-3.4363,-3.4363,-3.434,-3.4293,-3.4269,-3.4269,-3.4245,-3.4221,-3.4197,-3.4221,-3.4269,-3.4316,-3.4316,-3.4316,-3.4316,-3.4316,-3.4316,-3.4316,-3.4316,-3.4269,-3.4221,-3.4221,-3.4173,-3.4124,-3.4124,-3.4124,-3.4124,-3.4124,-3.4148,-3.4173,-3.4173,-3.4148,-3.4124,-3.4074,-3.3972,-3.3895,-3.3868,-3.3868,-3.3895,-3.3921,-3.3823,-3.3652,-3.3458,-3.3372,-3.3262,-3.3129,-3.2737,-3.2472,-3.2283,-3.2091,-3.1875,-3.1579,-3.1559,-3.1445,-3.1235,-3.1112,-3.0952,-3.0814,-3.0651,-3.0485,-3.0274,-3.0044,-2.981,-2.9589,-3.0899,-3.0899,-3.0899,-3.0899,-3.0899,-3.1155,-3.1877,-3.1995,-3.2279,-3.3061,-3.3168,-3.3161,-3.3083,-3.3149,-3.3197,-3.3197,-3.3925,-3.47,-3.5427,-3.5543,-3.5591,-3.5591,-3.5657,-3.5687,-3.5699,-3.5699,-3.5708,-3.5707,-3.5707,-3.5687,-3.5673,-3.5673,-3.5673,-3.5673,-3.5673,-3.5673,-3.5704,-3.5673,-3.5565,-3.5391,-3.5378,-3.5239,-3.5047,-3.4851,-3.4773,-3.4733,-3.4498,-3.4386,-3.4386,-3.4386,-3.4404,-3.4363,-3.4293,-3.4269,-3.4245,-3.4124,-3.4099,-3.4074,-3.4023,-3.3998,-3.3998,-3.3998,-3.4099,-3.4173,-3.4173,-3.4173,-3.4173,-3.4173,-3.4173,-3.4173,-3.4173,-3.4124,-3.4099,-3.4099,-3.4049,-3.3998,-3.3998,-3.3998,-3.3998,-3.3998,-3.3998,-3.3998,-3.3998,-3.3998,-3.3947,-3.3895,-3.3815,-3.3753,-3.3698,-3.3698,-3.3615,-3.3462,-3.3462,-3.3345,-3.3055,-3.2898,-3.2866,-3.2943,-3.2657,-3.2422,-3.2283,-3.2038,-3.1785,-3.1617,-3.1579,-3.1445,-3.119,-3.119,-3.0992,-3.0733,-3.0692,-3.0609,-3.0485,-3.0274,-3.0044,-2.9766,-3.0901,-3.0905,-3.0892,-3.0892,-3.0892,-3.0951,-3.1127,-3.1166,-3.1191,-3.1276,-3.1863,-3.2266,-3.2182,-3.2779,-3.3208,-3.3209,-3.3316,-3.347,-3.3644,-3.4302,-3.467,-3.467,-3.5347,-3.5695,-3.5706,-3.5706,-3.5706,-3.5695,-3.5695,-3.5631,-3.5464,-3.5464,-3.5464,-3.5464,-3.5464,-3.5565,-3.5684,-3.5521,-3.5405,-3.5311,-3.5159,-3.4959,-3.4793,-3.4734,-3.463,-3.4476,-3.4409,-3.4386,-3.4386,-3.434,-3.4293,-3.4221,-3.4173,-3.4148,-3.4124,-3.4049,-3.4023,-3.4023,-3.3998,-3.3998,-3.3998,-3.3998,-3.4023,-3.4049,-3.4049,-3.4049,-3.4049,-3.4049,-3.4049,-3.4049,-3.4049,-3.4023,-3.4023,-3.4023,-3.3998,-3.3998,-3.3998,-3.3998,-3.3998,-3.3998,-3.3998,-3.3998,-3.3998,-3.3913,-3.3834,-3.3753,-3.3671,-3.3633,-3.3615,-3.3615,-3.3502,-3.328,-3.316,-3.2975,-3.2705,-3.2472,-3.2472,-3.2687,-3.2507,-3.2301,-3.2144,-3.2073,-3.1875,-3.1579,-3.1538,-3.1406,-3.1274,-3.1095,-3.0992,-3.0871,-3.0733,-3.0609,-3.0485,-3.0274,-3.0044,-2.975,-3.0894,-3.0891,-3.0891,-3.0897,-3.0897,-3.0897,-3.0897,-3.0866,-3.081,-3.07,-3.1059,-3.1321,-3.1282,-3.1689,-3.2106,-3.2503,-3.2503,-3.2657,-3.3063,-3.3538,-3.3789,-3.3789,-3.4214,-3.4466,-3.4466,-3.4842,-3.5248,-3.5704,-3.5704,-3.5608,-3.5405,-3.5359,-3.5297,-3.5209,-3.5212,-3.5277,-3.5369,-3.5243,-3.513,-3.5011,-3.4906,-3.4735,-3.4545,-3.4524,-3.4435,-3.434,-3.4316,-3.4269,-3.4245,-3.4221,-3.4173,-3.4099,-3.4074,-3.4049,-3.4049,-3.3972,-3.3947,-3.3947,-3.3921,-3.3895,-3.3895,-3.3895,-3.3895,-3.3921,-3.3998,-3.3998,-3.3998,-3.3998,-3.3998,-3.3998,-3.3998,-3.3972,-3.3947,-3.3947,-3.3921,-3.3895,-3.3895,-3.3895,-3.3895,-3.3895,-3.3895,-3.3895,-3.3842,-3.3788,-3.3726,-3.3661,-3.3633,-3.3577,-3.3549,-3.3549,-3.3415,-3.316,-3.3068,-3.288,-3.2588,-3.2472,-3.2404,-3.2404,-3.2249,-3.2108,-3.1984,-3.1965,-3.1856,-3.1709,-3.1596,-3.1483,-3.1368,-3.1196,-3.1055,-3.0912,-3.0831,-3.0692,-3.0485,-3.0401,-3.0113,-2.9766,-3.0898,-3.0895,-3.0909,-3.0898,-3.0898,-3.0898,-3.0898,-3.0842,-3.0776,-3.0709,-3.0634,-3.0598,-3.0598,-3.0598,-3.0868,-3.1545,-3.1584,-3.1913,-3.2618,-3.2792,-3.287,-3.287,-3.3024,-3.3102,-3.3102,-3.3738,-3.453,-3.5472,-3.5615,-3.5565,-3.5336,-3.5268,-3.5143,-3.494,-3.4943,-3.4962,-3.4997,-3.4962,-3.4851,-3.4674,-3.4651,-3.4524,-3.4363,-3.4293,-3.4269,-3.4269,-3.4197,-3.4148,-3.4074,-3.4074,-3.4049,-3.3998,-3.3998,-3.3972,-3.3972,-3.3895,-3.3868,-3.3868,-3.3834,-3.3807,-3.3807,-3.3807,-3.3807,-3.3815,-3.3947,-3.3972,-3.3972,-3.3972,-3.3972,-3.3972,-3.3972,-3.3921,-3.3868,-3.3868,-3.3834,-3.378,-3.378,-3.378,-3.378,-3.378,-3.378,-3.3753,-3.3671,-3.3671,-3.3643,-3.3577,-3.3577,-3.3549,-3.3481,-3.3433,-3.3316,-3.3055,-3.3024,-3.2866,-3.2573,-3.2539,-3.2404,-3.2179,-3.1984,-3.1894,-3.1894,-3.1856,-3.18,-3.1746,-3.1634,-3.1521,-3.1462,-3.1312,-3.1117,-3.0912,-3.0912,-3.0749,-3.0485,-3.0468,-3.0156,-2.9766,-3.0898,-3.0898,-3.0898,-3.0898,-3.0898,-3.0898,-3.0898,-3.0842,-3.0781,-3.0711,-3.0635,-3.0598,-3.0598,-3.0598,-3.0636,-3.0752,-3.0752,-3.081,-3.0926,-3.1584,-3.199,-3.199,-3.2705,-3.31,-3.31,-3.3145,-3.3608,-3.4491,-3.5241,-3.5416,-3.5049,-3.5049,-3.4925,-3.4754,-3.4734,-3.4832,-3.498,-3.4813,-3.4694,-3.4612,-3.4413,-3.4316,-3.4221,-3.4221,-3.4221,-3.4197,-3.4148,-3.4074,-3.4023,-3.4023,-3.3998,-3.3998,-3.3921,-3.3921,-3.3895,-3.3815,-3.3815,-3.3807,-3.3788,-3.3807,-3.3807,-3.3807,-3.3807,-3.3788,-3.3815,-3.3834,-3.3834,-3.3834,-3.3834,-3.3834,-3.3834,-3.3815,-3.3815,-3.3815,-3.3753,-3.3726,-3.3726,-3.3671,-3.3633,-3.3633,-3.3633,-3.3615,-3.3587,-3.3549,-3.352,-3.3491,-3.3452,-3.3422,-3.3393,-3.3256,-3.3086,-3.2948,-3.277,-3.259,-3.2422,-3.2249,-3.2144,-3.2108,-3.1893,-3.1856,-3.1894,-3.1894,-3.1802,-3.1617,-3.1538,-3.1445,-3.1312,-3.1252,-3.1112,-3.0912,-3.0912,-3.0749,-3.0485,-3.0316,-3.0044,-2.9766,-3.0898,-3.0898,-3.0898,-3.0898,-3.0898,-3.0898,-3.0898,-3.081,-3.0734,-3.0694,-3.0636,-3.0598,-3.0598,-3.0598,-3.0598,-3.0598,-3.0598,-3.0569,-3.0559,-3.0878,-3.1071,-3.1081,-3.1437,-3.1639,-3.1639,-3.205,-3.2455,-3.2852,-3.3641,-3.4127,-3.4276,-3.415,-3.424,-3.448,-3.4435,-3.4461,-3.4548,-3.4461,-3.4394,-3.4367,-3.4274,-3.4221,-3.4197,-3.4173,-3.4148,-3.4148,-3.4074,-3.3998,-3.3947,-3.3947,-3.3921,-3.3868,-3.3842,-3.3842,-3.3815,-3.378,-3.3753,-3.3726,-3.3698,-3.3671,-3.3671,-3.3671,-3.3671,-3.3671,-3.3671,-3.3671,-3.3698,-3.378,-3.3807,-3.3807,-3.3753,-3.3753,-3.3726,-3.3698,-3.3671,-3.3643,-3.3643,-3.3633,-3.3605,-3.3605,-3.3605,-3.3577,-3.3549,-3.312,-3.2762,-3.2665,-3.222,-3.2108,-3.2421,-3.2378,-3.2451,-3.2719,-3.2623,-3.2456,-3.2301,-3.2144,-3.2073,-3.1984,-3.1496,-3.1441,-3.1856,-3.1765,-3.1691,-3.1579,-3.1428,-3.1351,-3.1295,-3.123,-3.1112,-3.0952,-3.0912,-3.0749,-3.0485,-3.0401,-3.013,-2.981]}]]